Temperatur und Luftfeuchte

Temperatur und Luftfeuchte

</
Nummer Datum und Zeit Sensor ID Temperatur in Celsius gef├╝hlte Temperatur Luftfeuchte in %
30440 2020-08-10 09:38:29 Terrasse 26.00 26.94 60.40
30439 2020-08-10 09:10:10 Terrasse 26.00 26.97 61.30
30438 2020-08-10 08:41:48 Terrasse 25.70 25.91 60.70
30437 2020-08-10 08:13:25 Terrasse 25.20 25.43 63.50
30436 2020-08-10 07:45:05 Terrasse 24.90 25.13 64.40
30435 2020-08-10 07:16:45 Terrasse 24.90 25.06 61.80
30434 2020-08-10 06:48:24 Terrasse 24.70 24.80 60.30
30433 2020-08-10 06:20:04 Terrasse 24.70 24.76 58.60
30432 2020-08-10 05:51:45 Terrasse 24.80 24.84 57.80
30431 2020-08-10 05:23:27 Terrasse 24.90 24.95 57.70
30430 2020-08-10 04:55:08 Terrasse 25.30 25.36 56.60
30429 2020-08-10 04:26:49 Terrasse 25.40 25.46 56.00
30428 2020-08-10 03:58:29 Terrasse 25.40 25.45 55.70
30427 2020-08-10 03:30:12 Terrasse 25.80 25.87 55.00
30426 2020-08-10 03:01:55 Terrasse 26.20 26.86 53.40
30425 2020-08-10 02:33:38 Terrasse 26.60 27.21 53.00
30424 2020-08-10 02:05:20 Terrasse 27.20 27.67 50.90
30423 2020-08-10 01:37:01 Terrasse 27.20 27.60 49.80
30422 2020-08-10 01:08:40 Terrasse 27.40 27.82 50.20
30421 2020-08-10 00:40:22 Terrasse 27.50 27.80 48.50
30420 2020-08-10 00:12:05 Terrasse 27.80 27.99 47.00
30419 2020-08-09 23:43:44 Terrasse 28.00 28.17 46.80
30418 2020-08-09 23:15:25 Terrasse 28.10 28.27 46.70
30417 2020-08-09 22:47:06 Terrasse 28.20 28.17 44.30
30416 2020-08-09 22:18:47 Terrasse 28.50 28.54 45.00
30415 2020-08-09 21:50:26 Terrasse 28.60 28.64 44.90
30414 2020-08-09 21:22:10 Terrasse 28.50 28.53 44.90
30413 2020-08-09 20:53:48 Terrasse 28.50 28.76 47.30
30412 2020-08-09 20:25:36 Terrasse 28.80 29.31 49.20
30411 2020-08-09 19:57:18 Terrasse 29.40 30.18 49.90
30410 2020-08-09 19:29:25 Terrasse 30.30 31.59 50.50
30409 2020-08-09 18:56:57 Terrasse 31.60 32.43 44.10
30408 2020-08-09 18:28:41 Terrasse 32.10 33.41 45.00
30407 2020-08-09 18:00:25 Terrasse 32.90 34.67 44.60
30406 2020-08-09 17:32:12 Terrasse 34.10 36.65 43.80
30405 2020-08-09 17:03:56 Terrasse 34.80 36.88 40.10
30404 2020-08-09 16:35:41 Terrasse 35.60 39.07 42.10
30403 2020-08-09 16:07:30 Terrasse 36.50 39.19 37.30
30402 2020-08-09 14:42:59 Terrasse 36.70 39.98 38.40
30401 2020-08-09 14:14:41 Terrasse 37.10 40.95 38.80
30400 2020-08-09 13:46:35 Terrasse 38.00 42.88 38.80
30399 2020-08-09 13:18:16 Terrasse 38.50 44.29 39.40
30398 2020-08-09 12:49:30 Terrasse 35.80 39.73 42.80
30397 2020-08-09 12:21:13 Terrasse 33.80 36.68 45.90
30396 2020-08-09 11:53:07 Terrasse 33.80 37.13 47.40
30395 2020-08-09 11:24:59 Terrasse 32.30 35.02 50.40
30394 2020-08-09 10:57:04 Terrasse 30.40 32.48 54.50
30393 2020-08-09 10:27:56 Terrasse 28.70 30.27 58.10
30392 2020-08-09 09:59:29 Terrasse 27.30 28.84 64.30
30391 2020-08-09 09:31:03 Terrasse 26.30 27.62 67.70
30390 2020-08-09 09:02:38 Terrasse 25.40 25.71 65.60
30389 2020-08-09 08:34:13 Terrasse 24.50 24.75 66.70
30388 2020-08-09 08:05:52 Terrasse 24.00 24.26 69.20
30387 2020-08-09 07:37:32 Terrasse 23.70 23.87 66.80
30386 2020-08-09 07:09:14 Terrasse 23.60 23.63 61.80
30385 2020-08-09 06:40:56 Terrasse 23.80 23.78 59.20
30384 2020-08-09 06:12:37 Terrasse 24.20 24.17 57.20
30383 2020-08-09 05:44:19 Terrasse 24.40 24.37 56.30
30382 2020-08-09 05:16:01 Terrasse 24.70 24.68 55.80
30381 2020-08-09 04:47:43 Terrasse 24.90 24.89 55.40
30380 2020-08-09 04:19:24 Terrasse 25.20 25.22 55.20
30379 2020-08-09 03:51:06 Terrasse 25.40 25.42 54.70
30378 2020-08-09 03:22:47 Terrasse 25.60 25.61 53.40
30377 2020-08-09 02:54:28 Terrasse 25.80 25.82 53.10
30376 2020-08-09 02:26:12 Terrasse 26.20 26.82 52.40
30375 2020-08-09 01:57:55 Terrasse 26.40 26.95 51.40
30374 2020-08-09 01:29:37 Terrasse 26.70 27.21 51.30
30373 2020-08-09 01:01:17 Terrasse 26.90 27.31 49.80
30372 2020-08-09 00:32:59 Terrasse 27.10 27.51 49.90
30371 2020-08-09 00:04:45 Terrasse 27.40 27.77 49.50
30370 2020-08-08 23:37:09 Terrasse 27.80 28.21 49.80
30369 2020-08-08 23:06:47 Terrasse 28.10 28.56 50.00
30368 2020-08-08 22:36:36 Terrasse 28.40 29.14 52.20
30367 2020-08-08 22:08:32 Terrasse 28.90 29.55 50.20
30366 2020-08-08 21:37:57 Terrasse 29.50 30.25 49.40
30365 2020-08-08 21:09:41 Terrasse 30.20 31.20 49.10
30364 2020-08-08 20:41:26 Terrasse 30.80 32.25 49.80
30363 2020-08-08 20:13:10 Terrasse 31.50 33.27 49.10
30362 2020-08-08 19:44:53 Terrasse 31.90 33.08 45.00
30361 2020-08-08 19:16:37 Terrasse 32.40 33.14 41.40
30360 2020-08-08 18:48:20 Terrasse 32.90 34.08 42.10
30359 2020-08-08 18:20:02 Terrasse 33.30 34.42 40.70
30358 2020-08-08 17:51:45 Terrasse 33.70 35.66 42.90
30357 2020-08-08 17:23:28 Terrasse 34.20 35.85 40.30
30356 2020-08-08 16:55:12 Terrasse 35.00 37.40 40.60
30355 2020-08-08 16:26:55 Terrasse 34.60 36.26 39.20
30354 2020-08-08 15:58:37 Terrasse 35.10 37.37 39.90
30353 2020-08-08 15:30:18 Terrasse 35.70 38.42 39.60
30352 2020-08-08 15:02:01 Terrasse 35.50 38.52 41.10
30351 2020-08-08 14:33:46 Terrasse 36.00 39.64 41.40
30350 2020-08-08 14:05:34 Terrasse 36.50 40.24 40.20
30349 2020-08-08 13:37:28 Terrasse 37.30 41.09 38.10
30348 2020-08-08 13:08:57 Terrasse 37.40 42.86 41.80
30347 2020-08-08 12:40:06 Terrasse 33.40 36.78 48.90
30346 2020-08-08 12:11:53 Terrasse 33.00 35.73 48.00
30345 2020-08-08 11:43:27 Terrasse 32.20 34.81 50.30
30344 2020-08-08 11:14:56 Terrasse 30.70 32.93 54.10
30343 2020-08-08 10:46:18 Terrasse 28.70 30.59 60.40
30342 2020-08-08 10:17:50 Terrasse 27.10 29.09 70.70
30341 2020-08-08 09:49:33 Terrasse 26.10 27.68 75.80
30340 2020-08-08 09:21:04 Terrasse 25.10 26.01 89.70
30339 2020-08-08 08:52:38 Terrasse 24.10 25.04 94.70
30338 2020-08-08 08:24:15 Terrasse 23.30 24.21 96.60
30337 2020-08-08 07:55:55 Terrasse 23.00 23.96 99.60
30336 2020-08-08 07:27:37 Terrasse 22.80 23.31 83.30
30335 2020-08-08 06:59:20 Terrasse 22.80 23.01 71.90
30334 2020-08-08 06:31:02 Terrasse 22.80 22.93 68.90
30333 2020-08-08 06:02:45 Terrasse 23.10 23.20 66.60
30332 2020-08-08 05:34:28 Terrasse 23.30 23.39 65.40
30331 2020-08-08 05:06:10 Terrasse 23.50 23.56 63.50
30330 2020-08-08 04:37:53 Terrasse 23.60 23.63 61.90
30329 2020-08-08 04:09:34 Terrasse 23.80 23.80 59.80
30328 2020-08-08 03:41:16 Terrasse 23.90 23.88 58.90
30327 2020-08-08 03:13:00 Terrasse 24.00 24.00 59.00
30326 2020-08-08 02:44:43 Terrasse 24.40 24.41 58.20
30325 2020-08-08 02:16:26 Terrasse 24.70 24.73 57.70
30324 2020-08-08 01:48:09 Terrasse 24.90 24.94 57.40
30323 2020-08-08 01:19:52 Terrasse 25.20 25.25 56.30
30322 2020-08-08 00:51:35 Terrasse 25.50 25.56 55.60
30321 2020-08-08 00:23:18 Terrasse 25.80 25.86 54.60
30320 2020-08-07 23:55:02 Terrasse 26.10 26.79 53.90
30319 2020-08-07 23:26:45 Terrasse 26.40 27.02 53.00
30318 2020-08-07 22:58:27 Terrasse 26.80 27.37 52.40
30317 2020-08-07 22:30:12 Terrasse 27.20 27.69 51.20
30316 2020-08-07 22:01:57 Terrasse 27.60 28.12 51.40
30315 2020-08-07 21:33:40 Terrasse 28.20 28.74 50.70
30314 2020-08-07 21:05:25 Terrasse 28.80 29.57 51.40
30313 2020-08-07 20:37:09 Terrasse 29.50 30.43 50.70
30312 2020-08-07 20:09:05 Terrasse 30.10 30.75 47.10
30311 2020-08-07 19:40:45 Terrasse 30.70 31.13 44.10
30310 2020-08-07 19:12:28 Terrasse 31.10 31.29 41.60
30309 2020-08-07 18:44:11 Terrasse 31.40 31.89 42.70
30308 2020-08-07 18:15:54 Terrasse 31.80 32.44 42.50
30307 2020-08-07 17:47:36 Terrasse 32.10 32.95 42.80
30306 2020-08-07 17:19:18 Terrasse 32.40 33.34 42.40
30305 2020-08-07 16:51:01 Terrasse 32.70 33.80 42.30
30304 2020-08-07 16:22:45 Terrasse 33.20 34.24 40.60
30303 2020-08-07 15:54:28 Terrasse 33.70 35.19 41.10
30302 2020-08-07 15:26:06 Terrasse 33.70 34.47 38.10
30301 2020-08-07 14:57:48 Terrasse 33.70 34.59 38.60
30300 2020-08-07 14:29:31 Terrasse 34.10 35.03 37.70
30299 2020-08-07 14:01:15 Terrasse 34.30 35.38 37.80
30298 2020-08-07 13:32:58 Terrasse 34.50 35.64 37.50
30297 2020-08-07 13:04:36 Terrasse 34.00 35.48 40.20
30296 2020-08-07 12:35:59 Terrasse 31.10 31.79 44.70
30295 2020-08-07 12:07:46 Terrasse 31.40 32.47 45.90
30294 2020-08-07 11:39:20 Terrasse 30.40 31.43 48.70
30293 2020-08-07 11:10:46 Terrasse 28.60 29.24 50.80
30292 2020-08-07 10:42:10 Terrasse 26.50 27.17 54.20
30291 2020-08-07 10:13:42 Terrasse 25.00 25.04 57.00
30290 2020-08-07 09:45:15 Terrasse 23.90 23.89 59.20
30289 2020-08-07 09:16:52 Terrasse 22.70 22.61 60.70
30288 2020-08-07 08:48:34 Terrasse 21.50 21.38 64.10
30287 2020-08-07 08:20:09 Terrasse 20.60 20.46 67.00
30286 2020-08-07 07:51:49 Terrasse 20.10 19.99 69.90
30285 2020-08-07 07:23:31 Terrasse 20.00 19.76 65.30
30284 2020-08-07 06:55:12 Terrasse 19.90 19.58 62.70
30283 2020-08-07 06:26:53 Terrasse 20.00 19.64 60.80
30282 2020-08-07 05:58:35 Terrasse 20.10 19.73 60.00
30281 2020-08-07 05:30:21 Terrasse 20.30 19.94 59.60
30280 2020-08-07 05:02:05 Terrasse 20.50 20.15 59.20
30279 2020-08-07 04:33:48 Terrasse 20.90 20.56 57.90
30278 2020-08-07 04:05:30 Terrasse 21.30 20.99 57.60
30277 2020-08-07 03:37:13 Terrasse 21.50 21.19 57.00
30276 2020-08-07 03:08:57 Terrasse 21.70 21.39 56.20
30275 2020-08-07 02:40:39 Terrasse 22.00 21.72 56.00
30274 2020-08-07 02:12:21 Terrasse 22.20 21.92 55.40
30273 2020-08-07 01:44:04 Terrasse 22.50 22.24 55.10
30272 2020-08-07 01:15:48 Terrasse 22.70 22.44 54.10
30271 2020-08-07 00:47:31 Terrasse 23.10 22.89 54.40
30270 2020-08-07 00:19:12 Terrasse 23.40 23.21 54.00
30269 2020-08-06 23:50:55 Terrasse 23.70 23.52 53.50
30268 2020-08-06 23:22:38 Terrasse 24.00 23.84 53.00
30267 2020-08-06 22:54:21 Terrasse 24.40 24.27 52.60
30266 2020-08-06 22:26:04 Terrasse 24.60 24.47 51.70
30265 2020-08-06 21:57:47 Terrasse 25.10 25.00 51.00
30264 2020-08-06 21:29:32 Terrasse 25.70 25.64 50.20
30263 2020-08-06 21:01:18 Terrasse 26.40 26.86 49.50
30262 2020-08-06 20:33:02 Terrasse 27.20 27.49 48.20
30261 2020-08-06 20:04:44 Terrasse 27.60 27.79 47.00
30260 2020-08-06 19:36:28 Terrasse 28.10 28.20 45.90
30259 2020-08-06 19:08:11 Terrasse 28.60 28.56 44.00
30258 2020-08-06 18:39:54 Terrasse 29.10 29.09 43.90
30257 2020-08-06 18:11:36 Terrasse 29.30 29.45 45.10
30256 2020-08-06 17:43:19 Terrasse 29.60 29.62 43.40
30255 2020-08-06 17:15:00 Terrasse 29.70 29.71 43.20
30254 2020-08-06 16:46:41 Terrasse 29.80 29.89 43.70
30253 2020-08-06 16:18:25 Terrasse 30.20 30.16 41.90
30252 2020-08-06 15:50:10 Terrasse 31.00 31.67 44.80
30251 2020-08-06 15:21:52 Terrasse 31.40 31.68 41.50
30250 2020-08-06 14:53:32 Terrasse 31.20 31.68 43.20
30249 2020-08-06 14:25:13 Terrasse 31.50 31.81 41.40
30248 2020-08-06 13:57:00 Terrasse 32.00 32.46 41.00
30247 2020-08-06 13:28:46 Terrasse 32.10 32.62 41.10
30246 2020-08-06 13:00:16 Terrasse 31.40 32.41 45.60
30245 2020-08-06 12:31:57 Terrasse 28.30 28.72 49.20
30244 2020-08-06 12:03:37 Terrasse 28.50 28.95 49.20
30243 2020-08-06 11:35:14 Terrasse 27.60 28.12 51.30
30242 2020-08-06 11:06:36 Terrasse 25.60 25.72 57.50
30241 2020-08-06 10:38:54 Terrasse 23.90 23.99 63.10
30240 2020-08-06 10:08:52 Terrasse 22.40 22.50 69.10
30239 2020-08-06 09:40:27 Terrasse 21.40 21.97 91.00
30238 2020-08-06 09:12:01 Terrasse 20.30 20.48 80.10
30237 2020-08-06 08:43:35 Terrasse 19.30 19.65 90.70
30236 2020-08-06 08:15:12 Terrasse 18.70 18.38 67.30
30235 2020-08-06 07:46:52 Terrasse 18.20 17.93 71.10
30234 2020-08-06 07:18:33 Terrasse 17.90 17.56 69.50
30233 2020-08-06 06:50:16 Terrasse 18.00 17.59 66.40
30232 2020-08-06 06:21:58 Terrasse 18.10 17.64 64.00
30231 2020-08-06 05:53:39 Terrasse 18.30 17.81 62.40
30230 2020-08-06 05:25:22 Terrasse 18.50 18.03 62.10
30229 2020-08-06 04:57:04 Terrasse 18.70 18.22 60.90
30228 2020-08-06 04:28:48 Terrasse 19.00 18.52 60.00
30227 2020-08-06 04:00:31 Terrasse 19.10 18.61 59.00
30226 2020-08-06 03:32:14 Terrasse 19.40 18.91 57.90
30225 2020-08-06 03:03:57 Terrasse 19.60 19.10 57.00
30224 2020-08-06 02:35:40 Terrasse 19.80 19.31 56.30
30223 2020-08-06 02:07:23 Terrasse 20.00 19.50 55.20
30222 2020-08-06 01:39:05 Terrasse 20.30 19.80 54.30
30221 2020-08-06 01:10:57 Terrasse 20.60 20.11 53.30
30220 2020-08-06 00:42:37 Terrasse 20.90 20.42 52.80
30219 2020-08-06 00:14:20 Terrasse 21.30 20.83 51.60
30218 2020-08-05 23:46:04 Terrasse 21.70 21.25 50.60
30217 2020-08-05 23:17:46 Terrasse 22.10 21.67 49.80
30216 2020-08-05 22:49:26 Terrasse 22.20 21.79 50.20
30215 2020-08-05 22:21:10 Terrasse 22.60 22.26 51.40
30214 2020-08-05 21:52:54 Terrasse 23.20 22.91 51.10
30213 2020-08-05 21:24:39 Terrasse 24.00 23.80 51.40
30212 2020-08-05 20:56:26 Terrasse 24.80 24.57 47.10
30211 2020-08-05 20:28:11 Terrasse 25.60 25.36 43.70
30210 2020-08-05 19:59:56 Terrasse 26.10 25.84 41.30
30209 2020-08-05 19:31:40 Terrasse 26.50 26.58 41.50
30208 2020-08-05 19:03:25 Terrasse 26.80 26.82 42.10
30207 2020-08-05 18:35:08 Terrasse 27.20 27.14 42.40
30206 2020-08-05 18:06:50 Terrasse 27.40 27.34 43.00
30205 2020-08-05 17:38:32 Terrasse 27.60 27.46 42.20
30204 2020-08-05 17:10:17 Terrasse 28.10 27.90 42.00
30203 2020-08-05 16:42:00 Terrasse 28.30 28.03 41.30
30202 2020-08-05 16:13:43 Terrasse 28.70 28.42 41.30
30201 2020-08-05 15:45:26 Terrasse 29.20 29.03 42.20
30200 2020-08-05 15:17:07 Terrasse 29.30 28.75 38.20
30199 2020-08-05 14:48:49 Terrasse 29.40 28.91 38.80
30198 2020-08-05 14:20:34 Terrasse 29.90 29.63 40.50
30197 2020-08-05 13:52:19 Terrasse 30.10 29.79 39.90
30196 2020-08-05 13:24:00 Terrasse 30.30 29.92 39.00
30195 2020-08-05 12:55:29 Terrasse 28.60 28.43 42.60
30194 2020-08-05 12:27:10 Terrasse 27.00 27.17 45.70
30193 2020-08-05 11:58:49 Terrasse 26.90 27.27 49.00
30192 2020-08-05 11:30:22 Terrasse 25.60 25.60 53.20
30191 2020-08-05 11:01:41 Terrasse 23.50 23.45 59.20
30190 2020-08-05 10:33:11 Terrasse 21.80 21.63 61.20
30189 2020-08-05 10:04:44 Terrasse 20.50 20.34 66.50
30188 2020-08-05 09:36:20 Terrasse 19.50 19.17 63.90
30187 2020-08-05 09:07:55 Terrasse 18.60 18.25 66.50
30186 2020-08-05 08:41:15 Terrasse 17.60 17.26 70.80
30185 2020-08-05 08:09:31 Terrasse 16.90 16.53 72.30
30184 2020-08-05 07:41:11 Terrasse 16.30 15.87 72.00
30183 2020-08-05 07:12:52 Terrasse 16.10 15.53 67.50
30182 2020-08-05 06:44:35 Terrasse 16.10 15.42 63.50
30181 2020-08-05 06:16:18 Terrasse 16.20 15.47 61.00
30180 2020-08-05 05:48:02 Terrasse 16.40 15.66 59.90
30179 2020-08-05 05:19:46 Terrasse 16.60 15.82 57.80
30178 2020-08-05 04:51:30 Terrasse 16.70 15.92 57.10
30177 2020-08-05 04:23:13 Terrasse 16.90 16.12 56.30
30176 2020-08-05 03:54:56 Terrasse 17.10 16.33 55.90
30175 2020-08-05 03:26:41 Terrasse 17.30 16.53 55.20
30174 2020-08-05 02:58:25 Terrasse 17.50 16.75 55.20
30173 2020-08-05 02:30:09 Terrasse 17.80 17.06 54.60
30172 2020-08-05 02:01:52 Terrasse 18.10 17.38 54.00
30171 2020-08-05 01:33:36 Terrasse 18.40 17.70 53.90
30170 2020-08-05 01:05:19 Terrasse 18.80 18.09 51.90
30169 2020-08-05 00:37:03 Terrasse 19.10 18.41 51.50
30168 2020-08-05 00:08:45 Terrasse 19.40 18.75 51.70
30167 2020-08-04 23:40:29 Terrasse 19.60 18.90 49.30
30166 2020-08-04 23:12:13 Terrasse 20.00 19.31 48.10
30165 2020-08-04 22:43:57 Terrasse 20.30 19.66 48.70
30164 2020-08-04 22:15:48 Terrasse 20.70 20.11 49.20
30163 2020-08-04 21:47:31 Terrasse 21.10 20.57 49.80
30162 2020-08-04 21:19:14 Terrasse 21.60 21.09 48.80
30161 2020-08-04 20:51:01 Terrasse 22.20 21.76 49.30
30160 2020-08-04 20:22:45 Terrasse 22.80 22.40 48.60
30159 2020-08-04 19:54:30 Terrasse 23.50 23.18 48.80
30158 2020-08-04 19:26:15 Terrasse 24.20 23.85 45.00
30157 2020-08-04 18:57:58 Terrasse 24.80 24.41 41.20
30156 2020-08-04 18:29:41 Terrasse 25.20 24.86 41.60
30155 2020-08-04 18:01:24 Terrasse 25.70 25.35 39.30
30154 2020-08-04 17:33:11 Terrasse 26.20 25.95 41.10
30153 2020-08-04 17:04:52 Terrasse 26.30 26.51 43.20
30152 2020-08-04 16:36:32 Terrasse 26.30 26.62 45.70
30151 2020-08-04 16:08:20 Terrasse 27.40 27.31 42.50
30150 2020-08-04 15:40:03 Terrasse 27.70 27.66 43.80
30149 2020-08-04 15:11:42 Terrasse 27.30 27.38 45.00
30148 2020-08-04 14:43:22 Terrasse 27.00 27.09 44.30
30147 2020-08-04 14:15:00 Terrasse 26.90 27.14 46.70
30146 2020-08-04 13:46:42 Terrasse 25.40 25.29 49.50
30145 2020-08-04 13:18:46 Terrasse 28.90 28.84 43.60
30144 2020-08-04 12:50:15 Terrasse 26.80 27.26 50.50
30143 2020-08-04 12:21:56 Terrasse 25.40 25.35 52.00
30142 2020-08-04 11:53:35 Terrasse 24.90 24.88 55.00
30141 2020-08-04 11:24:49 Terrasse 21.80 21.56 58.20
30140 2020-08-04 10:56:15 Terrasse 21.30 21.04 59.70
30139 2020-08-04 10:27:54 Terrasse 21.70 21.53 61.50
30138 2020-08-04 09:59:30 Terrasse 20.60 20.36 62.90
30137 2020-08-04 09:31:06 Terrasse 19.40 19.13 66.50
30136 2020-08-04 09:02:39 Terrasse 18.10 17.77 69.30
30135 2020-08-04 08:34:18 Terrasse 17.70 17.33 69.10
30134 2020-08-04 08:06:01 Terrasse 17.40 17.00 69.00
30133 2020-08-04 07:37:41 Terrasse 17.10 16.65 68.30
30132 2020-08-04 07:09:22 Terrasse 17.00 16.54 68.40
30131 2020-08-04 06:41:04 Terrasse 17.00 16.53 67.90
30130 2020-08-04 06:12:47 Terrasse 17.20 16.73 67.20
30129 2020-08-04 05:44:30 Terrasse 17.50 17.01 65.10
30128 2020-08-04 05:16:13 Terrasse 17.80 17.31 64.10
30127 2020-08-04 04:47:55 Terrasse 18.00 17.52 63.70
30126 2020-08-04 04:19:38 Terrasse 18.20 17.72 62.90
30125 2020-08-04 03:51:21 Terrasse 18.30 17.79 61.40
30124 2020-08-04 03:23:02 Terrasse 18.40 17.85 59.50
30123 2020-08-04 02:54:45 Terrasse 18.50 17.95 59.20
30122 2020-08-04 02:26:27 Terrasse 18.70 18.18 59.60
30121 2020-08-04 01:58:09 Terrasse 18.80 18.28 59.30
30120 2020-08-04 01:29:51 Terrasse 19.00 18.49 58.80
30119 2020-08-04 01:01:33 Terrasse 19.00 18.50 59.30
30118 2020-08-04 00:33:14 Terrasse 19.20 18.73 59.50
30117 2020-08-04 00:04:57 Terrasse 19.30 18.85 60.00
30116 2020-08-03 23:36:48 Terrasse 19.40 18.98 60.60
30115 2020-08-03 23:08:26 Terrasse 19.50 19.15 62.90
30114 2020-08-03 22:40:09 Terrasse 19.60 19.25 62.70
30113 2020-08-03 22:11:52 Terrasse 19.90 19.56 62.00
30112 2020-08-03 21:43:35 Terrasse 20.20 19.84 60.00
30111 2020-08-03 21:15:16 Terrasse 20.40 20.06 60.00
30110 2020-08-03 20:46:58 Terrasse 20.60 20.41 64.90
30109 2020-08-03 20:18:41 Terrasse 20.90 20.71 63.80
30108 2020-08-03 19:50:23 Terrasse 21.00 20.84 64.70
30107 2020-08-03 19:22:05 Terrasse 21.10 20.98 65.60
30106 2020-08-03 18:53:48 Terrasse 21.30 21.21 66.00
30105 2020-08-03 18:25:29 Terrasse 21.40 21.37 68.00
30104 2020-08-03 17:57:14 Terrasse 21.80 21.78 66.80
30103 2020-08-03 17:28:59 Terrasse 22.60 22.73 69.40
30102 2020-08-03 17:00:56 Terrasse 22.50 22.80 76.40
30101 2020-08-03 16:32:33 Terrasse 22.90 23.09 70.70
30100 2020-08-03 16:04:40 Terrasse 23.10 23.22 67.30
30099 2020-08-03 15:34:14 Terrasse 23.00 23.21 70.90
30098 2020-08-03 15:05:57 Terrasse 23.20 23.43 70.90
30097 2020-08-03 14:37:33 Terrasse 22.10 22.72 90.10
30096 2020-08-03 14:09:14 Terrasse 21.80 22.25 84.80
30095 2020-08-03 13:40:57 Terrasse 22.40 22.48 68.20
30094 2020-08-03 13:12:36 Terrasse 22.20 22.37 72.60
30093 2020-08-03 12:44:18 Terrasse 22.00 22.13 71.80
30092 2020-08-03 12:15:55 Terrasse 21.80 22.07 77.80
30091 2020-08-03 11:47:32 Terrasse 20.60 20.82 80.60
30090 2020-08-03 11:19:17 Terrasse 21.10 21.32 78.70
30089 2020-08-03 10:51:02 Terrasse 21.60 21.71 72.40
30088 2020-08-03 10:22:40 Terrasse 21.60 21.77 75.00
30087 2020-08-03 09:54:14 Terrasse 20.50 20.77 82.80
30086 2020-08-03 09:25:53 Terrasse 19.80 20.20 90.60
30085 2020-08-03 08:57:33 Terrasse 19.80 20.38 97.40
30084 2020-08-03 08:29:11 Terrasse 19.30 19.84 97.70
30083 2020-08-03 08:00:51 Terrasse 18.80 19.34 99.90
30082 2020-08-03 07:32:33 Terrasse 18.80 19.34 99.90
30081 2020-08-03 07:04:14 Terrasse 18.70 19.23 99.90
30080 2020-08-03 06:35:57 Terrasse 18.70 19.22 99.50
30079 2020-08-03 06:07:40 Terrasse 18.60 19.12 99.90
30078 2020-08-03 05:39:22 Terrasse 18.50 19.01 99.90
30077 2020-08-03 05:11:04 Terrasse 18.50 18.95 97.50
30076 2020-08-03 04:42:46 Terrasse 18.50 18.87 94.40
30075 2020-08-03 04:14:30 Terrasse 18.60 18.86 89.70
30074 2020-08-03 03:46:15 Terrasse 18.90 19.01 82.90
30073 2020-08-03 03:17:58 Terrasse 19.20 19.19 77.10
30072 2020-08-03 02:49:42 Terrasse 19.50 19.41 73.10
30071 2020-08-03 02:21:25 Terrasse 19.80 19.66 70.00
30070 2020-08-03 01:53:06 Terrasse 20.00 19.86 69.20
30069 2020-08-03 01:24:47 Terrasse 20.50 20.35 66.80
30068 2020-08-03 00:56:31 Terrasse 20.50 20.35 66.90
30067 2020-08-03 00:28:13 Terrasse 20.80 20.64 65.30
30066 2020-08-02 23:59:57 Terrasse 21.30 21.14 63.20
30065 2020-08-02 23:31:39 Terrasse 21.70 21.55 62.40
30064 2020-08-02 23:03:22 Terrasse 21.90 21.75 61.40
30063 2020-08-02 22:35:05 Terrasse 22.30 22.09 57.50
30062 2020-08-02 22:06:49 Terrasse 22.70 22.51 56.80
30061 2020-08-02 21:38:30 Terrasse 22.80 22.59 55.80
30060 2020-08-02 21:10:14 Terrasse 23.10 22.90 55.00
30059 2020-08-02 20:41:59 Terrasse 23.80 23.67 55.10
30058 2020-08-02 20:13:42 Terrasse 24.40 24.25 51.90
30057 2020-08-02 19:45:25 Terrasse 24.70 24.54 50.30
30056 2020-08-02 19:17:07 Terrasse 25.10 25.02 51.70
30055 2020-08-02 18:48:53 Terrasse 25.60 25.52 49.90
30054 2020-08-02 18:20:35 Terrasse 26.10 26.07 49.80
30053 2020-08-02 17:52:18 Terrasse 26.60 27.09 50.70
30052 2020-08-02 17:24:02 Terrasse 27.10 27.53 50.30
30051 2020-08-02 16:55:45 Terrasse 27.30 27.76 50.70
30050 2020-08-02 16:27:24 Terrasse 27.40 27.92 51.60
30049 2020-08-02 15:59:03 Terrasse 27.10 27.82 54.70
30048 2020-08-02 15:30:45 Terrasse 26.40 27.06 53.70
30047 2020-08-02 15:02:24 Terrasse 26.10 26.91 57.00
30046 2020-08-02 14:34:07 Terrasse 26.50 27.41 58.80
30045 2020-08-02 14:05:48 Terrasse 26.30 27.19 58.60
30044 2020-08-02 13:37:29 Terrasse 26.20 27.27 63.00
30043 2020-08-02 13:09:06 Terrasse 26.20 27.56 69.40
30042 2020-08-02 12:40:47 Terrasse 26.00 27.38 72.20
30041 2020-08-02 12:12:25 Terrasse 25.00 25.96 92.10
30040 2020-08-02 11:43:51 Terrasse 23.20 24.18 99.90
30039 2020-08-02 11:15:18 Terrasse 21.70 22.53 99.90
30038 2020-08-02 10:46:59 Terrasse 21.20 21.98 99.90
30037 2020-08-02 10:18:44 Terrasse 21.50 22.31 99.90
30036 2020-08-02 09:50:30 Terrasse 22.50 23.31 95.80
30035 2020-08-02 09:22:08 Terrasse 22.20 23.04 98.40
30034 2020-08-02 08:53:49 Terrasse 21.70 22.53 99.90
30033 2020-08-02 08:25:33 Terrasse 21.90 22.75 99.90
30032 2020-08-02 07:57:16 Terrasse 22.00 22.86 99.90
30031 2020-08-02 07:28:56 Terrasse 21.90 22.75 99.90
30030 2020-08-02 07:00:38 Terrasse 21.80 22.64 99.90
30029 2020-08-02 06:32:21 Terrasse 21.90 22.75 99.90
30028 2020-08-02 06:04:03 Terrasse 22.10 22.97 99.90
30027 2020-08-02 05:35:47 Terrasse 22.30 23.19 99.90
30026 2020-08-02 05:07:31 Terrasse 22.60 23.52 99.90
30025 2020-08-02 04:39:13 Terrasse 22.90 23.85 99.90
30024 2020-08-02 04:10:55 Terrasse 23.00 23.96 99.90
30023 2020-08-02 03:42:38 Terrasse 23.20 24.18 99.90
30022 2020-08-02 03:14:22 Terrasse 23.40 24.40 99.90
30021 2020-08-02 02:46:04 Terrasse 23.50 24.51 99.90
30020 2020-08-02 02:17:47 Terrasse 23.80 24.48 86.00
30019 2020-08-02 01:49:28 Terrasse 23.80 24.17 74.00
30018 2020-08-02 01:21:10 Terrasse 24.00 24.31 71.10
30017 2020-08-02 00:52:53 Terrasse 24.20 24.48 69.30
30016 2020-08-02 00:24:35 Terrasse 24.40 24.66 67.40
30015 2020-08-01 23:56:18 Terrasse 24.60 24.81 64.80
30014 2020-08-01 23:27:59 Terrasse 24.80 25.01 64.20
30013 2020-08-01 22:59:42 Terrasse 25.00 25.20 63.10
30012 2020-08-01 22:31:25 Terrasse 25.40 25.63 62.70
30011 2020-08-01 22:03:07 Terrasse 25.60 25.83 61.70
30010 2020-08-01 21:34:52 Terrasse 25.90 26.87 61.50
30009 2020-08-01 21:06:36 Terrasse 26.50 27.49 60.30
30008 2020-08-01 20:38:20 Terrasse 27.00 28.03 59.30
30007 2020-08-01 20:10:02 Terrasse 27.40 28.39 57.50
30006 2020-08-01 19:41:45 Terrasse 27.70 28.55 55.10
30005 2020-08-01 19:13:27 Terrasse 27.90 28.87 55.80
30004 2020-08-01 18:45:08 Terrasse 28.10 29.15 55.90
30003 2020-08-01 18:16:48 Terrasse 28.10 29.11 55.60
30002 2020-08-01 17:48:28 Terrasse 27.90 29.05 57.60
30001 2020-08-01 17:20:06 Terrasse 27.80 29.23 60.70
30000 2020-08-01 16:51:42 Terrasse 27.00 28.31 63.10
29999 2020-08-01 16:23:21 Terrasse 26.20 27.48 67.70
29998 2020-08-01 15:55:00 Terrasse 26.10 27.42 69.60
29997 2020-08-01 15:26:41 Terrasse 26.10 27.34 67.70
29996 2020-08-01 14:58:23 Terrasse 26.30 27.54 66.00
29995 2020-08-01 14:30:07 Terrasse 26.50 27.75 65.00
29994 2020-08-01 14:01:51 Terrasse 26.90 28.09 61.90
29993 2020-08-01 13:33:35 Terrasse 27.40 28.32 56.60
29992 2020-08-01 13:05:19 Terrasse 27.90 28.82 55.30
29991 2020-08-01 12:37:02 Terrasse 28.30 29.07 52.70
29990 2020-08-01 12:08:51 Terrasse 29.30 30.16 50.80
29989 2020-08-01 11:40:39 Terrasse 30.00 31.06 50.10
29988 2020-08-01 11:12:20 Terrasse 28.90 29.70 51.40
29987 2020-08-01 10:43:55 Terrasse 28.60 29.43 52.50
29986 2020-08-01 10:15:28 Terrasse 27.30 27.71 50.00
29985 2020-08-01 09:47:03 Terrasse 26.20 26.89 54.20
29984 2020-08-01 09:18:37 Terrasse 25.20 25.20 54.60
29983 2020-08-01 08:50:09 Terrasse 23.80 23.75 58.20
29982 2020-08-01 08:21:45 Terrasse 23.10 23.02 59.70
29981 2020-08-01 07:53:25 Terrasse 22.70 22.60 60.30
29980 2020-08-01 07:25:06 Terrasse 22.50 22.31 57.60
29979 2020-08-01 06:56:48 Terrasse 22.50 22.28 56.60
29978 2020-08-01 06:28:30 Terrasse 22.60 22.36 55.30
29977 2020-08-01 06:00:13 Terrasse 22.80 22.57 54.80
29976 2020-08-01 05:31:55 Terrasse 23.00 22.76 53.70
29975 2020-08-01 05:03:39 Terrasse 23.20 22.98 53.80
29974 2020-08-01 04:35:22 Terrasse 23.50 23.28 52.60
29973 2020-08-01 04:07:03 Terrasse 23.60 23.40 53.00
29972 2020-08-01 03:38:46 Terrasse 23.80 23.61 52.70
29971 2020-08-01 03:10:30 Terrasse 24.30 24.15 52.40
29970 2020-08-01 02:42:13 Terrasse 24.80 24.66 50.80
29969 2020-08-01 02:13:55 Terrasse 24.90 24.78 51.00
29968 2020-08-01 01:45:39 Terrasse 25.20 25.08 50.10
29967 2020-08-01 01:17:22 Terrasse 25.50 25.39 49.30
29966 2020-08-01 00:49:04 Terrasse 25.60 25.49 49.00
29965 2020-08-01 00:20:46 Terrasse 25.70 25.61 49.30
29964 2020-07-31 23:52:28 Terrasse 25.90 25.83 49.20
29963 2020-07-31 23:24:12 Terrasse 26.20 26.63 47.70
29962 2020-07-31 22:55:56 Terrasse 26.60 26.90 46.80
29961 2020-07-31 22:27:41 Terrasse 27.10 27.27 46.00
29960 2020-07-31 21:59:24 Terrasse 27.70 27.77 45.40
29959 2020-07-31 21:31:08 Terrasse 28.30 28.43 46.10
29958 2020-07-31 21:02:52 Terrasse 29.10 29.27 45.60
29957 2020-07-31 20:34:36 Terrasse 29.70 30.06 46.00
29956 2020-07-31 20:06:20 Terrasse 30.30 30.98 46.80
29955 2020-07-31 19:38:06 Terrasse 31.10 31.13 40.60
29954 2020-07-31 19:09:50 Terrasse 31.60 31.31 37.40
29953 2020-07-31 18:41:34 Terrasse 32.10 32.21 38.80
29952 2020-07-31 18:13:16 Terrasse 32.50 32.51 37.30
29951 2020-07-31 17:44:59 Terrasse 32.80 32.94 37.30
29950 2020-07-31 17:16:48 Terrasse 33.20 33.39 36.60
29949 2020-07-31 16:48:27 Terrasse 33.50 33.96 37.20
29948 2020-07-31 16:20:11 Terrasse 33.80 34.56 37.80
29947 2020-07-31 15:51:58 Terrasse 34.40 35.06 35.80
29946 2020-07-31 15:23:36 Terrasse 34.70 36.14 38.10
29945 2020-07-31 14:55:19 Terrasse 34.70 35.85 37.00
29944 2020-07-31 14:27:10 Terrasse 34.70 36.06 37.80
29943 2020-07-31 13:58:53 Terrasse 35.10 35.92 34.70
29942 2020-07-31 13:30:38 Terrasse 35.50 36.83 35.60
29941 2020-07-31 13:02:09 Terrasse 34.30 35.31 37.50
29940 2020-07-31 12:33:38 Terrasse 31.30 31.29 39.90
29939 2020-07-31 12:05:21 Terrasse 31.50 31.37 38.70
29938 2020-07-31 11:36:56 Terrasse 30.30 30.45 43.10
29937 2020-07-31 11:08:26 Terrasse 28.40 28.65 47.30
29936 2020-07-31 10:40:38 Terrasse 26.30 26.83 50.70
29935 2020-07-31 10:11:50 Terrasse 24.80 24.71 52.60
29934 2020-07-31 09:43:21 Terrasse 23.50 23.37 56.00
29933 2020-07-31 09:14:56 Terrasse 22.40 22.07 52.70
29932 2020-07-31 08:46:30 Terrasse 21.10 20.72 55.60
29931 2020-07-31 08:18:07 Terrasse 20.30 19.79 53.80
29930 2020-07-31 07:49:47 Terrasse 19.70 19.31 60.70
29929 2020-07-31 07:21:28 Terrasse 19.40 18.93 58.70
29928 2020-07-31 06:53:10 Terrasse 19.30 18.76 56.30
29927 2020-07-31 06:24:53 Terrasse 19.60 19.04 54.50
29926 2020-07-31 05:56:36 Terrasse 19.80 19.22 53.10
29925 2020-07-31 05:28:18 Terrasse 19.90 19.33 53.00
29924 2020-07-31 05:00:01 Terrasse 20.10 19.54 52.60
29923 2020-07-31 04:31:45 Terrasse 20.50 19.96 51.70
29922 2020-07-31 04:03:28 Terrasse 20.80 20.26 50.60
29921 2020-07-31 03:35:11 Terrasse 21.00 20.47 50.20
29920 2020-07-31 03:06:53 Terrasse 21.20 20.68 50.00
29919 2020-07-31 02:38:36 Terrasse 21.30 20.79 49.90
29918 2020-07-31 02:10:20 Terrasse 21.50 21.00 49.40
29917 2020-07-31 01:42:03 Terrasse 21.70 21.22 49.60
29916 2020-07-31 01:13:47 Terrasse 22.10 21.65 49.10
29915 2020-07-31 00:45:31 Terrasse 22.50 22.07 48.30
29914 2020-07-31 00:17:14 Terrasse 22.80 22.38 47.70
29913 2020-07-30 23:48:58 Terrasse 23.30 22.93 47.70
29912 2020-07-30 23:20:42 Terrasse 23.60 23.25 47.40
29911 2020-07-30 22:52:24 Terrasse 24.00 23.70 47.70
29910 2020-07-30 22:24:09 Terrasse 24.40 24.10 46.10
29909 2020-07-30 21:55:52 Terrasse 25.00 24.74 45.40
29908 2020-07-30 21:27:35 Terrasse 25.60 25.39 44.90
29907 2020-07-30 20:59:20 Terrasse 26.30 26.54 43.80
29906 2020-07-30 20:31:05 Terrasse 26.80 26.89 43.50
29905 2020-07-30 20:02:49 Terrasse 27.50 27.36 41.90
29904 2020-07-30 19:34:31 Terrasse 28.00 27.75 41.30
29903 2020-07-30 19:06:14 Terrasse 28.50 28.25 41.60
29902 2020-07-30 18:37:59 Terrasse 29.10 28.75 40.50
29901 2020-07-30 18:09:42 Terrasse 29.30 28.83 39.10
29900 2020-07-30 13:29:16 Terrasse 31.40 31.54 40.60
29899 2020-07-30 12:32:22 Terrasse 28.00 28.17 46.70
29898 2020-07-30 12:04:05 Terrasse 27.90 28.05 46.50
29897 2020-07-30 11:35:40 Terrasse 27.00 27.43 50.20
29896 2020-07-30 11:07:05 Terrasse 25.10 24.96 49.40
29895 2020-07-30 10:38:34 Terrasse 23.50 23.31 53.70
29894 2020-07-30 10:10:07 Terrasse 22.10 21.80 55.10
29893 2020-07-30 09:41:41 Terrasse 21.00 20.63 56.60
29892 2020-07-30 09:13:17 Terrasse 20.00 19.56 57.60
29891 2020-07-30 08:44:52 Terrasse 18.90 18.35 57.80
29890 2020-07-30 08:16:30 Terrasse 18.10 17.47 57.70
29889 2020-07-30 07:48:09 Terrasse 17.50 16.86 59.60
29888 2020-07-30 07:19:50 Terrasse 17.10 16.49 62.40
29887 2020-07-30 06:51:33 Terrasse 16.90 16.26 61.80
29886 2020-07-30 06:23:16 Terrasse 17.00 16.31 59.50
29885 2020-07-30 05:55:01 Terrasse 17.40 16.72 58.20
29884 2020-07-30 05:26:44 Terrasse 17.70 17.02 57.40
29883 2020-07-30 04:58:27 Terrasse 18.00 17.36 57.50
29882 2020-07-30 04:30:12 Terrasse 18.30 17.65 56.20
29881 2020-07-30 04:01:56 Terrasse 18.70 18.06 55.10
29880 2020-07-30 03:33:38 Terrasse 19.00 18.37 54.30
29879 2020-07-30 03:05:22 Terrasse 19.20 18.59 54.00
29878 2020-07-30 02:37:07 Terrasse 19.50 18.89 52.90
29877 2020-07-30 02:08:50 Terrasse 19.90 19.30 51.90
29876 2020-07-30 01:40:34 Terrasse 20.00 19.39 51.10
29875 2020-07-30 01:12:16 Terrasse 20.20 19.60 50.70
29874 2020-07-30 00:44:00 Terrasse 20.40 19.82 50.60
29873 2020-07-30 00:15:44 Terrasse 20.70 20.15 50.70
29872 2020-07-29 23:47:28 Terrasse 21.10 20.61 51.60
29871 2020-07-29 23:19:11 Terrasse 21.40 20.93 51.20
29870 2020-07-29 22:50:55 Terrasse 21.90 21.44 49.40
29869 2020-07-29 22:22:39 Terrasse 22.30 21.87 49.10
29868 2020-07-29 21:54:23 Terrasse 22.60 22.19 49.00
29867 2020-07-29 21:26:09 Terrasse 23.30 22.93 47.60
29866 2020-07-29 20:57:53 Terrasse 23.80 23.43 45.80
29865 2020-07-29 20:29:38 Terrasse 24.30 23.95 44.60
29864 2020-07-29 20:01:22 Terrasse 24.90 24.59 44.00
29863 2020-07-29 19:33:06 Terrasse 25.40 25.11 42.80
29862 2020-07-29 19:04:49 Terrasse 25.90 25.66 42.50
29861 2020-07-29 18:36:35 Terrasse 26.40 26.55 42.30
29860 2020-07-29 18:08:17 Terrasse 26.70 26.78 42.80
29859 2020-07-29 17:40:02 Terrasse 27.20 27.12 42.00
29858 2020-07-29 17:11:46 Terrasse 27.40 27.26 41.70
29857 2020-07-29 16:43:27 Terrasse 27.60 27.54 43.40
29856 2020-07-29 16:15:10 Terrasse 27.80 27.61 41.80
29855 2020-07-29 15:46:58 Terrasse 28.60 28.43 42.60
29854 2020-07-29 15:18:35 Terrasse 28.60 28.34 41.60
29853 2020-07-29 14:50:17 Terrasse 28.60 28.35 41.70
29852 2020-07-29 14:21:58 Terrasse 28.30 28.04 41.40
29851 2020-07-29 13:53:46 Terrasse 28.90 28.75 42.70
29850 2020-07-29 13:25:33 Terrasse 29.10 28.91 42.10
29849 2020-07-29 12:56:54 Terrasse 27.40 27.47 45.10
29848 2020-07-29 12:28:35 Terrasse 25.50 25.40 49.40
29847 2020-07-29 12:00:14 Terrasse 25.50 25.43 50.70
29846 2020-07-29 11:31:47 Terrasse 24.10 23.93 52.10
29845 2020-07-29 11:03:14 Terrasse 22.20 22.00 58.50
29844 2020-07-29 10:34:40 Terrasse 20.00 19.85 68.80
29843 2020-07-29 10:06:17 Terrasse 18.70 18.90 87.20
29842 2020-07-29 09:37:58 Terrasse 19.10 18.60 58.80
29841 2020-07-29 09:09:33 Terrasse 18.40 17.89 60.90
29840 2020-07-29 08:41:10 Terrasse 17.30 16.69 61.50
29839 2020-07-29 08:12:58 Terrasse 16.80 16.19 63.40
29838 2020-07-29 07:44:37 Terrasse 16.40 15.72 62.30
29837 2020-07-29 07:16:18 Terrasse 16.00 15.25 61.00
29836 2020-07-29 06:48:02 Terrasse 15.90 15.10 59.70
29835 2020-07-29 06:19:46 Terrasse 16.10 15.33 59.80
29834 2020-07-29 05:51:31 Terrasse 16.30 15.55 59.80
29833 2020-07-29 05:23:15 Terrasse 16.70 15.97 59.20
29832 2020-07-29 04:55:00 Terrasse 17.40 16.71 58.10
29831 2020-07-29 04:26:44 Terrasse 17.80 17.12 56.80
29830 2020-07-29 03:58:27 Terrasse 18.10 17.47 57.50
29829 2020-07-29 03:30:11 Terrasse 18.40 17.78 57.00
29828 2020-07-29 03:01:56 Terrasse 18.60 18.04 58.20
29827 2020-07-29 02:33:40 Terrasse 18.90 18.31 56.20
29826 2020-07-29 02:05:25 Terrasse 19.20 18.60 54.40
29825 2020-07-29 01:37:09 Terrasse 19.50 18.89 53.20
29824 2020-07-29 01:08:53 Terrasse 19.80 19.20 52.20
29823 2020-07-29 00:40:36 Terrasse 20.20 19.60 50.90
29822 2020-07-29 00:12:21 Terrasse 20.70 20.13 49.80
29821 2020-07-28 23:44:04 Terrasse 21.00 20.45 49.40
29820 2020-07-28 23:15:47 Terrasse 21.30 20.77 49.10
29819 2020-07-28 22:47:30 Terrasse 21.70 21.20 48.80
29818 2020-07-28 22:19:13 Terrasse 22.00 21.51 48.10
29817 2020-07-28 21:50:57 Terrasse 22.50 22.08 48.80
29816 2020-07-28 21:22:41 Terrasse 23.10 22.74 48.70
29815 2020-07-28 20:54:25 Terrasse 23.70 23.39 48.50
29814 2020-07-28 20:26:11 Terrasse 24.30 24.04 48.00
29813 2020-07-28 19:57:55 Terrasse 25.00 24.82 48.60
29812 2020-07-28 19:29:38 Terrasse 25.80 25.61 44.90
29811 2020-07-28 19:01:20 Terrasse 26.40 26.60 43.70
29810 2020-07-28 18:33:03 Terrasse 26.60 26.79 44.60
29809 2020-07-28 18:06:05 Terrasse 26.60 26.80 44.90
29808 2020-07-28 17:36:40 Terrasse 26.90 27.10 46.00
29807 2020-07-28 17:08:07 Terrasse 27.00 27.11 44.70
29806 2020-07-28 16:40:26 Terrasse 26.80 27.04 46.40
29805 2020-07-28 16:09:57 Terrasse 27.30 27.41 45.40
29804 2020-07-28 15:40:26 Terrasse 28.10 28.04 43.90
29803 2020-07-28 15:12:18 Terrasse 29.30 29.70 47.20
29802 2020-07-28 14:43:58 Terrasse 30.60 31.29 46.00
29801 2020-07-28 14:15:45 Terrasse 29.80 30.70 49.60
29800 2020-07-28 13:47:19 Terrasse 28.80 29.60 51.70
29799 2020-07-28 13:18:55 Terrasse 27.00 27.75 55.20
29798 2020-07-28 12:50:29 Terrasse 27.90 28.84 55.50
29797 2020-07-28 12:22:01 Terrasse 26.00 27.00 62.00
29796 2020-07-28 11:53:33 Terrasse 24.70 24.93 65.20
29795 2020-07-28 11:25:14 Terrasse 23.80 24.03 68.90
29794 2020-07-28 10:56:50 Terrasse 23.00 23.22 71.30
29793 2020-07-28 10:28:31 Terrasse 23.10 23.26 68.70
29792 2020-07-28 10:00:14 Terrasse 23.30 23.49 69.20
29791 2020-07-28 09:31:56 Terrasse 22.90 23.08 70.10
29790 2020-07-28 09:03:32 Terrasse 22.30 22.37 68.40
29789 2020-07-28 08:35:08 Terrasse 21.30 21.24 67.10
29788 2020-07-28 08:06:46 Terrasse 20.60 20.45 66.40
29787 2020-07-28 07:38:27 Terrasse 20.40 20.25 67.20
29786 2020-07-28 07:10:09 Terrasse 20.40 20.18 64.70
29785 2020-07-28 06:41:51 Terrasse 20.30 20.05 63.60
29784 2020-07-28 06:13:33 Terrasse 20.10 19.83 63.60
29783 2020-07-28 05:45:15 Terrasse 20.00 19.77 65.80
29782 2020-07-28 05:16:58 Terrasse 20.20 20.09 69.60
29781 2020-07-28 04:48:40 Terrasse 20.40 20.36 71.30
29780 2020-07-28 04:20:24 Terrasse 20.50 20.46 71.20
29779 2020-07-28 03:52:06 Terrasse 20.80 20.78 70.50
29778 2020-07-28 03:23:48 Terrasse 21.10 21.09 69.80
29777 2020-07-28 02:55:31 Terrasse 21.30 21.28 68.80
29776 2020-07-28 02:27:14 Terrasse 21.50 21.49 68.40
29775 2020-07-28 01:58:56 Terrasse 21.70 21.70 67.90
29774 2020-07-28 01:30:40 Terrasse 21.90 21.93 68.40
29773 2020-07-28 01:02:23 Terrasse 22.20 22.25 67.90
29772 2020-07-28 00:34:06 Terrasse 22.50 22.54 66.60
29771 2020-07-28 00:05:48 Terrasse 22.80 22.83 64.90
29770 2020-07-27 23:37:32 Terrasse 23.10 23.12 63.50
29769 2020-07-27 23:09:15 Terrasse 23.40 23.42 62.20
29768 2020-07-27 22:40:58 Terrasse 23.80 23.81 60.40
29767 2020-07-27 22:12:41 Terrasse 24.20 24.23 59.50
29766 2020-07-27 21:44:25 Terrasse 24.70 24.75 58.30
29765 2020-07-27 21:16:09 Terrasse 25.20 25.25 56.60
29764 2020-07-27 20:47:53 Terrasse 25.80 25.84 53.80
29763 2020-07-27 20:19:37 Terrasse 26.20 26.73 50.30
29762 2020-07-27 19:51:20 Terrasse 26.60 26.97 48.30
29761 2020-07-27 19:23:01 Terrasse 27.00 27.17 45.80
29760 2020-07-27 18:54:44 Terrasse 27.30 27.40 45.30
29759 2020-07-27 18:26:25 Terrasse 27.40 27.32 42.60
29758 2020-07-27 17:58:05 Terrasse 27.50 27.83 48.90
29757 2020-07-27 17:29:48 Terrasse 27.70 28.35 52.80
29756 2020-07-27 17:01:30 Terrasse 27.90 28.53 52.20
29755 2020-07-27 16:33:08 Terrasse 27.70 28.57 55.30
29754 2020-07-27 16:04:45 Terrasse 27.60 28.42 55.00
29753 2020-07-27 15:36:24 Terrasse 26.60 27.30 54.80
29752 2020-07-27 15:08:05 Terrasse 27.00 27.62 53.30
29751 2020-07-27 14:39:42 Terrasse 25.80 25.96 58.40
29750 2020-07-27 14:11:19 Terrasse 25.80 26.88 65.50
29749 2020-07-27 13:43:01 Terrasse 25.50 25.78 64.30
29748 2020-07-27 13:14:31 Terrasse 24.00 24.35 72.50
29747 2020-07-27 12:46:10 Terrasse 23.70 24.06 74.00
29746 2020-07-27 12:17:52 Terrasse 23.90 24.25 72.80
29745 2020-07-27 11:49:32 Terrasse 23.60 23.91 72.50
29744 2020-07-27 11:21:09 Terrasse 23.00 23.29 74.20
29743 2020-07-27 10:52:40 Terrasse 21.90 22.36 84.90
29742 2020-07-27 10:24:12 Terrasse 21.00 21.21 78.60
29741 2020-07-27 09:55:51 Terrasse 20.50 20.64 78.10
29740 2020-07-27 09:27:32 Terrasse 20.20 20.34 79.10
29739 2020-07-27 08:59:11 Terrasse 19.60 19.89 87.00
29738 2020-07-27 08:30:49 Terrasse 19.10 19.33 86.60
29737 2020-07-27 08:02:31 Terrasse 18.30 18.77 98.90
29736 2020-07-27 07:34:08 Terrasse 17.70 18.13 99.90
29735 2020-07-27 07:05:49 Terrasse 17.50 17.91 99.90
29734 2020-07-27 06:37:31 Terrasse 17.20 17.58 99.90
29733 2020-07-27 06:09:12 Terrasse 17.40 17.73 97.20
29732 2020-07-27 05:40:56 Terrasse 17.30 17.50 92.40
29731 2020-07-27 05:12:39 Terrasse 17.40 17.23 78.00
29730 2020-07-27 04:44:22 Terrasse 17.70 17.41 72.20
29729 2020-07-27 04:16:03 Terrasse 17.70 17.33 69.00
29728 2020-07-27 03:47:46 Terrasse 17.90 17.51 67.40
29727 2020-07-27 03:19:29 Terrasse 18.10 17.70 66.60
29726 2020-07-27 02:51:12 Terrasse 18.40 17.99 64.90
29725 2020-07-27 02:22:58 Terrasse 18.90 18.49 63.10
29724 2020-07-27 01:54:42 Terrasse 19.70 19.30 60.30
29723 2020-07-27 01:26:25 Terrasse 19.80 19.40 59.80
29722 2020-07-27 00:58:07 Terrasse 20.10 19.70 58.70
29721 2020-07-27 00:29:51 Terrasse 20.40 20.02 58.40
29720 2020-07-27 00:01:34 Terrasse 20.70 20.35 58.50
29719 2020-07-26 23:33:18 Terrasse 20.90 20.54 57.30
29718 2020-07-26 23:05:02 Terrasse 21.10 20.73 56.00
29717 2020-07-26 22:36:46 Terrasse 21.40 21.03 54.80
29716 2020-07-26 22:08:29 Terrasse 21.50 21.16 55.80
29715 2020-07-26 21:40:12 Terrasse 21.90 21.58 55.10
29714 2020-07-26 21:11:57 Terrasse 22.50 22.18 52.80
29713 2020-07-26 20:43:42 Terrasse 23.00 22.75 53.40
29712 2020-07-26 20:15:28 Terrasse 23.70 23.45 50.60
29711 2020-07-26 19:47:11 Terrasse 24.10 23.90 51.30
29710 2020-07-26 19:18:56 Terrasse 24.30 24.13 51.50
29709 2020-07-26 18:50:40 Terrasse 25.00 24.92 52.30
29708 2020-07-26 18:22:25 Terrasse 25.40 25.35 51.90
29707 2020-07-26 17:54:06 Terrasse 25.50 25.48 52.50
29706 2020-07-26 17:25:49 Terrasse 25.60 25.60 53.10
29705 2020-07-26 16:57:31 Terrasse 25.70 25.76 54.90
29704 2020-07-26 16:29:11 Terrasse 25.50 25.54 54.90
29703 2020-07-26 16:00:57 Terrasse 25.80 25.89 55.90
29702 2020-07-26 15:32:39 Terrasse 26.20 27.07 58.40
29701 2020-07-26 15:04:21 Terrasse 26.30 27.20 59.00
29700 2020-07-26 14:35:53 Terrasse 24.90 25.11 63.80
29699 2020-07-26 14:07:53 Terrasse 27.40 28.63 60.30
29698 2020-07-26 13:39:43 Terrasse 28.20 29.76 60.10
29697 2020-07-26 13:11:25 Terrasse 27.90 29.80 64.50
29696 2020-07-26 12:42:41 Terrasse 24.30 25.21 92.80
29695 2020-07-26 12:14:15 Terrasse 23.00 23.96 99.90
29694 2020-07-26 11:45:55 Terrasse 23.20 23.96 91.30
29693 2020-07-26 11:17:26 Terrasse 22.10 22.97 99.90
29692 2020-07-26 10:49:09 Terrasse 22.20 23.08 99.90
29691 2020-07-26 10:20:44 Terrasse 20.80 21.54 99.90
29690 2020-07-26 09:52:23 Terrasse 20.70 21.43 99.90
29689 2020-07-26 09:24:01 Terrasse 20.10 20.77 99.90
29688 2020-07-26 08:55:43 Terrasse 19.80 20.44 99.90
29687 2020-07-26 08:27:21 Terrasse 19.40 20.00 99.90
29686 2020-07-26 07:59:04 Terrasse 19.20 19.78 99.90
29685 2020-07-26 07:30:45 Terrasse 19.10 19.67 99.90
29684 2020-07-26 07:02:28 Terrasse 18.90 19.45 99.90
29683 2020-07-26 06:34:12 Terrasse 19.00 19.56 99.90
29682 2020-07-26 06:05:55 Terrasse 19.20 19.78 99.90
29681 2020-07-26 05:37:37 Terrasse 19.30 19.89 99.90
29680 2020-07-26 05:09:20 Terrasse 19.40 20.00 99.90
29679 2020-07-26 04:41:03 Terrasse 19.70 20.33 99.90
29678 2020-07-26 04:12:48 Terrasse 20.10 20.77 99.90
29677 2020-07-26 03:44:35 Terrasse 20.60 21.32 99.90
29676 2020-07-26 03:16:20 Terrasse 21.50 21.53 69.90
29675 2020-07-26 02:48:05 Terrasse 21.70 21.61 64.60
29674 2020-07-26 02:19:48 Terrasse 21.90 21.87 66.10
29673 2020-07-26 01:51:30 Terrasse 22.20 22.04 60.10
29672 2020-07-26 01:23:13 Terrasse 22.20 22.04 59.80
29671 2020-07-26 00:54:55 Terrasse 22.30 22.11 58.30
29670 2020-07-26 00:26:37 Terrasse 22.30 22.10 58.10
29669 2020-07-25 23:58:21 Terrasse 22.50 22.31 57.70
29668 2020-07-25 23:30:04 Terrasse 22.80 22.63 57.10
29667 2020-07-25 23:01:46 Terrasse 23.10 22.92 55.90
29666 2020-07-25 22:33:29 Terrasse 23.40 23.26 56.20
29665 2020-07-25 22:05:13 Terrasse 23.70 23.56 54.90
29664 2020-07-25 21:36:56 Terrasse 24.00 23.86 53.90
29663 2020-07-25 21:08:40 Terrasse 24.40 24.27 52.70
29662 2020-07-25 20:40:22 Terrasse 24.80 24.67 51.10
29661 2020-07-25 20:12:03 Terrasse 24.90 24.77 50.90
29660 2020-07-25 19:43:47 Terrasse 25.10 24.97 50.10
29659 2020-07-25 19:15:30 Terrasse 25.50 25.38 48.70
29658 2020-07-25 18:47:13 Terrasse 25.70 25.59 48.40
29657 2020-07-25 18:18:59 Terrasse 26.30 26.68 47.20
29656 2020-07-25 17:50:42 Terrasse 26.70 27.00 47.20
29655 2020-07-25 17:22:26 Terrasse 26.90 27.11 46.20
29654 2020-07-25 16:54:06 Terrasse 26.90 27.18 47.40
29653 2020-07-25 16:25:44 Terrasse 26.60 26.93 47.60
29652 2020-07-25 15:57:20 Terrasse 26.00 25.96 50.10
29651 2020-07-25 15:29:00 Terrasse 26.10 26.04 49.00
29650 2020-07-25 15:00:49 Terrasse 27.10 27.43 48.70
29649 2020-07-25 14:00:07 Terrasse 25.80 25.84 53.70
29648 2020-07-25 13:31:53 Terrasse 25.90 25.92 52.70
29647 2020-07-25 13:03:35 Terrasse 26.80 27.44 53.60
29646 2020-07-25 12:35:09 Terrasse 24.70 24.73 57.60
29645 2020-07-25 12:06:50 Terrasse 24.20 24.24 59.90
29644 2020-07-25 11:38:21 Terrasse 23.40 23.35 59.60
29643 2020-07-25 11:10:08 Terrasse 23.60 23.63 61.70
29642 2020-07-25 10:41:45 Terrasse 22.20 22.15 64.10
29641 2020-07-25 10:13:22 Terrasse 21.90 21.95 69.00
29640 2020-07-25 09:45:05 Terrasse 21.70 21.78 71.10
29639 2020-07-25 09:16:42 Terrasse 21.40 21.58 75.90
29638 2020-07-25 08:48:15 Terrasse 20.30 20.61 85.20
29637 2020-07-25 08:19:55 Terrasse 19.60 20.05 93.30
29636 2020-07-25 07:51:41 Terrasse 19.30 19.89 99.90
29635 2020-07-25 07:23:19 Terrasse 19.20 19.78 99.90
29634 2020-07-25 06:55:02 Terrasse 19.00 19.56 99.90
29633 2020-07-25 06:26:43 Terrasse 19.10 19.67 99.90
29632 2020-07-25 05:58:26 Terrasse 19.10 19.61 97.40
29631 2020-07-25 05:30:09 Terrasse 19.20 19.61 93.10
29630 2020-07-25 05:01:54 Terrasse 19.50 19.74 85.50
29629 2020-07-25 04:33:36 Terrasse 19.80 19.79 74.80
29628 2020-07-25 04:05:20 Terrasse 20.10 20.01 70.50
29627 2020-07-25 03:37:04 Terrasse 20.30 20.12 66.60
29626 2020-07-25 03:08:48 Terrasse 20.50 20.30 64.80
29625 2020-07-25 02:40:30 Terrasse 20.70 20.46 62.70
29624 2020-07-25 02:12:14 Terrasse 21.00 20.75 61.00
29623 2020-07-25 01:43:59 Terrasse 21.20 20.91 58.90
29622 2020-07-25 01:15:42 Terrasse 21.50 21.21 57.80
29621 2020-07-25 00:47:25 Terrasse 21.60 21.31 57.40
29620 2020-07-25 00:19:09 Terrasse 21.80 21.53 57.10
29619 2020-07-24 23:50:52 Terrasse 22.00 21.73 56.30
29618 2020-07-24 23:22:34 Terrasse 22.20 21.93 55.90
29617 2020-07-24 22:54:18 Terrasse 22.40 22.14 55.20
29616 2020-07-24 22:26:03 Terrasse 22.60 22.33 54.10
29615 2020-07-24 21:57:48 Terrasse 23.00 22.74 53.20
29614 2020-07-24 21:29:32 Terrasse 23.40 23.14 51.50
29613 2020-07-24 21:01:16 Terrasse 23.90 23.62 48.70
29612 2020-07-24 20:33:02 Terrasse 24.30 24.01 47.00
29611 2020-07-24 20:04:45 Terrasse 24.60 24.35 47.30
29610 2020-07-24 19:36:30 Terrasse 25.20 24.98 46.00
29609 2020-07-24 19:08:15 Terrasse 25.70 25.50 44.90
29608 2020-07-24 18:39:58 Terrasse 26.10 25.92 44.40
29607 2020-07-24 18:11:43 Terrasse 26.70 26.82 43.70
29606 2020-07-24 17:43:27 Terrasse 26.50 26.63 42.70
29605 2020-07-24 17:15:13 Terrasse 27.30 27.18 41.70
29604 2020-07-24 16:46:58 Terrasse 27.80 27.49 40.00
29603 2020-07-24 16:18:45 Terrasse 28.60 28.19 39.70
29602 2020-07-24 15:50:31 Terrasse 29.40 28.96 39.40
29601 2020-07-24 15:22:05 Terrasse 28.90 28.52 40.20
29600 2020-07-24 14:53:37 Terrasse 27.40 27.29 42.10
29599 2020-07-24 14:25:24 Terrasse 27.90 27.53 39.20
29598 2020-07-24 13:57:00 Terrasse 27.60 27.48 42.40
29597 2020-07-24 13:28:41 Terrasse 26.50 26.64 43.00
29596 2020-07-24 13:00:23 Terrasse 27.50 27.54 44.70
29595 2020-07-24 12:32:08 Terrasse 27.10 27.12 43.40
29594 2020-07-24 12:03:58 Terrasse 28.00 27.80 41.90
29593 2020-07-24 11:35:49 Terrasse 28.10 27.92 42.30
29592 2020-07-24 11:07:11 Terrasse 26.30 26.66 46.60
29591 2020-07-24 10:38:51 Terrasse 25.30 25.06 44.80
29590 2020-07-24 10:10:22 Terrasse 24.10 23.71 43.90
29589 2020-07-24 09:41:57 Terrasse 23.00 22.58 46.80
29588 2020-07-24 09:13:33 Terrasse 22.10 21.69 50.70
29587 2020-07-24 08:45:08 Terrasse 21.00 20.50 51.50
29586 2020-07-24 08:16:47 Terrasse 20.30 19.75 52.40
29585 2020-07-24 07:48:29 Terrasse 20.20 19.67 53.30
29584 2020-07-24 07:20:10 Terrasse 19.80 19.20 52.40
29583 2020-07-24 06:51:50 Terrasse 19.50 18.94 54.80
29582 2020-07-24 06:23:32 Terrasse 19.30 18.70 54.30
29581 2020-07-24 05:55:15 Terrasse 19.40 18.80 53.70
29580 2020-07-24 05:26:59 Terrasse 19.60 19.00 53.20
29579 2020-07-24 04:58:44 Terrasse 19.70 19.10 52.50
29578 2020-07-24 04:30:26 Terrasse 19.90 19.31 52.10
29577 2020-07-24 04:02:09 Terrasse 20.10 19.46 49.70
29576 2020-07-24 03:33:52 Terrasse 20.40 19.80 50.00
29575 2020-07-24 03:05:36 Terrasse 20.70 20.13 50.00
29574 2020-07-24 02:37:20 Terrasse 20.90 20.33 49.10
29573 2020-07-24 02:09:02 Terrasse 21.00 20.42 48.30
29572 2020-07-24 01:40:47 Terrasse 21.20 20.63 48.20
29571 2020-07-24 01:12:30 Terrasse 21.40 20.84 47.50
29570 2020-07-24 00:44:13 Terrasse 21.60 21.04 46.90
29569 2020-07-24 00:15:56 Terrasse 21.70 21.13 46.10
29568 2020-07-23 23:47:40 Terrasse 22.00 21.46 46.10
29567 2020-07-23 23:19:23 Terrasse 22.20 21.68 46.10
29566 2020-07-23 22:51:07 Terrasse 22.30 21.79 46.10
29565 2020-07-23 22:22:51 Terrasse 22.60 22.09 44.90
29564 2020-07-23 21:54:36 Terrasse 23.00 22.51 44.20
29563 2020-07-23 21:26:21 Terrasse 23.60 23.18 44.50
29562 2020-07-23 20:58:07 Terrasse 24.40 24.02 43.00
29561 2020-07-23 20:29:52 Terrasse 25.30 24.95 40.90
29560 2020-07-23 20:01:37 Terrasse 25.80 25.49 40.30
29559 2020-07-23 19:33:21 Terrasse 26.30 26.01 39.20
29558 2020-07-23 19:05:07 Terrasse 26.70 26.57 38.10
29557 2020-07-23 18:36:49 Terrasse 27.20 26.95 38.80
29556 2020-07-23 18:08:34 Terrasse 27.60 27.18 37.50
29555 2020-07-23 17:40:16 Terrasse 27.70 27.20 36.50
29554 2020-07-23 17:12:02 Terrasse 28.30 27.66 36.00
29553 2020-07-23 16:43:46 Terrasse 28.90 28.26 37.00
29552 2020-07-23 16:15:32 Terrasse 29.20 28.43 35.60
29551 2020-07-23 15:47:26 Terrasse 30.80 29.82 33.10
29550 2020-07-23 15:19:07 Terrasse 30.70 30.07 36.30
29549 2020-07-23 14:50:46 Terrasse 31.40 30.75 35.20
29548 2020-07-23 14:22:24 Terrasse 30.00 29.44 37.70
29547 2020-07-23 13:54:13 Terrasse 30.50 29.82 36.10
29546 2020-07-23 13:25:54 Terrasse 30.80 30.19 36.40
29545 2020-07-23 12:57:09 Terrasse 28.30 28.13 42.60
29544 2020-07-23 12:29:01 Terrasse 27.10 27.06 42.40
29543 2020-07-23 12:00:42 Terrasse 26.90 26.92 42.70
29542 2020-07-23 11:32:13 Terrasse 25.40 25.17 45.10
29541 2020-07-23 10:35:20 Terrasse 22.40 22.09 53.40
29540 2020-07-23 10:06:55 Terrasse 21.00 20.56 53.80
29539 2020-07-23 09:38:31 Terrasse 20.00 19.57 58.10
29538 2020-07-23 09:10:08 Terrasse 19.00 18.73 68.10
29537 2020-07-23 08:41:46 Terrasse 18.30 17.60 54.00
29536 2020-07-23 08:13:26 Terrasse 17.70 16.94 54.10
29535 2020-07-23 07:45:08 Terrasse 17.30 16.51 54.60
29534 2020-07-23 07:16:49 Terrasse 17.00 16.18 54.60
29533 2020-07-23 06:48:30 Terrasse 16.60 15.75 55.10
29532 2020-07-23 06:20:13 Terrasse 16.60 15.76 55.50
29531 2020-07-23 05:51:58 Terrasse 16.70 15.85 54.60
29530 2020-07-23 05:23:43 Terrasse 17.00 16.16 53.80
29529 2020-07-23 04:55:27 Terrasse 17.20 16.38 53.80
29528 2020-07-23 04:27:12 Terrasse 17.40 16.59 53.50
29527 2020-07-23 03:58:58 Terrasse 18.00 17.23 52.60
29526 2020-07-23 03:30:41 Terrasse 18.30 17.52 51.00
29525 2020-07-23 03:02:25 Terrasse 18.50 17.72 50.50
29524 2020-07-23 02:34:10 Terrasse 18.70 17.94 50.30
29523 2020-07-23 02:05:54 Terrasse 19.00 18.27 50.50
29522 2020-07-23 01:37:40 Terrasse 19.30 18.60 50.50
29521 2020-07-23 01:09:24 Terrasse 19.80 19.14 50.10
29520 2020-07-23 00:41:10 Terrasse 20.20 19.57 49.70
29519 2020-07-23 00:12:55 Terrasse 20.40 19.80 49.80
29518 2020-07-22 23:44:40 Terrasse 20.80 20.23 49.60
29517 2020-07-22 23:16:25 Terrasse 21.20 20.65 49.00
29516 2020-07-22 22:48:10 Terrasse 21.80 21.29 48.10
29515 2020-07-22 22:19:55 Terrasse 22.00 21.44 45.50
29514 2020-07-22 21:51:38 Terrasse 22.30 21.72 43.30
29513 2020-07-22 21:23:24 Terrasse 22.80 22.27 43.50
29512 2020-07-22 20:55:09 Terrasse 23.30 22.87 45.30
29511 2020-07-22 20:26:57 Terrasse 24.20 23.79 42.60
29510 2020-07-22 19:58:43 Terrasse 24.60 24.16 40.10
29509 2020-07-22 19:30:32 Terrasse 25.20 24.79 39.00
29508 2020-07-22 19:02:26 Terrasse 25.90 25.49 36.00
29507 2020-07-22 18:34:09 Terrasse 26.40 26.00 34.60
29506 2020-07-22 18:05:53 Terrasse 27.00 26.69 36.40
29505 2020-07-22 17:37:40 Terrasse 27.40 26.88 34.60
29504 2020-07-22 17:09:23 Terrasse 27.70 27.14 35.30
29503 2020-07-22 16:41:08 Terrasse 28.30 27.81 38.30
29502 2020-07-22 16:12:55 Terrasse 29.10 28.60 38.80
29501 2020-07-22 15:44:43 Terrasse 30.20 29.48 36.00
29500 2020-07-22 15:16:24 Terrasse 30.10 29.60 38.20
29499 2020-07-22 14:48:01 Terrasse 30.30 29.45 34.70
29498 2020-07-22 14:19:46 Terrasse 29.90 29.40 38.40
29497 2020-07-22 13:51:35 Terrasse 30.30 29.57 35.90
29496 2020-07-22 13:23:13 Terrasse 30.40 29.76 36.60
29495 2020-07-22 12:54:30 Terrasse 27.80 27.47 39.70
29494 2020-07-22 12:26:14 Terrasse 26.40 26.52 41.70
29493 2020-07-22 11:57:56 Terrasse 26.30 26.57 44.50
29492 2020-07-22 11:29:32 Terrasse 25.30 25.00 42.50
29491 2020-07-22 11:01:01 Terrasse 23.50 23.12 46.50
29490 2020-07-22 10:32:33 Terrasse 21.80 21.24 46.30
29489 2020-07-22 10:04:09 Terrasse 20.60 20.02 49.80
29488 2020-07-22 09:35:46 Terrasse 19.70 19.07 51.60
29487 2020-07-22 09:07:22 Terrasse 18.70 17.95 50.70
29486 2020-07-22 08:38:58 Terrasse 17.70 16.89 52.20
29485 2020-07-22 08:10:37 Terrasse 17.00 16.15 53.60
29484 2020-07-22 07:42:18 Terrasse 16.60 15.74 54.60
29483 2020-07-22 07:14:01 Terrasse 16.20 15.32 55.50
29482 2020-07-22 06:45:44 Terrasse 16.00 15.09 54.90
29481 2020-07-22 06:17:28 Terrasse 16.00 15.05 53.30
29480 2020-07-22 05:49:12 Terrasse 16.20 15.25 52.50
29479 2020-07-22 05:20:58 Terrasse 16.50 15.55 51.40
29478 2020-07-22 04:52:43 Terrasse 16.70 15.76 51.30
29477 2020-07-22 04:24:28 Terrasse 17.00 16.07 50.20
29476 2020-07-22 03:56:15 Terrasse 17.40 16.49 49.70
29475 2020-07-22 03:28:01 Terrasse 17.80 16.90 48.40
29474 2020-07-22 02:59:46 Terrasse 18.00 17.10 47.80
29473 2020-07-22 02:31:31 Terrasse 18.30 17.40 46.60
29472 2020-07-22 02:03:14 Terrasse 18.70 17.83 46.10
29471 2020-07-22 01:34:57 Terrasse 18.90 18.06 46.70
29470 2020-07-22 01:06:47 Terrasse 19.20 18.38 46.00
29469 2020-07-22 00:38:29 Terrasse 19.60 18.81 45.60
29468 2020-07-22 00:10:14 Terrasse 19.90 19.14 45.60
29467 2020-07-21 23:41:58 Terrasse 20.00 19.25 45.60
29466 2020-07-21 23:13:43 Terrasse 20.50 19.77 44.70
29465 2020-07-21 22:45:28 Terrasse 20.80 20.11 45.00
29464 2020-07-21 22:17:13 Terrasse 21.20 20.56 45.30
29463 2020-07-21 21:49:00 Terrasse 21.70 21.07 44.00
29462 2020-07-21 21:20:45 Terrasse 22.20 21.60 43.00
29461 2020-07-21 20:52:32 Terrasse 23.00 22.54 45.30
29460 2020-07-21 20:24:18 Terrasse 23.80 23.30 40.90
29459 2020-07-21 19:56:03 Terrasse 24.40 23.94 40.00
29458 2020-07-21 19:27:47 Terrasse 24.80 24.36 39.40
29457 2020-07-21 18:59:32 Terrasse 25.30 24.90 38.70
29456 2020-07-21 18:31:16 Terrasse 25.90 25.54 38.10
29455 2020-07-21 18:03:02 Terrasse 26.40 26.08 37.60
29454 2020-07-21 17:34:46 Terrasse 26.80 26.61 37.70
29453 2020-07-21 17:06:30 Terrasse 27.20 26.82 36.20
29452 2020-07-21 16:38:16 Terrasse 27.60 27.11 36.10
29451 2020-07-21 16:10:04 Terrasse 28.30 27.63 35.60
29450 2020-07-21 15:41:53 Terrasse 29.90 29.31 37.50
29449 2020-07-21 15:13:36 Terrasse 30.30 29.69 37.00
29448 2020-07-21 14:45:09 Terrasse 30.90 30.50 37.90
29447 2020-07-21 14:16:56 Terrasse 30.40 29.90 37.80
29446 2020-07-21 13:48:42 Terrasse 30.10 29.55 37.70
29445 2020-07-21 13:20:30 Terrasse 30.20 29.71 38.20
29444 2020-07-21 12:51:36 Terrasse 27.50 27.41 42.70
29443 2020-07-21 12:23:23 Terrasse 26.80 26.94 44.60
29442 2020-07-21 11:55:04 Terrasse 26.70 26.88 44.80
29441 2020-07-21 11:26:38 Terrasse 25.70 25.52 45.80
29440 2020-07-21 10:58:03 Terrasse 24.00 23.68 46.90
29439 2020-07-21 10:29:34 Terrasse 22.10 21.66 49.60
29438 2020-07-21 10:01:09 Terrasse 21.10 20.65 53.10
29437 2020-07-21 09:32:45 Terrasse 20.20 19.69 54.20
29436 2020-07-21 09:04:22 Terrasse 19.20 18.60 54.60
29435 2020-07-21 08:35:59 Terrasse 18.20 17.57 57.20
29434 2020-07-21 08:07:39 Terrasse 17.70 17.06 58.80
29433 2020-07-21 07:39:20 Terrasse 17.30 16.64 59.70
29432 2020-07-21 07:11:04 Terrasse 17.20 16.52 59.00
29431 2020-07-21 06:42:47 Terrasse 17.10 16.40 58.70
29430 2020-07-21 06:14:31 Terrasse 17.30 16.59 57.50
29429 2020-07-21 05:46:16 Terrasse 17.50 16.76 55.90
29428 2020-07-21 05:18:01 Terrasse 17.80 17.07 55.00
29427 2020-07-21 04:49:44 Terrasse 18.00 17.26 53.90
29426 2020-07-21 04:21:30 Terrasse 18.10 17.36 53.30
29425 2020-07-21 03:53:15 Terrasse 18.40 17.65 51.90
29424 2020-07-21 03:25:00 Terrasse 18.60 17.88 52.40
29423 2020-07-21 02:56:44 Terrasse 18.90 18.21 52.20
29422 2020-07-21 02:28:29 Terrasse 19.10 18.42 51.80
29421 2020-07-21 02:00:15 Terrasse 19.40 18.76 52.40
29420 2020-07-21 01:32:02 Terrasse 19.70 19.09 52.30
29419 2020-07-21 01:03:46 Terrasse 20.00 19.48 54.50
29418 2020-07-21 00:35:29 Terrasse 20.10 19.66 57.20
29417 2020-07-21 00:07:15 Terrasse 20.60 20.22 57.70
29416 2020-07-20 23:39:02 Terrasse 21.20 20.83 55.80
29415 2020-07-20 23:10:46 Terrasse 21.50 21.15 55.50
29414 2020-07-20 22:42:33 Terrasse 21.80 21.49 55.80
29413 2020-07-20 22:14:17 Terrasse 22.20 21.92 55.40
29412 2020-07-20 21:46:02 Terrasse 22.60 22.37 55.70
29411 2020-07-20 21:17:48 Terrasse 23.20 23.00 54.70
29410 2020-07-20 20:49:35 Terrasse 23.90 23.76 54.20
29409 2020-07-20 20:21:21 Terrasse 24.60 24.53 54.00
29408 2020-07-20 19:53:06 Terrasse 25.40 25.40 53.70
29407 2020-07-20 19:24:49 Terrasse 25.80 25.82 52.90
29406 2020-07-20 18:56:35 Terrasse 26.50 27.08 52.30
29405 2020-07-20 18:28:19 Terrasse 27.10 27.58 51.00
29404 2020-07-20 18:00:04 Terrasse 27.50 27.94 50.40
29403 2020-07-20 17:31:49 Terrasse 28.20 28.55 48.60
29402 2020-07-20 17:03:35 Terrasse 28.70 29.12 48.60
29401 2020-07-20 16:35:18 Terrasse 28.80 29.30 49.10
29400 2020-07-20 16:07:06 Terrasse 29.60 30.49 50.10
29399 2020-07-20 15:38:53 Terrasse 30.60 31.47 47.10
29398 2020-07-20 15:10:40 Terrasse 31.10 32.51 48.60
29397 2020-07-20 14:42:12 Terrasse 30.90 32.51 50.30
29396 2020-07-20 14:13:55 Terrasse 29.90 30.81 49.40
29395 2020-07-20 13:45:36 Terrasse 29.60 30.69 51.50
29394 2020-07-20 13:17:16 Terrasse 29.80 31.19 52.80
29393 2020-07-20 12:48:23 Terrasse 25.40 25.61 62.00
29392 2020-07-20 12:20:07 Terrasse 25.30 25.52 62.60
29391 2020-07-20 11:51:42 Terrasse 23.30 23.54 71.00
29390 2020-07-20 11:23:16 Terrasse 22.40 23.05 90.20
29389 2020-07-20 10:54:56 Terrasse 21.30 21.63 82.20
29388 2020-07-20 10:26:45 Terrasse 22.40 22.52 69.80
29387 2020-07-20 09:58:28 Terrasse 23.00 23.01 63.50
29386 2020-07-20 09:30:04 Terrasse 21.80 21.72 64.60
29385 2020-07-20 09:01:40 Terrasse 21.00 20.83 64.00
29384 2020-07-20 08:33:19 Terrasse 20.20 20.03 67.10
29383 2020-07-20 08:05:00 Terrasse 19.70 19.46 66.40
29382 2020-07-20 07:36:43 Terrasse 19.40 19.04 62.90
29381 2020-07-20 07:08:27 Terrasse 19.50 19.26 67.30
29380 2020-07-20 06:40:10 Terrasse 19.50 19.20 65.00
29379 2020-07-20 06:11:53 Terrasse 19.60 19.29 64.20
29378 2020-07-20 05:43:37 Terrasse 19.80 19.44 61.50
29377 2020-07-20 05:15:22 Terrasse 19.90 19.56 61.70
29376 2020-07-20 04:47:07 Terrasse 20.10 19.73 60.10
29375 2020-07-20 04:18:51 Terrasse 20.30 19.95 60.00
29374 2020-07-20 03:50:38 Terrasse 20.60 20.27 59.70
29373 2020-07-20 03:22:22 Terrasse 20.80 20.42 56.80
29372 2020-07-20 02:54:06 Terrasse 21.00 20.64 56.80
29371 2020-07-20 02:25:50 Terrasse 21.20 20.84 56.10
29370 2020-07-20 01:57:35 Terrasse 21.40 21.08 57.00
29369 2020-07-20 01:29:17 Terrasse 21.50 21.21 57.60
29368 2020-07-20 01:01:00 Terrasse 21.60 21.30 56.90
29367 2020-07-20 00:32:45 Terrasse 21.80 21.51 56.30
29366 2020-07-20 00:04:31 Terrasse 22.20 21.93 55.90
29365 2020-07-19 23:36:15 Terrasse 22.60 22.37 55.60
29364 2020-07-19 23:08:00 Terrasse 23.00 22.79 55.10
29363 2020-07-19 22:39:47 Terrasse 23.50 23.33 54.50
29362 2020-07-19 22:11:32 Terrasse 23.90 23.77 54.60
29361 2020-07-19 21:43:17 Terrasse 24.40 24.31 54.30
29360 2020-07-19 21:15:02 Terrasse 25.00 24.97 54.10
29359 2020-07-19 20:46:47 Terrasse 25.60 25.64 54.40
29358 2020-07-19 20:18:34 Terrasse 26.30 26.68 47.20
29357 2020-07-19 19:50:20 Terrasse 26.90 27.15 46.90
29356 2020-07-19 19:22:05 Terrasse 27.30 27.37 44.90
29355 2020-07-19 18:53:49 Terrasse 27.90 27.89 44.50
29354 2020-07-19 18:25:33 Terrasse 27.90 27.89 44.40
29353 2020-07-19 17:57:19 Terrasse 28.40 28.31 43.60
29352 2020-07-19 17:29:03 Terrasse 28.80 28.72 43.50
29351 2020-07-19 17:00:47 Terrasse 29.00 28.99 44.00
29350 2020-07-19 16:32:33 Terrasse 28.70 28.81 45.50
29349 2020-07-19 16:04:00 Terrasse 28.70 28.76 45.00
29348 2020-07-19 15:35:47 Terrasse 29.20 29.18 43.70
29347 2020-07-19 15:07:34 Terrasse 29.80 30.06 45.00
29346 2020-07-19 14:39:20 Terrasse 30.40 30.42 42.00
29345 2020-07-19 14:11:08 Terrasse 31.20 31.77 43.70
29344 2020-07-19 13:42:55 Terrasse 31.50 32.03 42.70
29343 2020-07-19 13:14:22 Terrasse 30.80 31.33 44.50
29342 2020-07-19 12:45:47 Terrasse 28.70 28.96 47.00
29341 2020-07-19 12:17:31 Terrasse 28.10 28.38 48.00
29340 2020-07-19 11:49:08 Terrasse 27.40 27.88 51.00
29339 2020-07-19 11:20:43 Terrasse 26.20 27.04 57.60
29338 2020-07-19 10:52:06 Terrasse 24.30 24.50 65.50
29337 2020-07-19 10:23:36 Terrasse 22.20 22.41 74.20
29336 2020-07-19 09:55:09 Terrasse 20.80 21.48 97.40
29335 2020-07-19 09:26:47 Terrasse 19.60 20.22 99.90
29334 2020-07-19 08:58:26 Terrasse 19.20 19.78 99.90
29333 2020-07-19 08:30:14 Terrasse 18.50 18.90 95.70
29332 2020-07-19 08:01:52 Terrasse 17.80 18.24 99.90
29331 2020-07-19 07:33:34 Terrasse 17.50 17.68 91.10
29330 2020-07-19 07:05:16 Terrasse 17.30 16.94 71.20
29329 2020-07-19 06:36:59 Terrasse 17.30 16.86 68.10
29328 2020-07-19 06:08:43 Terrasse 17.40 16.92 66.10
29327 2020-07-19 05:40:27 Terrasse 17.80 17.31 64.20
29326 2020-07-19 05:12:11 Terrasse 17.90 17.40 63.20
29325 2020-07-19 04:43:55 Terrasse 18.10 17.59 62.40
29324 2020-07-19 04:15:40 Terrasse 18.40 17.90 61.60
29323 2020-07-19 03:47:23 Terrasse 18.60 18.11 61.20
29322 2020-07-19 03:19:08 Terrasse 18.90 18.43 60.70
29321 2020-07-19 02:50:52 Terrasse 19.00 18.53 60.40
29320 2020-07-19 02:22:36 Terrasse 19.30 18.86 60.40
29319 2020-07-19 01:54:20 Terrasse 19.50 19.06 59.70
29318 2020-07-19 01:26:04 Terrasse 19.90 19.50 59.40
29317 2020-07-19 00:57:47 Terrasse 20.00 19.61 59.60
29316 2020-07-19 00:29:30 Terrasse 20.20 19.82 59.10
29315 2020-07-19 00:01:15 Terrasse 20.40 20.03 58.70
29314 2020-07-18 23:32:59 Terrasse 20.70 20.36 58.70
29313 2020-07-18 23:04:44 Terrasse 21.00 20.68 58.30
29312 2020-07-18 22:36:30 Terrasse 21.40 21.10 57.70
29311 2020-07-18 22:08:14 Terrasse 21.70 21.49 59.90
29310 2020-07-18 21:40:02 Terrasse 22.20 22.06 60.70
29309 2020-07-18 21:11:47 Terrasse 22.90 22.88 62.60
29308 2020-07-18 20:43:36 Terrasse 24.00 23.91 55.90
29307 2020-07-18 20:15:21 Terrasse 24.60 24.42 50.00
29306 2020-07-18 19:47:03 Terrasse 24.70 24.57 51.60
29305 2020-07-18 19:18:46 Terrasse 25.10 25.01 51.40
29304 2020-07-18 18:50:30 Terrasse 25.30 25.17 49.20
29303 2020-07-18 18:22:13 Terrasse 25.60 25.52 49.90
29302 2020-07-18 17:53:59 Terrasse 26.20 26.84 52.90
29301 2020-07-18 17:25:42 Terrasse 26.30 26.73 48.40
29300 2020-07-18 16:57:28 Terrasse 26.80 27.05 46.60
29299 2020-07-18 16:29:16 Terrasse 27.60 27.82 47.40
29298 2020-07-18 16:01:03 Terrasse 28.50 28.62 45.90
29297 2020-07-18 15:32:33 Terrasse 27.70 27.93 47.60
29296 2020-07-18 15:04:21 Terrasse 28.20 28.41 47.10
29295 2020-07-18 14:36:16 Terrasse 29.90 30.15 44.70
29294 2020-07-18 14:07:59 Terrasse 30.10 30.41 44.70
29293 2020-07-18 13:39:53 Terrasse 31.10 32.01 45.90
29292 2020-07-18 13:11:20 Terrasse 30.80 31.46 45.30
29291 2020-07-18 12:42:42 Terrasse 27.20 27.64 50.40
29290 2020-07-18 12:14:29 Terrasse 26.50 27.24 55.50
29289 2020-07-18 11:46:07 Terrasse 25.90 25.94 53.50
29288 2020-07-18 11:17:40 Terrasse 24.70 24.72 57.20
29287 2020-07-18 10:49:03 Terrasse 22.80 22.80 63.90
29286 2020-07-18 10:20:38 Terrasse 21.50 21.66 74.80
29285 2020-07-18 09:52:13 Terrasse 20.40 20.58 79.90
29284 2020-07-18 09:23:49 Terrasse 19.30 19.88 99.30
29283 2020-07-18 08:55:22 Terrasse 18.10 18.57 99.90
29282 2020-07-18 08:27:01 Terrasse 17.30 17.69 99.90
29281 2020-07-18 07:58:43 Terrasse 17.20 17.58 99.90
29280 2020-07-18 07:30:25 Terrasse 17.20 17.58 99.90
29279 2020-07-18 07:02:07 Terrasse 17.10 17.47 99.90
29278 2020-07-18 06:33:49 Terrasse 17.10 17.47 99.90
29277 2020-07-18 06:05:32 Terrasse 17.00 17.36 99.90
29276 2020-07-18 05:37:15 Terrasse 16.80 17.14 99.90
29275 2020-07-18 05:08:59 Terrasse 16.90 17.25 99.90
29274 2020-07-18 04:40:53 Terrasse 17.10 17.47 99.90
29273 2020-07-18 04:12:34 Terrasse 17.20 17.58 99.90
29272 2020-07-18 03:44:34 Terrasse 17.40 17.80 99.90
29271 2020-07-18 03:16:13 Terrasse 17.70 18.13 99.90
29270 2020-07-18 02:47:56 Terrasse 18.00 18.46 99.90
29269 2020-07-18 02:19:41 Terrasse 18.20 18.59 96.20
29268 2020-07-18 01:51:35 Terrasse 18.20 18.54 94.40
29267 2020-07-18 01:23:25 Terrasse 18.20 18.51 93.30
29266 2020-07-18 00:55:15 Terrasse 18.30 18.54 90.20
29265 2020-07-18 00:26:58 Terrasse 18.40 18.55 86.50
29264 2020-07-17 23:58:41 Terrasse 18.60 18.64 81.40
29263 2020-07-17 23:30:26 Terrasse 18.70 18.72 80.20
29262 2020-07-17 23:02:11 Terrasse 18.80 18.79 78.50
29261 2020-07-17 22:33:55 Terrasse 19.00 18.95 76.50
29260 2020-07-17 22:05:38 Terrasse 19.10 19.08 77.00
29259 2020-07-17 21:37:22 Terrasse 19.30 19.38 80.20
29258 2020-07-17 21:09:05 Terrasse 19.60 19.76 82.00
29257 2020-07-17 20:41:07 Terrasse 19.80 19.92 79.90
29256 2020-07-17 20:12:46 Terrasse 20.10 20.18 77.30
29255 2020-07-17 19:44:30 Terrasse 20.40 20.42 73.80
29254 2020-07-17 19:16:14 Terrasse 20.80 20.85 73.40
29253 2020-07-17 18:47:56 Terrasse 20.90 20.99 74.50
29252 2020-07-17 18:19:39 Terrasse 21.10 21.20 74.20
29251 2020-07-17 17:51:21 Terrasse 20.80 20.93 76.20
29250 2020-07-17 17:23:04 Terrasse 20.90 20.96 73.30
29249 2020-07-17 16:54:50 Terrasse 21.50 21.57 71.60
29248 2020-07-17 16:26:35 Terrasse 22.30 22.33 66.80
29247 2020-07-17 15:58:08 Terrasse 21.20 21.51 81.70
29246 2020-07-17 15:29:51 Terrasse 21.10 21.38 81.00
29245 2020-07-17 15:01:35 Terrasse 21.10 21.22 74.80
29244 2020-07-17 14:33:23 Terrasse 22.20 22.42 74.60
29243 2020-07-17 14:05:06 Terrasse 21.90 22.13 75.90
29242 2020-07-17 13:36:36 Terrasse 21.10 21.37 80.50
29241 2020-07-17 13:08:31 Terrasse 21.90 22.27 81.40
29240 2020-07-17 12:40:08 Terrasse 20.70 21.43 99.90
29239 2020-07-17 12:11:53 Terrasse 21.40 21.90 88.40
29238 2020-07-17 11:43:44 Terrasse 21.50 21.90 84.00
29237 2020-07-17 11:15:25 Terrasse 21.40 21.90 88.20
29236 2020-07-17 10:46:59 Terrasse 19.90 20.55 99.90
29235 2020-07-17 10:18:26 Terrasse 17.80 18.24 99.90
29234 2020-07-17 09:50:07 Terrasse 17.30 17.69 99.90
29233 2020-07-17 09:21:48 Terrasse 16.90 17.25 99.90
29232 2020-07-17 08:53:27 Terrasse 16.20 16.48 99.90
29231 2020-07-17 08:25:06 Terrasse 15.60 15.82 99.90
29230 2020-07-17 07:56:47 Terrasse 15.10 15.27 99.90
29229 2020-07-17 07:28:28 Terrasse 14.80 14.94 99.90
29228 2020-07-17 07:00:11 Terrasse 14.50 14.61 99.90
29227 2020-07-17 06:31:54 Terrasse 14.40 14.50 99.90
29226 2020-07-17 06:03:38 Terrasse 14.50 14.61 99.90
29225 2020-07-17 05:35:23 Terrasse 14.80 14.94 99.90
29224 2020-07-17 05:07:08 Terrasse 15.00 15.16 99.90
29223 2020-07-17 04:38:51 Terrasse 15.20 15.38 99.90
29222 2020-07-17 04:10:35 Terrasse 15.40 15.60 99.90
29221 2020-07-17 03:42:19 Terrasse 15.80 16.04 99.90
29220 2020-07-17 03:14:03 Terrasse 15.90 16.15 99.90
29219 2020-07-17 02:45:46 Terrasse 16.00 16.26 99.90
29218 2020-07-17 02:17:28 Terrasse 16.20 16.48 99.90
29217 2020-07-17 01:49:11 Terrasse 16.20 16.48 99.90
29216 2020-07-17 01:20:53 Terrasse 16.20 16.48 99.90
29215 2020-07-17 00:52:36 Terrasse 16.30 16.59 99.90
29214 2020-07-17 00:24:18 Terrasse 16.30 16.59 99.90
29213 2020-07-16 23:56:10 Terrasse 16.40 16.70 99.90
29212 2020-07-16 23:27:51 Terrasse 16.40 16.70 99.90
29211 2020-07-16 22:59:35 Terrasse 16.50 16.81 99.90
29210 2020-07-16 22:31:18 Terrasse 16.50 16.81 99.90
29209 2020-07-16 22:03:01 Terrasse 16.60 16.92 99.90
29208 2020-07-16 21:34:46 Terrasse 16.70 17.03 99.90
29207 2020-07-16 21:06:29 Terrasse 16.80 17.14 99.90
29206 2020-07-16 20:38:14 Terrasse 17.00 17.36 99.90
29205 2020-07-16 20:09:56 Terrasse 17.00 17.36 99.90
29204 2020-07-16 19:41:40 Terrasse 17.10 17.47 99.90
29203 2020-07-16 19:13:25 Terrasse 17.10 17.47 99.90
29202 2020-07-16 18:45:09 Terrasse 17.10 17.47 99.90
29201 2020-07-16 18:16:53 Terrasse 17.30 17.69 99.90
29200 2020-07-16 17:48:39 Terrasse 17.60 18.02 99.90
29199 2020-07-16 17:20:21 Terrasse 17.60 18.02 99.90
29198 2020-07-16 16:52:04 Terrasse 17.80 18.24 99.90
29197 2020-07-16 16:23:45 Terrasse 17.70 18.13 99.90
29196 2020-07-16 15:55:28 Terrasse 17.70 18.13 99.90
29195 2020-07-16 15:27:11 Terrasse 17.60 18.02 99.90
29194 2020-07-16 14:58:59 Terrasse 18.30 18.79 99.90
29193 2020-07-16 14:30:43 Terrasse 19.10 19.67 99.90
29192 2020-07-16 14:02:17 Terrasse 18.20 18.68 99.90
29191 2020-07-16 13:33:59 Terrasse 18.20 18.68 99.90
29190 2020-07-16 13:05:41 Terrasse 17.00 17.36 99.90
29189 2020-07-16 12:37:23 Terrasse 17.10 17.47 99.90
29188 2020-07-16 12:11:29 Terrasse 17.50 17.91 99.90
29187 2020-07-16 10:49:14 Terrasse 17.10 17.47 99.90
29186 2020-07-16 10:20:56 Terrasse 16.90 17.25 99.90
29185 2020-07-16 09:52:39 Terrasse 16.70 17.03 99.90
29184 2020-07-16 09:24:22 Terrasse 16.70 17.03 99.90
29183 2020-07-16 08:56:05 Terrasse 16.60 16.92 99.90
29182 2020-07-16 08:27:47 Terrasse 16.50 16.81 99.90
29181 2020-07-16 07:59:29 Terrasse 16.50 16.81 99.90
29180 2020-07-16 07:31:12 Terrasse 16.40 16.66 98.10
29179 2020-07-16 07:02:55 Terrasse 16.50 16.61 91.90
29178 2020-07-16 06:34:40 Terrasse 16.50 16.33 81.40
29177 2020-07-16 06:06:24 Terrasse 16.70 16.35 73.70
29176 2020-07-16 05:38:07 Terrasse 16.80 16.33 68.80
29175 2020-07-16 05:09:51 Terrasse 17.00 16.50 67.00
29174 2020-07-16 04:41:36 Terrasse 17.20 16.76 68.40
29173 2020-07-16 04:15:46 Terrasse 17.80 17.36 66.20
29172 2020-07-15 22:30:37 Terrasse 19.20 18.60 54.40
29171 2020-07-15 22:02:21 Terrasse 19.50 18.92 54.20
29170 2020-07-15 21:34:07 Terrasse 19.80 19.23 53.40
29169 2020-07-15 21:05:53 Terrasse 20.10 19.58 54.00
29168 2020-07-15 20:37:39 Terrasse 20.50 20.02 54.20
29167 2020-07-15 20:09:26 Terrasse 21.10 20.67 53.90
29166 2020-07-15 19:41:14 Terrasse 21.70 21.27 51.40
29165 2020-07-15 19:12:59 Terrasse 22.20 21.83 51.80
29164 2020-07-15 18:44:44 Terrasse 22.70 22.39 52.20
29163 2020-07-15 18:16:29 Terrasse 23.10 22.82 51.80
29162 2020-07-15 17:48:12 Terrasse 23.40 23.14 51.60
29161 2020-07-15 17:19:56 Terrasse 23.70 23.48 51.90
29160 2020-07-15 16:51:43 Terrasse 24.30 24.13 51.60
29159 2020-07-15 16:23:29 Terrasse 24.60 24.47 51.70
29158 2020-07-15 15:55:16 Terrasse 25.40 25.35 51.90
29157 2020-07-15 15:26:55 Terrasse 24.90 24.87 54.50
29156 2020-07-15 14:58:37 Terrasse 24.50 24.36 51.80
29155 2020-07-15 14:30:18 Terrasse 24.20 24.16 57.00
29154 2020-07-15 14:01:57 Terrasse 23.60 23.46 55.50
29153 2020-07-15 13:33:35 Terrasse 21.70 21.59 63.90
29152 2020-07-15 13:05:14 Terrasse 21.40 21.50 72.90
29151 2020-07-15 12:36:51 Terrasse 19.90 19.99 78.40
29150 2020-07-15 12:08:28 Terrasse 19.20 19.68 96.00
29149 2020-07-15 11:40:10 Terrasse 18.50 19.01 99.90
29148 2020-07-15 11:11:57 Terrasse 18.80 19.34 99.90
29147 2020-07-15 10:43:40 Terrasse 18.90 19.45 99.90
29146 2020-07-15 10:15:26 Terrasse 19.00 19.56 99.90
29145 2020-07-15 09:47:05 Terrasse 18.80 19.34 99.90
29144 2020-07-15 09:18:39 Terrasse 17.30 17.69 99.90
29143 2020-07-15 08:50:18 Terrasse 16.60 16.92 99.90
29142 2020-07-15 08:22:02 Terrasse 16.40 16.70 99.90
29141 2020-07-15 07:53:47 Terrasse 16.40 16.70 99.90
29140 2020-07-15 07:25:30 Terrasse 16.60 16.92 99.90
29139 2020-07-15 06:57:14 Terrasse 16.70 17.03 99.90
29138 2020-07-15 06:28:57 Terrasse 16.70 17.03 99.90
29137 2020-07-15 06:00:41 Terrasse 16.70 17.03 99.90
29136 2020-07-15 05:32:24 Terrasse 16.90 17.25 99.90
29135 2020-07-15 05:04:10 Terrasse 17.00 17.36 99.90
29134 2020-07-15 04:35:53 Terrasse 17.10 17.47 99.90
29133 2020-07-15 04:07:37 Terrasse 17.30 17.69 99.90
29132 2020-07-15 03:39:22 Terrasse 17.50 17.91 99.90
29131 2020-07-15 03:11:05 Terrasse 17.50 17.91 99.90
29130 2020-07-15 02:42:56 Terrasse 17.60 18.02 99.90
29129 2020-07-15 02:14:39 Terrasse 17.70 18.13 99.90
29128 2020-07-15 01:46:24 Terrasse 17.90 18.35 99.90
29127 2020-07-15 01:18:09 Terrasse 18.00 18.46 99.90
29126 2020-07-15 00:49:56 Terrasse 18.40 18.90 99.90
29125 2020-07-15 00:21:40 Terrasse 18.70 19.23 99.90
29124 2020-07-14 23:53:26 Terrasse 18.90 19.30 93.90
29123 2020-07-14 23:25:12 Terrasse 19.30 19.13 70.80
29122 2020-07-14 22:56:57 Terrasse 19.70 19.42 64.80
29121 2020-07-14 22:28:44 Terrasse 20.30 19.99 61.40
29120 2020-07-14 22:00:30 Terrasse 20.70 20.35 58.50
29119 2020-07-14 21:32:16 Terrasse 21.10 20.74 56.40
29118 2020-07-14 21:04:04 Terrasse 21.70 21.37 55.40
29117 2020-07-14 20:35:52 Terrasse 22.70 22.42 53.50
29116 2020-07-14 20:07:41 Terrasse 23.80 23.56 50.70
29115 2020-07-14 19:39:27 Terrasse 24.50 24.21 46.00
29114 2020-07-14 19:11:20 Terrasse 24.90 24.60 44.40
29113 2020-07-14 18:43:00 Terrasse 25.10 24.84 45.00
29112 2020-07-14 18:14:40 Terrasse 24.90 24.58 43.40
29111 2020-07-14 17:46:25 Terrasse 25.10 24.77 42.20
29110 2020-07-14 17:18:17 Terrasse 25.30 24.99 42.20
29109 2020-07-14 16:49:59 Terrasse 25.30 24.98 42.00
29108 2020-07-14 16:21:44 Terrasse 25.60 25.28 40.80
29107 2020-07-14 15:53:32 Terrasse 26.40 26.48 40.70
29106 2020-07-14 15:25:24 Terrasse 27.90 27.47 38.30
29105 2020-07-14 14:57:06 Terrasse 27.90 27.50 38.80
29104 2020-07-14 14:28:45 Terrasse 26.80 26.72 40.00
29103 2020-07-14 14:00:31 Terrasse 27.70 27.26 37.50
29102 2020-07-14 13:32:15 Terrasse 27.90 27.49 38.60
29101 2020-07-14 13:04:01 Terrasse 28.10 27.58 37.40
29100 2020-07-14 12:35:48 Terrasse 28.20 27.69 37.80
29099 2020-07-14 12:07:36 Terrasse 27.80 27.79 44.40
29098 2020-07-14 11:39:12 Terrasse 26.80 26.97 45.10
29097 2020-07-14 11:10:45 Terrasse 25.20 25.04 48.50
29096 2020-07-14 10:42:13 Terrasse 23.60 23.37 51.70
29095 2020-07-14 10:13:53 Terrasse 22.50 22.17 52.30
29094 2020-07-14 09:45:30 Terrasse 21.40 21.01 54.10
29093 2020-07-14 09:17:03 Terrasse 19.60 19.14 58.50
29092 2020-07-14 08:48:43 Terrasse 18.70 18.16 58.80
29091 2020-07-14 08:20:24 Terrasse 18.40 17.86 60.00
29090 2020-07-14 07:52:06 Terrasse 17.90 17.34 61.10
29089 2020-07-14 07:23:50 Terrasse 17.40 16.81 62.00
29088 2020-07-14 06:55:32 Terrasse 17.20 16.53 59.60
29087 2020-07-14 06:27:17 Terrasse 17.00 16.27 57.90
29086 2020-07-14 05:59:02 Terrasse 17.30 16.56 56.30
29085 2020-07-14 05:30:47 Terrasse 17.60 16.84 54.40
29084 2020-07-14 05:02:33 Terrasse 18.00 17.26 53.90
29083 2020-07-14 04:34:19 Terrasse 18.10 17.36 53.50
29082 2020-07-14 04:06:05 Terrasse 18.40 17.66 52.30
29081 2020-07-14 03:37:51 Terrasse 18.60 17.88 52.30
29080 2020-07-14 03:09:36 Terrasse 18.70 17.97 51.60
29079 2020-07-14 02:41:22 Terrasse 19.00 18.29 51.30
29078 2020-07-14 02:13:06 Terrasse 19.30 18.62 51.20
29077 2020-07-14 01:44:53 Terrasse 19.60 18.95 51.20
29076 2020-07-14 01:16:38 Terrasse 19.70 19.04 50.30
29075 2020-07-14 00:48:23 Terrasse 19.80 19.16 50.80
29074 2020-07-14 00:20:09 Terrasse 20.00 19.37 50.30
29073 2020-07-13 23:51:53 Terrasse 20.40 19.78 49.30
29072 2020-07-13 23:23:38 Terrasse 20.60 19.99 48.90
29071 2020-07-13 22:55:24 Terrasse 21.00 20.44 49.10
29070 2020-07-13 22:27:11 Terrasse 21.60 21.08 48.50
29069 2020-07-13 21:58:57 Terrasse 22.20 21.72 47.70
29068 2020-07-13 21:30:43 Terrasse 22.90 22.46 46.70
29067 2020-07-13 21:02:30 Terrasse 23.40 22.98 45.50
29066 2020-07-13 20:34:17 Terrasse 24.00 23.64 45.20
29065 2020-07-13 20:06:03 Terrasse 24.60 24.32 46.00
29064 2020-07-13 19:37:52 Terrasse 25.50 25.24 43.50
29063 2020-07-13 19:09:38 Terrasse 26.10 25.77 38.50
29062 2020-07-13 18:41:22 Terrasse 26.50 26.52 40.00
29061 2020-07-13 18:13:06 Terrasse 26.80 26.74 40.50
29060 2020-07-13 17:44:49 Terrasse 27.00 26.86 40.00
29059 2020-07-13 17:16:35 Terrasse 27.50 27.11 37.50
29058 2020-07-13 16:48:20 Terrasse 28.00 27.42 36.10
29057 2020-07-13 16:20:05 Terrasse 28.40 27.84 37.50
29056 2020-07-13 15:51:48 Terrasse 29.20 28.39 35.10
29055 2020-07-13 15:23:31 Terrasse 29.20 28.79 39.80
29054 2020-07-13 14:55:12 Terrasse 29.00 28.28 36.10
29053 2020-07-13 14:26:56 Terrasse 29.30 28.92 40.00
29052 2020-07-13 13:58:39 Terrasse 29.50 29.15 40.20
29051 2020-07-13 13:30:14 Terrasse 28.50 28.06 39.20
29050 2020-07-13 13:01:49 Terrasse 27.10 27.01 41.40
29049 2020-07-13 12:33:34 Terrasse 26.20 25.97 41.80
29048 2020-07-13 12:05:21 Terrasse 26.40 26.55 42.30
29047 2020-07-13 11:36:58 Terrasse 25.70 25.56 47.30
29046 2020-07-13 11:08:26 Terrasse 23.80 23.58 51.60
29045 2020-07-13 10:39:56 Terrasse 22.10 21.74 52.80
29044 2020-07-13 10:11:32 Terrasse 20.80 20.40 56.00
29043 2020-07-13 09:43:08 Terrasse 19.50 19.04 58.60
29042 2020-07-13 09:14:48 Terrasse 18.70 18.09 56.20
29041 2020-07-13 08:46:26 Terrasse 18.00 17.33 56.40
29040 2020-07-13 08:18:07 Terrasse 17.40 16.68 56.90
29039 2020-07-13 07:49:49 Terrasse 17.00 16.30 59.20
29038 2020-07-13 07:21:32 Terrasse 16.70 15.95 58.40
29037 2020-07-13 06:53:16 Terrasse 16.50 15.73 58.50
29036 2020-07-13 06:25:01 Terrasse 16.50 15.70 57.30
29035 2020-07-13 05:56:45 Terrasse 16.40 15.57 56.40
29034 2020-07-13 05:28:30 Terrasse 16.60 15.76 55.50
29033 2020-07-13 05:00:13 Terrasse 16.70 15.86 54.90
29032 2020-07-13 04:31:59 Terrasse 16.80 15.96 54.50
29031 2020-07-13 04:03:43 Terrasse 17.00 16.17 54.00
29030 2020-07-13 03:35:28 Terrasse 17.20 16.38 53.70
29029 2020-07-13 03:07:13 Terrasse 17.30 16.48 53.50
29028 2020-07-13 02:38:58 Terrasse 17.50 16.71 53.70
29027 2020-07-13 02:10:43 Terrasse 17.70 16.91 53.10
29026 2020-07-13 01:42:28 Terrasse 17.80 17.02 53.10
29025 2020-07-13 01:14:13 Terrasse 18.00 17.24 53.00
29024 2020-07-13 00:45:57 Terrasse 18.20 17.43 51.90
29023 2020-07-13 00:17:40 Terrasse 18.40 17.63 51.10
29022 2020-07-12 23:49:25 Terrasse 18.60 17.84 50.80
29021 2020-07-12 23:21:09 Terrasse 18.80 18.05 50.20
29020 2020-07-12 22:52:54 Terrasse 19.10 18.40 51.20
29019 2020-07-12 22:24:38 Terrasse 19.30 18.62 51.20
29018 2020-07-12 21:56:22 Terrasse 19.50 18.84 51.10
29017 2020-07-12 21:28:07 Terrasse 19.90 19.30 51.70
29016 2020-07-12 20:59:54 Terrasse 20.40 19.79 49.60
29015 2020-07-12 20:31:40 Terrasse 21.00 20.40 47.50
29014 2020-07-12 20:03:24 Terrasse 21.50 20.93 46.80
29013 2020-07-12 19:35:08 Terrasse 21.90 21.32 45.10
29012 2020-07-12 19:06:53 Terrasse 22.30 21.77 45.50
29011 2020-07-12 18:38:37 Terrasse 22.30 21.76 45.10
29010 2020-07-12 18:10:22 Terrasse 22.70 22.20 44.90
29009 2020-07-12 17:42:08 Terrasse 23.20 22.74 44.50
29008 2020-07-12 17:13:51 Terrasse 23.70 23.32 45.90
29007 2020-07-12 16:45:34 Terrasse 23.40 23.03 47.30
29006 2020-07-12 16:17:15 Terrasse 23.30 22.91 46.80
29005 2020-07-12 15:49:06 Terrasse 24.60 24.37 47.90
29004 2020-07-12 15:20:37 Terrasse 22.60 22.19 49.00
29003 2020-07-12 14:52:25 Terrasse 23.10 22.75 49.20
29002 2020-07-12 14:24:08 Terrasse 24.00 23.79 51.10
29001 2020-07-12 13:55:51 Terrasse 22.40 22.03 51.10
29000 2020-07-12 13:27:45 Terrasse 24.60 24.44 50.80
28999 2020-07-12 12:59:02 Terrasse 21.50 21.13 54.50
28998 2020-07-12 12:30:51 Terrasse 21.40 21.02 54.40
28997 2020-07-12 12:02:42 Terrasse 22.70 22.49 56.20
28996 2020-07-12 11:34:06 Terrasse 19.30 18.83 59.10
28995 2020-07-12 11:05:51 Terrasse 19.20 18.68 57.80
28994 2020-07-12 10:37:39 Terrasse 20.00 19.48 54.50
28993 2020-07-12 10:09:20 Terrasse 19.80 19.35 57.90
28992 2020-07-12 09:40:55 Terrasse 18.50 17.96 59.70
28991 2020-07-12 09:12:32 Terrasse 17.50 16.92 62.00
28990 2020-07-12 08:44:08 Terrasse 16.40 15.74 62.90
28989 2020-07-12 08:15:47 Terrasse 15.70 15.00 64.30
28988 2020-07-12 07:47:29 Terrasse 15.20 14.52 67.00
28987 2020-07-12 07:19:10 Terrasse 14.80 14.18 70.60
28986 2020-07-12 06:50:53 Terrasse 14.50 13.77 67.60
28985 2020-07-12 06:22:37 Terrasse 14.40 13.60 65.40
28984 2020-07-12 05:54:21 Terrasse 14.60 13.78 63.80
28983 2020-07-12 05:26:07 Terrasse 14.70 13.88 63.50
28982 2020-07-12 04:57:51 Terrasse 14.90 14.07 62.10
28981 2020-07-12 04:29:35 Terrasse 15.10 14.30 62.60
28980 2020-07-12 04:01:20 Terrasse 15.20 14.41 62.50
28979 2020-07-12 03:33:05 Terrasse 15.40 14.58 60.80
28978 2020-07-12 03:04:51 Terrasse 15.60 14.76 59.30
28977 2020-07-12 02:36:37 Terrasse 15.80 14.96 58.50
28976 2020-07-12 02:08:22 Terrasse 15.90 15.05 57.50
28975 2020-07-12 01:40:07 Terrasse 16.00 15.16 57.60
28974 2020-07-12 01:11:51 Terrasse 16.30 15.48 57.20
28973 2020-07-12 00:43:35 Terrasse 16.60 15.80 56.90
28972 2020-07-12 00:15:20 Terrasse 16.50 15.67 56.20
28971 2020-07-11 23:47:07 Terrasse 16.90 16.07 54.70
28970 2020-07-11 23:18:51 Terrasse 17.10 16.28 54.00
28969 2020-07-11 22:50:37 Terrasse 17.50 16.72 54.00
28968 2020-07-11 22:22:22 Terrasse 17.90 17.15 53.90
28967 2020-07-11 21:54:10 Terrasse 18.50 17.80 53.60
28966 2020-07-11 21:25:58 Terrasse 19.50 18.86 51.80
28965 2020-07-11 20:57:45 Terrasse 20.20 19.60 50.80
28964 2020-07-11 20:29:31 Terrasse 20.70 20.15 50.90
28963 2020-07-11 20:01:16 Terrasse 21.30 20.71 46.80
28962 2020-07-11 19:32:56 Terrasse 21.30 20.75 48.60
28961 2020-07-11 19:04:42 Terrasse 21.80 21.30 48.40
28960 2020-07-11 18:36:26 Terrasse 22.30 21.79 46.00
28959 2020-07-11 18:08:16 Terrasse 23.10 22.67 46.30
28958 2020-07-11 17:39:59 Terrasse 22.90 22.40 44.10
28957 2020-07-11 17:11:42 Terrasse 23.00 22.52 44.70
28956 2020-07-11 16:43:29 Terrasse 23.80 23.50 48.40
28955 2020-07-11 16:15:16 Terrasse 24.30 23.96 44.90
28954 2020-07-11 15:47:02 Terrasse 25.50 25.26 44.10
28953 2020-07-11 15:18:41 Terrasse 24.90 24.65 46.30
28952 2020-07-11 14:50:27 Terrasse 25.40 25.22 46.80
28951 2020-07-11 14:22:10 Terrasse 25.40 25.21 46.40
28950 2020-07-11 13:53:49 Terrasse 23.40 23.00 46.00
28949 2020-07-11 13:25:26 Terrasse 24.60 24.36 47.60
28948 2020-07-11 12:56:49 Terrasse 21.40 21.02 54.60
28947 2020-07-11 12:28:36 Terrasse 22.40 22.17 56.40
28946 2020-07-11 12:00:11 Terrasse 20.90 20.52 56.30
28945 2020-07-11 11:31:47 Terrasse 19.30 18.81 58.50
28944 2020-07-11 11:03:38 Terrasse 19.50 19.08 60.40
28943 2020-07-11 10:35:00 Terrasse 17.70 17.34 69.40
28942 2020-07-11 10:06:44 Terrasse 16.80 16.50 75.30
28941 2020-07-11 09:38:24 Terrasse 16.60 16.35 78.10
28940 2020-07-11 09:10:04 Terrasse 15.80 15.80 90.40
28939 2020-07-11 08:41:48 Terrasse 16.00 15.92 86.80
28938 2020-07-11 08:13:29 Terrasse 15.50 15.58 94.60
28937 2020-07-11 07:45:11 Terrasse 15.00 15.15 99.30
28936 2020-07-11 07:16:53 Terrasse 14.50 14.61 99.90
28935 2020-07-11 06:48:37 Terrasse 14.10 14.17 99.90
28934 2020-07-11 06:20:22 Terrasse 14.40 14.41 96.30
28933 2020-07-11 05:52:06 Terrasse 14.60 14.53 92.30
28932 2020-07-11 05:23:51 Terrasse 14.90 14.76 88.50
28931 2020-07-11 04:55:37 Terrasse 15.50 15.31 84.50
28930 2020-07-11 04:27:21 Terrasse 15.40 15.20 84.30
28929 2020-07-11 03:59:06 Terrasse 16.00 15.69 78.10
28928 2020-07-11 03:30:50 Terrasse 16.10 15.82 78.50
28927 2020-07-11 03:02:33 Terrasse 16.40 16.13 78.00
28926 2020-07-11 02:34:18 Terrasse 16.70 16.41 75.90
28925 2020-07-11 02:06:05 Terrasse 17.10 16.78 73.50
28924 2020-07-11 01:37:49 Terrasse 17.30 17.07 75.90
28923 2020-07-11 01:09:33 Terrasse 17.50 17.27 75.20
28922 2020-07-11 00:41:18 Terrasse 17.70 17.46 74.10
28921 2020-07-11 00:13:02 Terrasse 18.00 17.76 73.00
28920 2020-07-10 23:44:47 Terrasse 18.30 18.09 73.10
28919 2020-07-10 23:16:30 Terrasse 18.40 18.20 72.90
28918 2020-07-10 22:48:14 Terrasse 18.60 18.38 71.40
28917 2020-07-10 22:19:59 Terrasse 18.80 18.58 70.70
28916 2020-07-10 21:51:44 Terrasse 19.00 18.76 69.20
28915 2020-07-10 21:23:30 Terrasse 19.40 19.16 67.40
28914 2020-07-10 20:55:16 Terrasse 19.70 19.49 67.40
28913 2020-07-10 20:27:01 Terrasse 20.00 19.93 71.80
28912 2020-07-10 19:58:44 Terrasse 20.20 20.19 73.30
28911 2020-07-10 19:30:28 Terrasse 20.50 20.51 73.00
28910 2020-07-10 19:02:14 Terrasse 20.80 20.84 72.90
28909 2020-07-10 18:33:58 Terrasse 21.10 21.17 73.10
28908 2020-07-10 18:05:43 Terrasse 21.40 21.46 71.50
28907 2020-07-10 17:37:48 Terrasse 21.40 21.43 70.10
28906 2020-07-10 17:06:54 Terrasse 21.40 21.34 67.00
28905 2020-07-10 16:38:40 Terrasse 22.00 21.91 63.40
28904 2020-07-10 16:10:26 Terrasse 22.30 22.19 61.50
28903 2020-07-10 15:42:12 Terrasse 22.80 22.76 62.30
28902 2020-07-10 15:13:55 Terrasse 23.30 23.36 64.20
28901 2020-07-10 14:45:36 Terrasse 23.50 23.58 64.00
28900 2020-07-10 14:17:18 Terrasse 23.30 23.41 66.00
28899 2020-07-10 13:49:05 Terrasse 23.80 23.97 66.40
28898 2020-07-10 13:20:47 Terrasse 23.50 23.68 67.80
28897 2020-07-10 12:52:24 Terrasse 22.60 22.80 72.20
28896 2020-07-10 12:24:49 Terrasse 21.80 21.96 73.80
28895 2020-07-10 11:56:01 Terrasse 21.40 21.65 78.80
28894 2020-07-10 11:27:46 Terrasse 21.70 21.96 78.00
28893 2020-07-10 10:59:29 Terrasse 21.90 22.14 76.40
28892 2020-07-10 10:31:15 Terrasse 22.40 23.02 89.00
28891 2020-07-10 10:02:55 Terrasse 22.00 22.65 91.60
28890 2020-07-10 09:34:45 Terrasse 21.80 22.49 93.90
28889 2020-07-10 09:06:22 Terrasse 21.50 22.23 96.60
28888 2020-07-10 08:38:11 Terrasse 21.20 21.81 93.20
28887 2020-07-10 08:09:51 Terrasse 21.10 21.61 89.90
28886 2020-07-10 07:41:29 Terrasse 20.70 21.24 92.30
28885 2020-07-10 07:13:12 Terrasse 20.30 20.80 92.40
28884 2020-07-10 06:44:53 Terrasse 20.10 20.73 98.30
28883 2020-07-10 06:16:36 Terrasse 20.00 20.66 99.90
28882 2020-07-10 05:48:19 Terrasse 20.00 20.66 99.90
28881 2020-07-10 05:20:03 Terrasse 20.20 20.88 99.90
28880 2020-07-10 04:51:47 Terrasse 20.30 20.99 99.80
28879 2020-07-10 04:23:29 Terrasse 20.50 21.15 97.50
28878 2020-07-10 03:55:11 Terrasse 20.60 21.25 97.00
28877 2020-07-10 03:26:54 Terrasse 20.60 21.19 94.70
28876 2020-07-10 02:58:37 Terrasse 20.70 21.19 90.60
28875 2020-07-10 02:30:20 Terrasse 21.00 21.42 86.90
28874 2020-07-10 02:02:04 Terrasse 21.30 21.46 75.50
28873 2020-07-10 01:33:49 Terrasse 21.60 21.66 70.60
28872 2020-07-10 01:05:32 Terrasse 21.90 21.89 67.00
28871 2020-07-10 00:37:25 Terrasse 22.20 22.20 66.00
28870 2020-07-10 00:09:06 Terrasse 22.30 22.32 66.40
28869 2020-07-09 23:40:49 Terrasse 22.50 22.48 64.30
28868 2020-07-09 23:12:34 Terrasse 22.80 22.74 61.30
28867 2020-07-09 22:44:18 Terrasse 23.20 23.10 58.50
28866 2020-07-09 22:16:03 Terrasse 23.60 23.53 58.20
28865 2020-07-09 21:11:50 Terrasse 24.60 24.62 57.50
28864 2020-07-09 20:38:01 Terrasse 25.20 25.25 56.40
28863 2020-07-09 20:07:17 Terrasse 25.50 25.55 55.20
28862 2020-07-09 19:39:02 Terrasse 25.80 25.88 55.20
28861 2020-07-09 19:10:44 Terrasse 26.00 26.09 54.90
28860 2020-07-09 18:42:28 Terrasse 26.30 26.93 52.90
28859 2020-07-09 18:14:12 Terrasse 26.70 27.34 53.70
28858 2020-07-09 17:45:56 Terrasse 27.20 27.78 52.50
28857 2020-07-09 17:17:38 Terrasse 27.60 28.29 53.40
28856 2020-07-09 16:49:19 Terrasse 27.50 28.10 52.50
28855 2020-07-09 16:21:04 Terrasse 28.00 28.68 52.50
28854 2020-07-09 15:52:47 Terrasse 28.20 29.12 54.40
28853 2020-07-09 15:24:30 Terrasse 28.30 29.17 53.70
28852 2020-07-09 14:56:09 Terrasse 28.20 29.61 58.80
28851 2020-07-09 14:27:45 Terrasse 27.20 28.73 64.70
28850 2020-07-09 13:59:33 Terrasse 27.50 29.14 64.30
28849 2020-07-09 13:31:07 Terrasse 26.90 28.77 71.10
28848 2020-07-09 13:02:38 Terrasse 25.40 26.57 84.30
28847 2020-07-09 12:34:15 Terrasse 23.30 24.29 99.90
28846 2020-07-09 12:05:41 Terrasse 21.40 22.20 99.90
28845 2020-07-09 11:37:13 Terrasse 19.30 19.89 99.90
28844 2020-07-09 11:08:54 Terrasse 18.70 19.23 99.90
28843 2020-07-09 10:40:35 Terrasse 18.20 18.68 99.90
28842 2020-07-09 10:12:17 Terrasse 18.00 18.46 99.90
28841 2020-07-09 09:43:58 Terrasse 17.50 17.91 99.90
28840 2020-07-09 09:15:40 Terrasse 17.20 17.58 99.90
28839 2020-07-09 08:47:23 Terrasse 17.00 17.36 99.90
28838 2020-07-09 08:19:06 Terrasse 16.60 16.92 99.90
28837 2020-07-09 07:50:49 Terrasse 16.40 16.70 99.90
28836 2020-07-09 07:22:33 Terrasse 16.20 16.48 99.90
28835 2020-07-09 06:54:16 Terrasse 16.20 16.48 99.90
28834 2020-07-09 06:26:02 Terrasse 16.10 16.37 99.90
28833 2020-07-09 05:57:46 Terrasse 16.10 16.37 99.90
28832 2020-07-09 05:29:31 Terrasse 16.10 16.37 99.90
28831 2020-07-09 05:01:15 Terrasse 16.00 16.26 99.90
28830 2020-07-09 04:33:00 Terrasse 16.00 16.26 99.90
28829 2020-07-09 04:04:44 Terrasse 16.00 16.26 99.90
28828 2020-07-09 03:36:28 Terrasse 15.90 16.15 99.90
28827 2020-07-09 03:08:12 Terrasse 15.90 16.15 99.90
28826 2020-07-09 02:39:58 Terrasse 15.90 16.15 99.90
28825 2020-07-09 02:11:42 Terrasse 15.90 16.15 99.90
28824 2020-07-09 01:43:27 Terrasse 16.00 16.26 99.90
28823 2020-07-09 01:15:11 Terrasse 16.00 16.26 99.90
28822 2020-07-09 00:46:56 Terrasse 16.00 16.26 99.90
28821 2020-07-09 00:18:40 Terrasse 16.00 16.26 99.90
28820 2020-07-08 23:50:25 Terrasse 16.10 16.37 99.90
28819 2020-07-08 23:22:12 Terrasse 16.10 16.37 99.90
28818 2020-07-08 22:53:56 Terrasse 16.10 16.37 99.90
28817 2020-07-08 22:25:40 Terrasse 16.20 16.48 99.90
28816 2020-07-08 21:57:24 Terrasse 16.20 16.48 99.90
28815 2020-07-08 21:29:09 Terrasse 16.20 16.48 99.90
28814 2020-07-08 21:00:55 Terrasse 16.30 16.59 99.90
28813 2020-07-08 20:32:40 Terrasse 16.40 16.70 99.90
28812 2020-07-08 20:04:25 Terrasse 16.50 16.81 99.90
28811 2020-07-08 19:36:11 Terrasse 16.50 16.81 99.90
28810 2020-07-08 19:07:56 Terrasse 16.60 16.92 99.90
28809 2020-07-08 18:39:51 Terrasse 16.70 17.03 99.90
28808 2020-07-08 18:11:33 Terrasse 16.80 17.14 99.90
28807 2020-07-08 17:43:17 Terrasse 16.60 16.92 99.90
28806 2020-07-08 17:15:03 Terrasse 16.70 17.03 99.90
28805 2020-07-08 16:46:47 Terrasse 16.60 16.92 99.90
28804 2020-07-08 16:18:30 Terrasse 16.20 16.48 99.90
28803 2020-07-08 15:50:17 Terrasse 16.30 16.59 99.90
28802 2020-07-08 15:21:59 Terrasse 16.30 16.59 99.90
28801 2020-07-08 14:53:44 Terrasse 16.20 16.48 99.90
28800 2020-07-08 14:25:26 Terrasse 15.90 16.15 99.90
28799 2020-07-08 13:57:10 Terrasse 15.70 15.93 99.90
28798 2020-07-08 13:28:53 Terrasse 15.70 15.93 99.90
28797 2020-07-08 13:00:36 Terrasse 15.50 15.71 99.90
28796 2020-07-08 12:32:22 Terrasse 15.80 16.04 99.90
28795 2020-07-08 12:04:06 Terrasse 15.90 16.15 99.90
28794 2020-07-08 11:35:50 Terrasse 16.10 16.37 99.90
28793 2020-07-08 11:07:35 Terrasse 16.20 16.48 99.90
28792 2020-07-08 10:39:21 Terrasse 16.40 16.70 99.90
28791 2020-07-08 10:11:04 Terrasse 16.30 16.36 90.80
28790 2020-07-08 09:42:48 Terrasse 16.20 16.25 90.80
28789 2020-07-08 09:14:32 Terrasse 16.50 16.69 95.20
28788 2020-07-08 08:46:16 Terrasse 16.60 16.82 95.80
28787 2020-07-08 08:17:58 Terrasse 16.40 16.60 95.80
28786 2020-07-08 07:49:41 Terrasse 16.20 16.32 93.60
28785 2020-07-08 07:21:24 Terrasse 16.10 16.21 93.70
28784 2020-07-08 06:53:07 Terrasse 16.10 16.24 94.60
28783 2020-07-08 06:24:51 Terrasse 16.20 16.02 82.00
28782 2020-07-08 05:56:37 Terrasse 16.50 16.01 69.10
28781 2020-07-08 05:28:22 Terrasse 16.80 16.12 60.80
28780 2020-07-08 05:00:07 Terrasse 16.80 16.13 60.90
28779 2020-07-08 04:31:51 Terrasse 16.80 16.12 60.70
28778 2020-07-08 04:03:35 Terrasse 16.80 16.16 62.10
28777 2020-07-08 03:35:18 Terrasse 16.80 16.18 63.10
28776 2020-07-08 03:07:03 Terrasse 16.90 16.27 62.20
28775 2020-07-08 02:38:46 Terrasse 17.00 16.39 62.50
28774 2020-07-08 02:10:30 Terrasse 17.10 16.51 62.80
28773 2020-07-08 01:42:16 Terrasse 17.20 16.52 59.10
28772 2020-07-08 01:14:01 Terrasse 17.50 16.87 60.10
28771 2020-07-08 00:45:45 Terrasse 17.60 16.91 57.40
28770 2020-07-08 00:17:30 Terrasse 17.70 17.02 57.20
28769 2020-07-07 23:49:16 Terrasse 17.70 17.04 58.10
28768 2020-07-07 23:21:02 Terrasse 17.90 17.22 56.40
28767 2020-07-07 22:52:48 Terrasse 18.30 17.64 55.70
28766 2020-07-07 22:24:35 Terrasse 18.70 18.06 54.90
28765 2020-07-07 21:56:22 Terrasse 19.10 18.47 53.90
28764 2020-07-07 21:28:09 Terrasse 19.50 18.89 53.10
28763 2020-07-07 20:59:55 Terrasse 19.80 19.18 51.60
28762 2020-07-07 20:31:41 Terrasse 20.20 19.61 51.10
28761 2020-07-07 20:03:27 Terrasse 20.50 19.86 47.90
28760 2020-07-07 19:35:11 Terrasse 20.80 20.17 47.20
28759 2020-07-07 19:06:56 Terrasse 21.30 20.69 46.30
28758 2020-07-07 18:38:41 Terrasse 21.60 21.00 45.50
28757 2020-07-07 18:10:26 Terrasse 21.90 21.35 46.10
28756 2020-07-07 17:42:07 Terrasse 21.80 21.22 45.50
28755 2020-07-07 17:13:54 Terrasse 22.30 21.78 45.70
28754 2020-07-07 16:45:36 Terrasse 21.90 21.32 45.00
28753 2020-07-07 16:17:19 Terrasse 22.10 21.57 46.10
28752 2020-07-07 15:49:04 Terrasse 22.60 22.14 46.80
28751 2020-07-07 15:20:48 Terrasse 22.30 21.78 45.60
28750 2020-07-07 14:52:36 Terrasse 22.40 21.92 46.80
28749 2020-07-07 14:24:24 Terrasse 22.80 22.31 45.10
28748 2020-07-07 13:56:13 Terrasse 24.30 23.99 46.20
28747 2020-07-07 13:27:34 Terrasse 21.70 21.22 49.40
28746 2020-07-07 12:59:23 Terrasse 21.30 20.79 49.90
28745 2020-07-07 12:31:10 Terrasse 21.40 20.90 49.80
28744 2020-07-07 12:02:52 Terrasse 22.40 21.98 49.10
28743 2020-07-07 11:34:25 Terrasse 21.30 20.87 53.10
28742 2020-07-07 11:05:56 Terrasse 19.70 19.25 58.40
28741 2020-07-07 10:37:27 Terrasse 18.60 18.05 58.90
28740 2020-07-07 10:09:05 Terrasse 17.50 16.92 61.90
28739 2020-07-07 09:40:48 Terrasse 16.40 15.89 68.90
28738 2020-07-07 09:12:22 Terrasse 15.30 15.17 87.60
28737 2020-07-07 08:43:57 Terrasse 14.00 14.06 99.90
28736 2020-07-07 08:15:38 Terrasse 13.30 13.29 99.90
28735 2020-07-07 07:47:21 Terrasse 12.80 12.74 99.90
28734 2020-07-07 07:19:03 Terrasse 12.30 12.19 99.90
28733 2020-07-07 06:50:47 Terrasse 12.00 11.86 99.90
28732 2020-07-07 06:22:29 Terrasse 11.90 11.75 99.90
28731 2020-07-07 05:26:22 Terrasse 12.50 12.41 99.90
28730 2020-07-07 04:30:08 Terrasse 12.90 12.84 99.30
28729 2020-07-07 04:02:05 Terrasse 13.00 12.74 91.50
28728 2020-07-07 03:06:03 Terrasse 13.50 12.97 79.20
28727 2020-07-07 02:37:59 Terrasse 13.70 13.10 75.50
28726 2020-07-07 02:09:53 Terrasse 13.90 13.23 72.30
28725 2020-07-07 01:41:50 Terrasse 14.30 13.64 71.10
28724 2020-07-07 01:13:40 Terrasse 14.50 13.80 68.90
28723 2020-07-07 00:45:40 Terrasse 14.80 14.10 67.70
28722 2020-07-07 00:17:36 Terrasse 15.00 14.29 66.40
28721 2020-07-06 23:49:31 Terrasse 15.20 14.49 65.50
28720 2020-07-06 23:21:26 Terrasse 15.40 14.70 65.40
28719 2020-07-06 22:53:07 Terrasse 15.20 14.48 65.10
28718 2020-07-06 22:24:54 Terrasse 15.90 15.18 62.70
28717 2020-07-06 21:56:41 Terrasse 16.10 15.36 61.20
28716 2020-07-06 21:28:29 Terrasse 16.50 15.77 60.00
28715 2020-07-06 21:00:18 Terrasse 17.00 16.28 58.50
28714 2020-07-06 20:32:04 Terrasse 17.60 16.92 57.80
28713 2020-07-06 20:03:50 Terrasse 18.20 17.54 56.20
28712 2020-07-06 19:35:37 Terrasse 18.90 18.33 56.90
28711 2020-07-06 19:07:25 Terrasse 19.40 18.80 53.90
28710 2020-07-06 18:39:10 Terrasse 19.90 19.33 53.00
28709 2020-07-06 18:10:54 Terrasse 20.00 19.39 51.30
28708 2020-07-06 17:42:36 Terrasse 19.90 19.25 49.80
28707 2020-07-06 17:14:24 Terrasse 20.70 20.18 51.90
28706 2020-07-06 16:46:11 Terrasse 21.40 20.92 50.70
28705 2020-07-06 16:17:52 Terrasse 21.20 20.63 48.20
28704 2020-07-06 15:49:49 Terrasse 21.80 21.26 46.80
28703 2020-07-06 15:21:24 Terrasse 21.80 21.25 46.40
28702 2020-07-06 14:53:02 Terrasse 20.80 20.20 48.40
28701 2020-07-06 14:24:42 Terrasse 20.70 20.10 49.00
28700 2020-07-06 13:56:22 Terrasse 20.60 19.97 47.90
28699 2020-07-06 13:28:07 Terrasse 20.70 20.13 49.90
28698 2020-07-06 12:59:44 Terrasse 20.20 19.63 51.80
28697 2020-07-06 12:31:34 Terrasse 21.00 20.42 48.30
28696 2020-07-06 12:03:21 Terrasse 20.90 20.39 51.50
28695 2020-07-06 11:34:49 Terrasse 19.30 18.70 54.20
28694 2020-07-06 11:06:19 Terrasse 18.20 17.54 56.00
28693 2020-07-06 10:37:59 Terrasse 18.60 18.00 56.80
28692 2020-07-06 10:09:39 Terrasse 17.30 16.64 59.60
28691 2020-07-06 09:41:21 Terrasse 17.10 16.48 61.90
28690 2020-07-06 09:13:00 Terrasse 16.60 16.04 65.90
28689 2020-07-06 08:44:42 Terrasse 16.10 15.55 68.50
28688 2020-07-06 08:16:25 Terrasse 15.50 14.94 70.10
28687 2020-07-06 07:48:09 Terrasse 15.40 14.80 69.10
28686 2020-07-06 07:19:55 Terrasse 15.60 15.00 68.30
28685 2020-07-06 06:51:39 Terrasse 15.60 14.96 66.80
28684 2020-07-06 06:23:25 Terrasse 15.80 15.13 65.00
28683 2020-07-06 05:55:10 Terrasse 16.30 15.62 62.70
28682 2020-07-06 05:26:59 Terrasse 16.80 16.12 60.80
28681 2020-07-06 04:58:46 Terrasse 17.60 17.03 61.70
28680 2020-07-06 04:30:32 Terrasse 18.30 17.96 67.90
28679 2020-07-06 04:02:17 Terrasse 18.60 18.26 67.00
28678 2020-07-06 03:34:05 Terrasse 19.10 19.67 99.90
28677 2020-07-06 03:05:50 Terrasse 19.40 20.00 99.90
28676 2020-07-06 02:37:35 Terrasse 19.50 20.11 99.90
28675 2020-07-06 02:09:20 Terrasse 19.60 20.22 99.90
28674 2020-07-06 01:12:57 Terrasse 20.10 20.77 99.90
28673 2020-07-06 00:44:41 Terrasse 20.30 20.99 99.90
28672 2020-07-06 00:16:29 Terrasse 20.60 21.32 99.90
28671 2020-07-05 23:48:16 Terrasse 21.00 21.76 99.90
28670 2020-07-05 23:20:02 Terrasse 21.30 22.09 99.90
28669 2020-07-05 22:51:47 Terrasse 21.70 22.45 96.80
28668 2020-07-05 22:23:33 Terrasse 22.10 22.74 90.80
28667 2020-07-05 21:55:19 Terrasse 22.50 23.00 84.00
28666 2020-07-05 21:27:06 Terrasse 22.80 23.21 79.60
28665 2020-07-05 20:58:50 Terrasse 23.10 23.47 76.60
28664 2020-07-05 20:30:36 Terrasse 23.40 23.72 73.60
28663 2020-07-05 20:02:20 Terrasse 23.80 24.10 71.30
28662 2020-07-05 19:34:06 Terrasse 24.20 24.50 69.80
28661 2020-07-05 19:05:49 Terrasse 24.20 24.50 69.80
28660 2020-07-05 18:37:34 Terrasse 24.40 24.68 68.30
28659 2020-07-05 18:09:57 Terrasse 25.10 25.46 68.60
28658 2020-07-05 17:41:25 Terrasse 25.40 25.74 66.80
28657 2020-07-05 17:13:12 Terrasse 26.00 27.08 64.20
28656 2020-07-05 16:16:48 Terrasse 26.50 27.79 65.70
28655 2020-07-05 15:48:28 Terrasse 26.50 27.91 67.70
28654 2020-07-05 15:20:05 Terrasse 25.40 25.94 74.40
28653 2020-07-05 14:51:47 Terrasse 25.20 25.80 77.70
28652 2020-07-05 14:23:24 Terrasse 24.50 25.16 82.50
28651 2020-07-05 13:55:07 Terrasse 24.60 25.36 85.90
28650 2020-07-05 13:26:50 Terrasse 24.40 25.20 88.10
28649 2020-07-05 12:58:16 Terrasse 22.80 23.74 99.90
28648 2020-07-05 12:29:57 Terrasse 22.10 22.97 99.90
28647 2020-07-05 12:01:42 Terrasse 22.10 22.97 99.90
28646 2020-07-05 11:33:23 Terrasse 21.50 22.31 99.90
28645 2020-07-05 11:05:10 Terrasse 21.70 22.53 99.90
28644 2020-07-05 10:36:49 Terrasse 20.50 21.21 99.90
28643 2020-07-05 10:08:33 Terrasse 20.40 21.10 99.90
28642 2020-07-05 09:40:16 Terrasse 20.20 20.88 99.90
28641 2020-07-05 09:12:00 Terrasse 19.90 20.55 99.90
28640 2020-07-05 08:43:43 Terrasse 19.80 20.44 99.90
28639 2020-07-05 08:15:28 Terrasse 19.70 20.33 99.90
28638 2020-07-05 07:47:10 Terrasse 19.60 20.22 99.90
28637 2020-07-05 07:18:53 Terrasse 19.50 20.11 99.90
28636 2020-07-05 06:50:39 Terrasse 19.40 20.00 99.90
28635 2020-07-05 06:22:23 Terrasse 19.40 20.00 99.90
28634 2020-07-05 05:54:06 Terrasse 19.40 20.00 99.90
28633 2020-07-05 05:25:48 Terrasse 19.30 19.89 99.90
28632 2020-07-05 04:57:31 Terrasse 19.40 20.00 99.90
28631 2020-07-05 04:29:16 Terrasse 19.40 20.00 99.90
28630 2020-07-05 04:01:00 Terrasse 19.40 20.00 99.90
28629 2020-07-05 03:32:44 Terrasse 19.60 20.22 99.90
28628 2020-07-05 03:04:30 Terrasse 20.10 20.75 98.80
28627 2020-07-05 02:36:16 Terrasse 20.40 20.31 69.50
28626 2020-07-05 02:07:59 Terrasse 20.50 20.37 67.40
28625 2020-07-05 01:39:44 Terrasse 20.70 20.54 65.80
28624 2020-07-05 01:11:27 Terrasse 20.70 20.50 64.20
28623 2020-07-05 00:43:10 Terrasse 20.90 20.69 62.80
28622 2020-07-05 00:14:54 Terrasse 21.00 20.78 62.20
28621 2020-07-04 23:46:38 Terrasse 21.20 20.99 61.70
28620 2020-07-04 23:18:22 Terrasse 21.40 21.19 61.20
28619 2020-07-04 22:50:07 Terrasse 21.70 21.49 60.00
28618 2020-07-04 22:21:53 Terrasse 21.80 21.58 59.30
28617 2020-07-04 21:53:38 Terrasse 22.10 21.88 57.90
28616 2020-07-04 21:25:25 Terrasse 22.50 22.27 56.10
28615 2020-07-04 20:57:11 Terrasse 22.90 22.69 55.30
28614 2020-07-04 20:28:57 Terrasse 23.10 22.86 53.50
28613 2020-07-04 20:00:45 Terrasse 23.80 23.63 53.30
28612 2020-07-04 19:32:29 Terrasse 24.10 23.95 53.20
28611 2020-07-04 19:04:11 Terrasse 24.30 24.18 53.50
28610 2020-07-04 18:35:51 Terrasse 24.00 23.86 53.70
28609 2020-07-04 18:07:36 Terrasse 24.20 24.05 52.70
28608 2020-07-04 17:39:18 Terrasse 24.40 24.28 53.00
28607 2020-07-04 17:10:58 Terrasse 24.60 24.50 53.10
28606 2020-07-04 16:42:41 Terrasse 24.40 24.27 52.50
28605 2020-07-04 16:14:25 Terrasse 24.60 24.48 52.40
28604 2020-07-04 15:46:05 Terrasse 23.80 23.57 51.30
28603 2020-07-04 15:17:53 Terrasse 24.30 24.11 50.80
28602 2020-07-04 14:49:46 Terrasse 26.00 25.97 50.40
28601 2020-07-04 14:21:34 Terrasse 26.50 26.94 49.50
28600 2020-07-04 13:53:17 Terrasse 26.40 26.94 51.20
28599 2020-07-04 13:25:01 Terrasse 25.50 25.41 50.10
28598 2020-07-04 12:56:41 Terrasse 24.00 23.85 53.60
28597 2020-07-04 12:28:34 Terrasse 23.60 23.50 56.80
28596 2020-07-04 11:59:53 Terrasse 21.40 21.18 60.60
28595 2020-07-04 11:31:41 Terrasse 21.40 21.21 61.90
28594 2020-07-04 11:03:15 Terrasse 19.80 19.58 66.80
28593 2020-07-04 10:35:00 Terrasse 19.20 19.06 72.20
28592 2020-07-04 10:06:37 Terrasse 18.60 18.46 74.40
28591 2020-07-04 09:38:21 Terrasse 18.40 18.30 76.80
28590 2020-07-04 09:10:01 Terrasse 17.60 17.56 82.20
28589 2020-07-04 08:41:39 Terrasse 16.90 16.91 86.90
28588 2020-07-04 08:13:20 Terrasse 16.50 16.62 92.30
28587 2020-07-04 07:45:04 Terrasse 16.10 16.25 95.10
28586 2020-07-04 07:16:46 Terrasse 15.80 16.02 98.80
28585 2020-07-04 06:48:29 Terrasse 15.40 15.49 95.60
28584 2020-07-04 06:20:14 Terrasse 15.40 15.39 91.60
28583 2020-07-04 05:51:57 Terrasse 15.50 15.34 85.50
28582 2020-07-04 05:23:40 Terrasse 15.40 15.27 87.20
28581 2020-07-04 04:55:24 Terrasse 15.60 15.32 80.50
28580 2020-07-04 04:27:10 Terrasse 15.60 15.20 75.90
28579 2020-07-04 03:58:55 Terrasse 15.90 15.42 71.90
28578 2020-07-04 03:30:38 Terrasse 15.90 15.39 70.50
28577 2020-07-04 03:02:24 Terrasse 16.20 15.66 68.40
28576 2020-07-04 02:34:11 Terrasse 16.60 16.05 66.30
28575 2020-07-04 02:05:56 Terrasse 16.90 16.33 64.60
28574 2020-07-04 01:37:42 Terrasse 17.20 16.61 62.70
28573 2020-07-04 01:09:28 Terrasse 17.40 16.82 62.10
28572 2020-07-04 00:41:14 Terrasse 17.70 17.12 60.90
28571 2020-07-04 00:13:06 Terrasse 17.90 17.33 60.70
28570 2020-07-03 23:44:53 Terrasse 18.30 17.75 60.10
28569 2020-07-03 23:16:41 Terrasse 18.70 18.15 58.50
28568 2020-07-03 22:48:26 Terrasse 19.10 18.57 57.50
28567 2020-07-03 22:20:14 Terrasse 19.50 19.02 57.90
28566 2020-07-03 21:52:02 Terrasse 20.00 19.55 57.10
28565 2020-07-03 21:23:50 Terrasse 20.70 20.30 56.30
28564 2020-07-03 20:55:37 Terrasse 21.40 21.00 53.70
28563 2020-07-03 20:27:24 Terrasse 21.70 21.31 53.00
28562 2020-07-03 19:59:09 Terrasse 22.20 21.82 51.40
28561 2020-07-03 19:31:05 Terrasse 22.60 22.26 51.60
28560 2020-07-03 19:02:49 Terrasse 23.10 22.76 49.60
28559 2020-07-03 18:34:36 Terrasse 23.50 23.19 49.20
28558 2020-07-03 18:06:19 Terrasse 23.40 23.14 51.50
28557 2020-07-03 17:38:02 Terrasse 23.50 23.25 51.40
28556 2020-07-03 17:09:46 Terrasse 23.70 23.56 55.00
28555 2020-07-03 16:41:29 Terrasse 23.50 23.30 53.30
28554 2020-07-03 16:13:12 Terrasse 23.50 23.32 54.20
28553 2020-07-03 15:44:59 Terrasse 23.90 23.76 54.00
28552 2020-07-03 15:16:44 Terrasse 24.20 24.05 52.50
28551 2020-07-03 14:48:18 Terrasse 23.10 22.91 55.20
28550 2020-07-03 14:20:06 Terrasse 23.60 23.40 53.10
28549 2020-07-03 13:52:01 Terrasse 25.10 25.05 53.10
28548 2020-07-03 13:23:46 Terrasse 24.90 24.87 54.40
28547 2020-07-03 12:55:23 Terrasse 24.60 24.58 56.20
28546 2020-07-03 12:27:03 Terrasse 23.30 23.20 58.00
28545 2020-07-03 11:58:47 Terrasse 23.40 23.32 58.40
28544 2020-07-03 11:30:31 Terrasse 22.80 22.74 61.60
28543 2020-07-03 11:02:12 Terrasse 22.00 21.91 63.50
28542 2020-07-03 10:33:41 Terrasse 20.30 20.25 71.40
28541 2020-07-03 10:05:17 Terrasse 19.00 18.91 75.00
28540 2020-07-03 09:36:55 Terrasse 18.00 18.24 91.30
28539 2020-07-03 09:08:38 Terrasse 17.00 17.36 99.90
28538 2020-07-03 08:40:13 Terrasse 16.00 16.26 99.90
28537 2020-07-03 08:11:55 Terrasse 15.50 15.71 99.90
28536 2020-07-03 07:43:54 Terrasse 15.20 15.38 99.90
28535 2020-07-03 07:15:29 Terrasse 14.90 15.05 99.90
28534 2020-07-03 06:47:12 Terrasse 14.70 14.83 99.90
28533 2020-07-03 06:18:56 Terrasse 14.60 14.72 99.90
28532 2020-07-03 05:50:41 Terrasse 14.90 15.05 99.90
28531 2020-07-03 05:22:27 Terrasse 15.10 15.27 99.90
28530 2020-07-03 04:54:12 Terrasse 15.30 15.49 99.90
28529 2020-07-03 04:25:56 Terrasse 15.50 15.71 99.90
28528 2020-07-03 03:57:38 Terrasse 15.40 15.60 99.90
28527 2020-07-03 03:29:22 Terrasse 15.40 15.60 99.90
28526 2020-07-03 03:01:08 Terrasse 15.70 15.93 99.90
28525 2020-07-03 02:32:52 Terrasse 16.10 16.37 99.90
28524 2020-07-03 02:04:37 Terrasse 16.30 16.59 99.90
28523 2020-07-03 01:36:35 Terrasse 16.50 16.81 99.90
28522 2020-07-03 01:08:14 Terrasse 16.80 17.14 99.90
28521 2020-07-03 00:39:59 Terrasse 17.00 17.36 99.90
28520 2020-07-03 00:11:44 Terrasse 17.20 17.58 99.90
28519 2020-07-02 23:43:30 Terrasse 17.60 18.02 99.90
28518 2020-07-02 23:15:15 Terrasse 17.90 18.35 99.90
28517 2020-07-02 22:47:01 Terrasse 18.30 18.79 99.90
28516 2020-07-02 22:18:52 Terrasse 18.70 19.23 99.90
28515 2020-07-02 21:50:34 Terrasse 19.00 19.56 99.90
28514 2020-07-02 21:22:23 Terrasse 19.50 20.11 99.90
28513 2020-07-02 20:54:10 Terrasse 20.10 20.77 99.90
28512 2020-07-02 20:25:57 Terrasse 20.80 21.30 90.50
28511 2020-07-02 19:57:54 Terrasse 22.00 22.08 69.90
28510 2020-07-02 19:29:41 Terrasse 23.20 23.11 58.90
28509 2020-07-02 19:01:27 Terrasse 23.90 23.85 57.50
28508 2020-07-02 18:33:14 Terrasse 24.50 24.47 56.20
28507 2020-07-02 18:04:58 Terrasse 24.90 24.90 55.70
28506 2020-07-02 17:36:41 Terrasse 25.50 25.57 56.00
28505 2020-07-02 17:08:24 Terrasse 25.20 25.23 55.90
28504 2020-07-02 16:40:11 Terrasse 26.00 26.10 55.40
28503 2020-07-02 16:11:51 Terrasse 26.00 26.10 55.30
28502 2020-07-02 15:43:40 Terrasse 27.90 28.01 46.00
28501 2020-07-02 15:15:22 Terrasse 27.60 27.83 47.50
28500 2020-07-02 14:47:03 Terrasse 27.50 27.88 49.60
28499 2020-07-02 14:18:51 Terrasse 28.30 28.48 46.70
28498 2020-07-02 13:50:41 Terrasse 29.20 29.46 46.20
28497 2020-07-02 13:22:17 Terrasse 28.80 29.39 49.90
28496 2020-07-02 12:53:34 Terrasse 27.40 28.08 53.70
28495 2020-07-02 12:25:18 Terrasse 25.60 25.67 55.70
28494 2020-07-02 11:56:52 Terrasse 24.20 24.38 65.20
28493 2020-07-02 11:28:32 Terrasse 23.50 23.71 69.20
28492 2020-07-02 11:00:18 Terrasse 24.00 24.44 76.20
28491 2020-07-02 10:31:45 Terrasse 21.70 22.53 99.90
28490 2020-07-02 10:03:17 Terrasse 20.50 21.21 99.90
28489 2020-07-02 09:34:59 Terrasse 20.10 20.77 99.90
28488 2020-07-02 09:06:49 Terrasse 19.80 20.44 99.90
28487 2020-07-02 08:38:30 Terrasse 19.30 19.89 99.90
28486 2020-07-02 08:10:13 Terrasse 19.10 19.67 99.90
28485 2020-07-02 07:41:55 Terrasse 18.70 19.23 99.90
28484 2020-07-02 07:13:37 Terrasse 18.40 18.90 99.90
28483 2020-07-02 06:45:20 Terrasse 18.00 18.46 99.90
28482 2020-07-02 06:17:04 Terrasse 17.90 18.35 99.90
28481 2020-07-02 05:48:49 Terrasse 17.80 18.24 99.90
28480 2020-07-02 05:20:34 Terrasse 17.90 18.35 99.90
28479 2020-07-02 04:52:20 Terrasse 18.00 18.46 99.90
28478 2020-07-02 04:24:06 Terrasse 18.10 18.57 99.90
28477 2020-07-02 03:55:49 Terrasse 18.20 18.68 99.90
28476 2020-07-02 03:27:33 Terrasse 18.40 18.90 99.90
28475 2020-07-02 02:59:18 Terrasse 18.70 19.23 99.90
28474 2020-07-02 02:31:03 Terrasse 19.00 19.56 99.90
28473 2020-07-02 02:02:50 Terrasse 19.50 20.11 99.90
28472 2020-07-02 01:34:36 Terrasse 20.00 20.58 96.60
28471 2020-07-02 01:06:22 Terrasse 20.50 21.01 92.10
28470 2020-07-02 00:38:07 Terrasse 21.20 21.71 89.30
28469 2020-07-02 00:09:51 Terrasse 21.30 21.68 83.90
28468 2020-07-01 23:41:35 Terrasse 21.50 21.73 77.40
28467 2020-07-01 23:13:20 Terrasse 21.70 21.88 74.90
28466 2020-07-01 22:45:04 Terrasse 22.10 22.20 70.40
28465 2020-07-01 22:16:49 Terrasse 22.30 22.37 68.50
28464 2020-07-01 21:48:34 Terrasse 22.70 22.76 66.40
28463 2020-07-01 21:20:20 Terrasse 23.10 23.17 65.40
28462 2020-07-01 20:52:04 Terrasse 23.40 23.49 64.90
28461 2020-07-01 20:23:49 Terrasse 23.80 23.90 63.90
28460 2020-07-01 19:55:35 Terrasse 24.20 24.31 62.60
28459 2020-07-01 19:27:22 Terrasse 24.60 24.77 63.30
28458 2020-07-01 18:59:06 Terrasse 24.90 25.08 62.60
28457 2020-07-01 18:30:49 Terrasse 25.20 25.37 61.00
28456 2020-07-01 18:02:33 Terrasse 25.20 25.37 61.10
28455 2020-07-01 17:34:17 Terrasse 25.40 25.64 63.10
28454 2020-07-01 17:06:02 Terrasse 25.90 26.87 61.40
28453 2020-07-01 16:37:44 Terrasse 26.40 27.43 61.40
28452 2020-07-01 16:09:28 Terrasse 26.70 27.74 60.40
28451 2020-07-01 15:41:13 Terrasse 27.00 28.04 59.40
28450 2020-07-01 15:12:55 Terrasse 27.40 28.74 61.60
28449 2020-07-01 14:44:33 Terrasse 26.60 27.97 66.30
28448 2020-07-01 14:16:15 Terrasse 26.70 28.08 65.80
28447 2020-07-01 13:48:01 Terrasse 25.80 26.95 67.80
28446 2020-07-01 13:19:45 Terrasse 26.30 27.64 68.10
28445 2020-07-01 12:51:10 Terrasse 25.00 25.52 75.40
28444 2020-07-01 12:22:49 Terrasse 22.90 23.54 88.00
28443 2020-07-01 11:54:27 Terrasse 22.80 23.53 91.60
28442 2020-07-01 11:26:03 Terrasse 21.40 22.17 98.60
28441 2020-07-01 10:57:45 Terrasse 21.30 22.09 99.70
28440 2020-07-01 10:29:20 Terrasse 20.50 21.21 99.90
28439 2020-07-01 10:00:56 Terrasse 19.70 20.33 99.90
28438 2020-07-01 09:32:34 Terrasse 18.50 19.01 99.90
28437 2020-07-01 09:04:16 Terrasse 17.90 18.35 99.90
28436 2020-07-01 08:36:00 Terrasse 17.70 18.13 99.90
28435 2020-07-01 08:07:43 Terrasse 17.40 17.80 99.90
28434 2020-07-01 07:39:25 Terrasse 16.70 17.03 99.90
28433 2020-07-01 07:11:09 Terrasse 16.60 16.92 99.90
28432 2020-07-01 06:42:53 Terrasse 16.50 16.81 99.90
28431 2020-07-01 06:14:39 Terrasse 16.40 16.70 99.90
28430 2020-07-01 05:46:23 Terrasse 16.60 16.92 99.90
28429 2020-07-01 05:18:08 Terrasse 16.80 17.14 99.90
28428 2020-07-01 04:49:55 Terrasse 17.00 17.36 99.90
28427 2020-07-01 04:21:39 Terrasse 17.10 17.47 99.90
28426 2020-07-01 03:53:25 Terrasse 17.00 17.36 99.90
28425 2020-07-01 03:25:12 Terrasse 17.00 17.36 99.90
28424 2020-07-01 02:57:06 Terrasse 17.30 17.69 99.90
28423 2020-07-01 02:28:48 Terrasse 17.70 18.01 95.20
28422 2020-07-01 02:00:32 Terrasse 17.90 18.15 92.10
28421 2020-07-01 01:32:15 Terrasse 17.90 18.00 86.50
28420 2020-07-01 01:03:59 Terrasse 17.90 17.86 80.90
28419 2020-07-01 00:35:45 Terrasse 18.10 17.94 75.70
28418 2020-07-01 00:07:31 Terrasse 18.30 18.06 71.70
28417 2020-06-30 23:39:15 Terrasse 18.40 18.12 69.80
28416 2020-06-30 23:11:00 Terrasse 18.70 18.37 66.90
28415 2020-06-30 22:42:45 Terrasse 19.00 18.66 65.40
28414 2020-06-30 22:14:29 Terrasse 19.20 18.83 63.40
28413 2020-06-30 21:46:14 Terrasse 19.60 19.24 62.30
28412 2020-06-30 21:18:00 Terrasse 20.00 19.63 60.20
28411 2020-06-30 20:49:45 Terrasse 20.30 19.91 58.40
28410 2020-06-30 20:21:32 Terrasse 20.90 20.55 57.70
28409 2020-06-30 19:53:16 Terrasse 21.20 20.87 57.10
28408 2020-06-30 19:25:01 Terrasse 21.40 21.09 57.20
28407 2020-06-30 18:56:48 Terrasse 21.90 21.64 57.10
28406 2020-06-30 18:28:31 Terrasse 21.90 21.63 56.70
28405 2020-06-30 18:00:16 Terrasse 22.00 21.72 56.10
28404 2020-06-30 17:32:01 Terrasse 22.20 21.98 57.50
28403 2020-06-30 17:03:42 Terrasse 22.00 21.74 56.70
28402 2020-06-30 16:35:30 Terrasse 22.20 21.96 56.80
28401 2020-06-30 16:07:11 Terrasse 21.90 21.66 57.90
28400 2020-06-30 15:38:52 Terrasse 21.70 21.46 58.80
28399 2020-06-30 15:10:32 Terrasse 20.80 20.47 58.90
28398 2020-06-30 14:42:11 Terrasse 20.30 19.96 60.30
28397 2020-06-30 14:13:54 Terrasse 19.80 19.42 60.70
28396 2020-06-30 13:45:39 Terrasse 20.10 19.75 60.80
28395 2020-06-30 13:17:22 Terrasse 20.20 19.82 59.00
28394 2020-06-30 12:49:03 Terrasse 19.80 19.38 59.10
28393 2020-06-30 12:20:46 Terrasse 19.60 19.16 59.20
28392 2020-06-30 11:52:28 Terrasse 18.70 18.17 59.20
28391 2020-06-30 11:24:13 Terrasse 18.70 18.17 59.30
28390 2020-06-30 10:55:59 Terrasse 18.90 18.40 59.50
28389 2020-06-30 10:27:47 Terrasse 19.90 19.48 58.60
28388 2020-06-30 09:59:22 Terrasse 18.30 17.79 61.40
28387 2020-06-30 09:31:05 Terrasse 18.00 17.51 63.50
28386 2020-06-30 09:02:39 Terrasse 16.60 16.07 67.10
28385 2020-06-30 08:34:18 Terrasse 15.50 14.91 69.00
28384 2020-06-30 08:06:00 Terrasse 14.90 14.27 69.80
28383 2020-06-30 07:37:44 Terrasse 14.60 13.97 70.90
28382 2020-06-30 07:09:28 Terrasse 14.30 13.60 69.40
28381 2020-06-30 06:41:12 Terrasse 14.10 13.31 67.00
28380 2020-06-30 06:12:58 Terrasse 13.90 13.08 66.40
28379 2020-06-30 05:44:44 Terrasse 14.10 13.26 65.00
28378 2020-06-30 05:16:31 Terrasse 14.30 13.45 63.90
28377 2020-06-30 04:48:17 Terrasse 14.70 13.85 62.20
28376 2020-06-30 04:20:05 Terrasse 15.30 14.45 59.80
28375 2020-06-30 03:51:52 Terrasse 15.70 14.81 57.00
28374 2020-06-30 03:23:38 Terrasse 16.00 15.12 56.20
28373 2020-06-30 02:55:25 Terrasse 16.30 15.44 55.60
28372 2020-06-30 02:27:11 Terrasse 16.40 15.55 55.60
28371 2020-06-30 01:58:56 Terrasse 16.40 15.53 55.00
28370 2020-06-30 01:30:40 Terrasse 16.50 15.63 54.40
28369 2020-06-30 01:02:28 Terrasse 16.70 15.84 54.20
28368 2020-06-30 00:34:15 Terrasse 17.00 16.14 53.20
28367 2020-06-30 00:06:01 Terrasse 17.40 16.56 52.40
28366 2020-06-29 23:37:48 Terrasse 17.70 16.87 51.60
28365 2020-06-29 23:09:33 Terrasse 18.00 17.18 50.80
28364 2020-06-29 22:41:20 Terrasse 18.50 17.71 50.10
28363 2020-06-29 22:13:08 Terrasse 19.00 18.24 49.10
28362 2020-06-29 21:44:56 Terrasse 19.60 18.88 48.30
28361 2020-06-29 21:16:45 Terrasse 20.20 19.53 48.00
28360 2020-06-29 20:48:32 Terrasse 20.90 20.32 48.80
28359 2020-06-29 20:20:18 Terrasse 21.30 20.75 48.30
28358 2020-06-29 19:52:04 Terrasse 21.70 21.17 47.50
28357 2020-06-29 19:23:49 Terrasse 22.20 21.65 44.80
28356 2020-06-29 18:55:33 Terrasse 22.70 22.24 46.50
28355 2020-06-29 18:27:18 Terrasse 23.00 22.55 45.60
28354 2020-06-29 17:59:02 Terrasse 23.40 23.05 47.90
28353 2020-06-29 17:30:48 Terrasse 24.00 23.70 47.60
28352 2020-06-29 17:02:31 Terrasse 24.10 23.84 49.00
28351 2020-06-29 16:34:13 Terrasse 24.20 23.99 50.40
28350 2020-06-29 16:05:58 Terrasse 24.70 24.57 51.60
28349 2020-06-29 15:37:33 Terrasse 23.90 23.77 54.50
28348 2020-06-29 15:09:14 Terrasse 23.60 23.48 56.00
28347 2020-06-29 14:41:05 Terrasse 24.70 24.77 59.10
28346 2020-06-29 14:12:49 Terrasse 25.30 25.59 65.30
28345 2020-06-29 13:44:29 Terrasse 24.00 24.15 65.00
28344 2020-06-29 13:16:06 Terrasse 24.10 24.34 68.10
28343 2020-06-29 12:47:26 Terrasse 21.90 22.34 84.20
28342 2020-06-29 12:19:19 Terrasse 20.80 21.15 85.00
28341 2020-06-29 11:50:53 Terrasse 19.80 20.42 98.90
28340 2020-06-29 11:22:01 Terrasse 15.70 15.93 99.90
28339 2020-06-29 10:53:49 Terrasse 15.00 15.16 99.90
28338 2020-06-29 10:25:38 Terrasse 15.80 16.04 99.90
28337 2020-06-29 09:57:24 Terrasse 16.60 16.92 99.90
28336 2020-06-29 09:29:07 Terrasse 16.20 16.48 99.90
28335 2020-06-29 09:00:50 Terrasse 16.00 16.26 99.90
28334 2020-06-29 08:32:33 Terrasse 15.80 16.04 99.90
28333 2020-06-29 08:04:16 Terrasse 15.70 15.93 99.90
28332 2020-06-29 07:35:59 Terrasse 15.30 15.49 99.90
28331 2020-06-29 07:07:43 Terrasse 15.10 15.27 99.90
28330 2020-06-29 06:39:25 Terrasse 15.10 15.27 99.90
28329 2020-06-29 06:11:09 Terrasse 15.00 15.16 99.90
28328 2020-06-29 05:42:53 Terrasse 14.90 15.05 99.90
28327 2020-06-29 05:14:37 Terrasse 14.80 14.94 99.90
28326 2020-06-29 04:46:22 Terrasse 14.90 15.05 99.90
28325 2020-06-29 04:18:05 Terrasse 14.80 14.94 99.90
28324 2020-06-29 03:49:49 Terrasse 15.00 15.16 99.90
28323 2020-06-29 03:21:34 Terrasse 15.10 15.27 99.90
28322 2020-06-29 02:53:19 Terrasse 15.10 15.27 99.90
28321 2020-06-29 02:25:04 Terrasse 15.30 15.49 99.90
28320 2020-06-29 01:56:50 Terrasse 15.50 15.71 99.90
28319 2020-06-29 01:28:36 Terrasse 15.70 15.93 99.90
28318 2020-06-29 01:00:23 Terrasse 16.10 16.37 99.90
28317 2020-06-29 00:32:09 Terrasse 16.50 16.81 99.90
28316 2020-06-29 00:03:55 Terrasse 16.90 17.25 99.90
28315 2020-06-28 23:35:41 Terrasse 17.20 17.58 99.90
28314 2020-06-28 23:07:28 Terrasse 17.60 18.02 99.90
28313 2020-06-28 22:39:13 Terrasse 17.80 18.24 99.90
28312 2020-06-28 22:10:58 Terrasse 18.20 18.68 99.90
28311 2020-06-28 21:42:44 Terrasse 18.60 19.00 95.30
28310 2020-06-28 21:14:29 Terrasse 18.70 18.72 80.40
28309 2020-06-28 20:46:15 Terrasse 18.90 18.88 78.00
28308 2020-06-28 20:18:03 Terrasse 19.10 19.08 77.20
28307 2020-06-28 19:49:49 Terrasse 19.60 19.58 75.30
28306 2020-06-28 19:21:31 Terrasse 19.50 19.49 76.10
28305 2020-06-28 18:53:16 Terrasse 19.50 19.49 75.90
28304 2020-06-28 18:25:03 Terrasse 19.70 19.75 77.60
28303 2020-06-28 17:56:46 Terrasse 19.60 19.73 80.80
28302 2020-06-28 17:28:29 Terrasse 19.60 19.93 88.60
28301 2020-06-28 17:00:14 Terrasse 19.70 20.17 93.50
28300 2020-06-28 16:32:00 Terrasse 20.20 20.28 76.80
28299 2020-06-28 16:03:49 Terrasse 20.90 20.79 67.00
28298 2020-06-28 15:35:34 Terrasse 21.30 21.09 61.30
28297 2020-06-28 15:07:17 Terrasse 21.40 21.18 60.50
28296 2020-06-28 14:39:04 Terrasse 21.80 21.60 60.10
28295 2020-06-28 14:10:50 Terrasse 22.30 22.15 59.80
28294 2020-06-28 13:42:34 Terrasse 22.70 22.57 59.10
28293 2020-06-28 13:14:17 Terrasse 22.40 22.23 58.60
28292 2020-06-28 12:46:03 Terrasse 22.80 22.68 59.00
28291 2020-06-28 12:17:46 Terrasse 22.80 22.71 60.20
28290 2020-06-28 11:49:25 Terrasse 22.20 22.25 67.90
28289 2020-06-28 11:21:05 Terrasse 22.00 22.01 67.30
28288 2020-06-28 10:52:49 Terrasse 21.90 21.95 69.10
28287 2020-06-28 10:24:28 Terrasse 21.50 22.01 88.40
28286 2020-06-28 09:56:11 Terrasse 20.90 21.44 91.60
28285 2020-06-28 09:27:55 Terrasse 21.10 21.67 92.00
28284 2020-06-28 08:59:38 Terrasse 21.40 22.20 99.90
28283 2020-06-28 08:31:18 Terrasse 21.00 21.76 99.90
28282 2020-06-28 08:03:01 Terrasse 20.70 21.43 99.90
28281 2020-06-28 07:34:43 Terrasse 20.70 21.43 99.90
28280 2020-06-28 07:06:27 Terrasse 20.60 21.32 99.90
28279 2020-06-28 06:38:11 Terrasse 20.60 21.32 99.90
28278 2020-06-28 06:09:56 Terrasse 20.50 21.21 99.90
28277 2020-06-28 05:41:41 Terrasse 20.60 21.32 99.90
28276 2020-06-28 05:13:25 Terrasse 20.70 21.43 99.90
28275 2020-06-28 04:45:08 Terrasse 20.80 21.54 99.90
28274 2020-06-28 04:16:54 Terrasse 20.80 21.54 99.90
28273 2020-06-28 03:48:37 Terrasse 20.90 21.65 99.90
28272 2020-06-28 03:20:22 Terrasse 20.90 21.65 99.90
28271 2020-06-28 02:52:07 Terrasse 21.00 21.76 99.90
28270 2020-06-28 02:23:52 Terrasse 21.20 21.90 96.80
28269 2020-06-28 01:55:36 Terrasse 21.30 21.94 94.00
28268 2020-06-28 01:27:22 Terrasse 21.60 22.13 88.60
28267 2020-06-28 00:59:07 Terrasse 21.90 22.24 80.40
28266 2020-06-28 00:30:53 Terrasse 22.30 22.54 74.90
28265 2020-06-28 00:02:38 Terrasse 22.70 22.86 70.30
28264 2020-06-27 23:34:23 Terrasse 22.90 23.04 68.70
28263 2020-06-27 23:06:08 Terrasse 23.10 23.23 67.50
28262 2020-06-27 22:37:53 Terrasse 23.40 23.53 66.60
28261 2020-06-27 22:09:41 Terrasse 23.80 23.97 66.50
28260 2020-06-27 21:41:27 Terrasse 24.30 24.51 66.10
28259 2020-06-27 21:13:13 Terrasse 24.80 25.01 64.20
28258 2020-06-27 20:45:00 Terrasse 25.30 25.58 64.80
28257 2020-06-27 20:16:46 Terrasse 25.80 26.06 62.40
28256 2020-06-27 19:48:33 Terrasse 26.30 27.33 61.60
28255 2020-06-27 19:20:19 Terrasse 26.80 27.86 60.40
28254 2020-06-27 18:52:01 Terrasse 26.60 27.65 61.00
28253 2020-06-27 18:23:44 Terrasse 26.70 27.78 61.10
28252 2020-06-27 17:55:28 Terrasse 26.80 27.94 61.60
28251 2020-06-27 17:27:12 Terrasse 27.10 28.44 63.00
28250 2020-06-27 16:58:58 Terrasse 27.40 28.70 61.10
28249 2020-06-27 16:30:40 Terrasse 27.40 29.03 64.70
28248 2020-06-27 16:02:24 Terrasse 27.40 29.06 65.00
28247 2020-06-27 15:33:56 Terrasse 26.00 27.59 78.00
28246 2020-06-27 15:05:40 Terrasse 26.00 27.67 80.20
28245 2020-06-27 14:37:17 Terrasse 25.10 25.92 86.50
28244 2020-06-27 14:09:00 Terrasse 25.10 25.93 86.80
28243 2020-06-27 13:40:43 Terrasse 25.30 26.32 92.30
28242 2020-06-27 13:12:11 Terrasse 23.80 24.84 99.90
28241 2020-06-27 12:43:54 Terrasse 23.40 24.40 99.90
28240 2020-06-27 12:15:40 Terrasse 23.80 24.84 99.90
28239 2020-06-27 11:47:31 Terrasse 24.60 25.72 99.90
28238 2020-06-27 11:18:51 Terrasse 23.00 23.96 99.90
28237 2020-06-27 10:50:36 Terrasse 22.80 23.74 99.90
28236 2020-06-27 10:22:22 Terrasse 23.50 24.51 99.90
28235 2020-06-27 09:53:59 Terrasse 22.30 23.19 99.90
28234 2020-06-27 09:25:34 Terrasse 20.80 21.54 99.90
28233 2020-06-27 08:57:16 Terrasse 20.20 20.88 99.90
28232 2020-06-27 08:29:07 Terrasse 20.40 21.10 99.90
28231 2020-06-27 08:01:00 Terrasse 21.00 21.76 99.90
28230 2020-06-27 07:32:39 Terrasse 20.90 21.65 99.90
28229 2020-06-27 07:04:21 Terrasse 20.70 21.43 99.90
28228 2020-06-27 06:36:01 Terrasse 20.30 20.99 99.90
28227 2020-06-27 06:07:42 Terrasse 19.90 20.55 99.90
28226 2020-06-27 05:39:26 Terrasse 19.80 20.44 99.90
28225 2020-06-27 05:11:12 Terrasse 20.00 20.66 99.90
28224 2020-06-27 04:42:56 Terrasse 20.20 20.88 99.90
28223 2020-06-27 04:14:41 Terrasse 20.50 21.21 99.90
28222 2020-06-27 03:46:25 Terrasse 20.70 21.43 99.90
28221 2020-06-27 03:18:10 Terrasse 21.00 21.76 99.90
28220 2020-06-27 02:49:54 Terrasse 21.30 21.99 96.00
28219 2020-06-27 02:21:39 Terrasse 21.70 22.32 91.80
28218 2020-06-27 01:53:24 Terrasse 22.00 22.50 85.80
28217 2020-06-27 01:25:08 Terrasse 22.20 22.56 79.80
28216 2020-06-27 00:56:51 Terrasse 22.40 22.68 76.20
28215 2020-06-27 00:28:34 Terrasse 22.50 22.69 72.30
28214 2020-06-27 00:00:18 Terrasse 22.70 22.84 69.50
28213 2020-06-26 23:32:03 Terrasse 23.10 23.23 67.70
28212 2020-06-26 23:03:50 Terrasse 23.70 23.72 61.10
28211 2020-06-26 22:35:35 Terrasse 24.30 24.31 58.50
28210 2020-06-26 22:07:18 Terrasse 24.60 24.59 56.40
28209 2020-06-26 21:39:02 Terrasse 24.80 24.77 55.00
28208 2020-06-26 21:10:48 Terrasse 25.30 25.36 56.50
28207 2020-06-26 20:42:34 Terrasse 25.80 25.93 57.30
28206 2020-06-26 20:14:19 Terrasse 26.00 26.79 56.30
28205 2020-06-26 19:46:03 Terrasse 26.40 27.09 54.40
28204 2020-06-26 19:17:55 Terrasse 27.80 28.16 49.20
28203 2020-06-26 18:49:40 Terrasse 29.10 29.49 47.50
28202 2020-06-26 18:21:25 Terrasse 29.70 30.07 46.10
28201 2020-06-26 17:53:10 Terrasse 30.00 30.18 44.00
28200 2020-06-26 17:24:53 Terrasse 30.30 30.51 43.60
28199 2020-06-26 16:56:37 Terrasse 30.60 30.88 43.40
28198 2020-06-26 16:28:23 Terrasse 31.10 31.41 42.40
28197 2020-06-26 16:00:11 Terrasse 32.10 32.76 41.80
28196 2020-06-26 15:31:55 Terrasse 32.10 32.82 42.10
28195 2020-06-26 15:03:36 Terrasse 32.40 33.55 43.40
28194 2020-06-26 14:35:17 Terrasse 31.90 32.49 42.00
28193 2020-06-26 14:07:05 Terrasse 32.80 33.60 40.60
28192 2020-06-26 13:38:54 Terrasse 33.10 34.87 44.00
28191 2020-06-26 13:10:28 Terrasse 32.70 34.28 44.40
28190 2020-06-26 12:41:51 Terrasse 29.40 29.77 46.70
28189 2020-06-26 12:13:35 Terrasse 29.00 29.28 46.70
28188 2020-06-26 11:45:12 Terrasse 28.30 28.95 51.60
28187 2020-06-26 11:16:47 Terrasse 27.10 27.62 51.60
28186 2020-06-26 10:48:15 Terrasse 25.40 25.54 59.30
28185 2020-06-26 10:19:46 Terrasse 23.90 23.96 61.80
28184 2020-06-26 09:51:21 Terrasse 22.70 22.71 64.40
28183 2020-06-26 09:22:56 Terrasse 21.60 21.55 66.40
28182 2020-06-26 08:54:31 Terrasse 20.50 20.34 66.60
28181 2020-06-26 08:26:10 Terrasse 19.70 19.53 69.30
28180 2020-06-26 07:57:50 Terrasse 19.40 19.21 69.50
28179 2020-06-26 07:29:33 Terrasse 19.30 19.05 67.70
28178 2020-06-26 07:01:15 Terrasse 19.20 18.94 67.60
28177 2020-06-26 06:32:59 Terrasse 19.00 18.73 68.00
28176 2020-06-26 06:04:42 Terrasse 19.00 18.71 67.20
28175 2020-06-26 05:36:26 Terrasse 19.10 18.81 66.70
28174 2020-06-26 05:08:10 Terrasse 19.20 18.90 66.00
28173 2020-06-26 04:39:53 Terrasse 19.30 19.01 65.90
28172 2020-06-26 04:11:39 Terrasse 19.30 18.99 65.40
28171 2020-06-26 03:43:23 Terrasse 19.50 19.20 64.80
28170 2020-06-26 03:15:07 Terrasse 19.70 19.43 65.10
28169 2020-06-26 02:46:53 Terrasse 19.90 19.64 64.80
28168 2020-06-26 02:18:37 Terrasse 20.00 19.75 64.90
28167 2020-06-26 01:50:22 Terrasse 20.10 19.85 64.50
28166 2020-06-26 01:22:07 Terrasse 20.40 20.20 65.10
28165 2020-06-26 00:53:56 Terrasse 20.60 20.43 65.50
28164 2020-06-26 00:25:40 Terrasse 20.90 20.75 65.20
28163 2020-06-25 23:57:26 Terrasse 21.20 21.05 64.20
28162 2020-06-25 23:29:12 Terrasse 21.60 21.47 63.30
28161 2020-06-25 23:01:00 Terrasse 21.80 21.64 61.50
28160 2020-06-25 22:32:44 Terrasse 22.20 22.06 60.70
28159 2020-06-25 22:04:30 Terrasse 22.60 22.47 59.60
28158 2020-06-25 21:36:17 Terrasse 23.20 23.11 58.60
28157 2020-06-25 21:08:03 Terrasse 23.80 23.73 57.30
28156 2020-06-25 20:39:49 Terrasse 24.20 24.26 60.80
28155 2020-06-25 20:11:33 Terrasse 24.60 24.68 59.80
28154 2020-06-25 19:43:18 Terrasse 25.00 25.07 58.00
28153 2020-06-25 19:15:02 Terrasse 25.40 25.53 58.90
28152 2020-06-25 18:46:45 Terrasse 25.50 25.60 57.30
28151 2020-06-25 18:18:30 Terrasse 25.80 25.92 56.80
28150 2020-06-25 17:50:11 Terrasse 26.20 27.00 56.80
28149 2020-06-25 17:21:54 Terrasse 26.20 27.01 57.00
28148 2020-06-25 16:53:34 Terrasse 26.10 27.04 60.20
28147 2020-06-25 16:25:15 Terrasse 25.80 26.02 60.60
28146 2020-06-25 15:56:54 Terrasse 25.10 25.29 62.40
28145 2020-06-25 15:28:36 Terrasse 24.80 24.96 62.10
28144 2020-06-25 15:00:21 Terrasse 25.10 25.31 63.10
28143 2020-06-25 14:32:05 Terrasse 25.80 26.01 60.40
28142 2020-06-25 14:03:50 Terrasse 26.10 27.00 59.10
28141 2020-06-25 13:35:30 Terrasse 25.40 25.54 59.00
28140 2020-06-25 13:07:19 Terrasse 25.70 25.82 57.40
28139 2020-06-25 12:39:04 Terrasse 26.40 27.19 56.50
28138 2020-06-25 12:10:57 Terrasse 26.50 27.25 55.70
28137 2020-06-25 11:42:47 Terrasse 27.40 28.13 54.30
28136 2020-06-25 11:14:34 Terrasse 27.40 28.00 52.60
28135 2020-06-25 10:46:03 Terrasse 26.00 26.80 56.60
28134 2020-06-25 10:17:43 Terrasse 24.50 24.54 58.60
28133 2020-06-25 09:49:22 Terrasse 23.40 23.32 58.40
28132 2020-06-25 09:20:55 Terrasse 22.30 22.20 61.70
28131 2020-06-25 08:52:30 Terrasse 21.20 21.00 62.30
28130 2020-06-25 08:24:10 Terrasse 20.50 20.19 60.50
28129 2020-06-25 07:55:51 Terrasse 20.10 19.73 60.00
28128 2020-06-25 07:27:32 Terrasse 19.80 19.45 61.70
28127 2020-06-25 06:59:15 Terrasse 19.60 19.21 60.90
28126 2020-06-25 06:30:57 Terrasse 19.60 19.21 61.00
28125 2020-06-25 06:02:39 Terrasse 19.60 19.19 60.20
28124 2020-06-25 05:34:23 Terrasse 19.60 19.16 59.30
28123 2020-06-25 05:06:07 Terrasse 19.80 19.37 58.70
28122 2020-06-25 04:37:50 Terrasse 19.90 19.47 58.20
28121 2020-06-25 04:09:34 Terrasse 20.10 19.67 57.50
28120 2020-06-25 03:41:18 Terrasse 20.30 19.86 56.40
28119 2020-06-25 03:13:03 Terrasse 20.70 20.28 55.60
28118 2020-06-25 02:44:49 Terrasse 21.00 20.59 54.80
28117 2020-06-25 02:16:34 Terrasse 21.20 20.78 53.90
28116 2020-06-25 01:48:19 Terrasse 21.60 21.19 52.80
28115 2020-06-25 01:20:04 Terrasse 21.90 21.50 52.00
28114 2020-06-25 00:51:49 Terrasse 22.10 21.70 51.30
28113 2020-06-25 00:23:34 Terrasse 22.40 22.03 51.00
28112 2020-06-24 23:55:21 Terrasse 22.80 22.44 50.00
28111 2020-06-24 23:27:07 Terrasse 23.20 22.86 49.10
28110 2020-06-24 22:58:52 Terrasse 23.50 23.18 48.90
28109 2020-06-24 22:30:37 Terrasse 23.90 23.61 48.30
28108 2020-06-24 22:02:24 Terrasse 24.40 24.14 47.60
28107 2020-06-24 21:34:10 Terrasse 24.80 24.60 48.50
28106 2020-06-24 21:05:57 Terrasse 25.50 25.41 50.10
28105 2020-06-24 20:37:42 Terrasse 26.10 26.00 47.30
28104 2020-06-24 20:09:27 Terrasse 26.60 26.75 43.80
28103 2020-06-24 19:41:14 Terrasse 27.20 27.12 42.00
28102 2020-06-24 19:12:59 Terrasse 27.60 27.34 40.20
28101 2020-06-24 18:44:43 Terrasse 28.00 27.55 38.30
28100 2020-06-24 18:16:27 Terrasse 28.50 27.97 38.10
28099 2020-06-24 17:48:11 Terrasse 28.90 28.34 38.00
28098 2020-06-24 17:19:56 Terrasse 29.20 28.60 37.70
28097 2020-06-24 16:51:38 Terrasse 29.60 29.08 38.40
28096 2020-06-24 16:23:24 Terrasse 29.90 29.22 36.60
28095 2020-06-24 15:55:08 Terrasse 30.50 29.98 37.50
28094 2020-06-24 15:26:52 Terrasse 30.70 30.08 36.40
28093 2020-06-24 14:58:36 Terrasse 31.30 30.70 35.70
28092 2020-06-24 14:30:22 Terrasse 32.10 31.48 34.20
28091 2020-06-24 14:02:12 Terrasse 33.00 32.46 33.00
28090 2020-06-24 13:34:00 Terrasse 33.10 32.54 32.70
28089 2020-06-24 13:05:23 Terrasse 32.00 31.17 32.90
28088 2020-06-24 12:36:56 Terrasse 29.00 28.39 37.50
28087 2020-06-24 12:08:40 Terrasse 29.00 28.56 39.50
28086 2020-06-24 11:40:17 Terrasse 28.40 27.99 39.50
28085 2020-06-24 11:11:54 Terrasse 27.10 27.06 42.30
28084 2020-06-24 10:43:25 Terrasse 25.30 25.10 46.40
28083 2020-06-24 10:14:57 Terrasse 24.00 23.67 46.50
28082 2020-06-24 09:46:38 Terrasse 22.90 22.43 45.50
28081 2020-06-24 09:18:13 Terrasse 21.80 21.30 48.30
28080 2020-06-24 08:49:48 Terrasse 20.70 20.10 48.90
28079 2020-06-24 08:21:31 Terrasse 20.00 19.33 48.80
28078 2020-06-24 07:53:11 Terrasse 19.60 18.92 50.00
28077 2020-06-24 07:24:53 Terrasse 19.20 18.52 51.50
28076 2020-06-24 06:56:39 Terrasse 19.00 18.34 53.20
28075 2020-06-24 06:28:22 Terrasse 18.90 18.21 52.40
28074 2020-06-24 06:00:07 Terrasse 19.10 18.42 52.00
28073 2020-06-24 05:31:53 Terrasse 19.40 18.72 50.70
28072 2020-06-24 05:03:39 Terrasse 19.70 19.05 50.70
28071 2020-06-24 04:35:23 Terrasse 19.90 19.30 51.80
28070 2020-06-24 04:07:08 Terrasse 20.20 19.59 50.50
28069 2020-06-24 03:38:52 Terrasse 20.40 19.80 50.10
28068 2020-06-24 03:10:36 Terrasse 20.60 20.02 50.00
28067 2020-06-24 02:42:20 Terrasse 20.90 20.34 49.40
28066 2020-06-24 02:14:04 Terrasse 21.00 20.44 49.30
28065 2020-06-24 01:45:48 Terrasse 21.20 20.63 47.90
28064 2020-06-24 01:17:33 Terrasse 21.40 20.83 47.40
28063 2020-06-24 00:49:18 Terrasse 21.60 21.05 47.30
28062 2020-06-24 00:21:03 Terrasse 21.90 21.37 46.80
28061 2020-06-23 23:52:47 Terrasse 22.40 21.92 46.90
28060 2020-06-23 23:24:33 Terrasse 22.70 22.25 46.90
28059 2020-06-23 22:56:17 Terrasse 23.00 22.63 49.00
28058 2020-06-23 22:28:02 Terrasse 23.30 22.97 49.10
28057 2020-06-23 21:59:57 Terrasse 23.70 23.39 48.50
28056 2020-06-23 21:31:40 Terrasse 24.30 24.01 46.90
28055 2020-06-23 21:03:25 Terrasse 24.90 24.64 45.60
28054 2020-06-23 20:35:12 Terrasse 25.40 25.19 45.60
28053 2020-06-23 20:06:57 Terrasse 26.00 25.84 45.20
28052 2020-06-23 19:38:44 Terrasse 26.70 26.81 43.50
28051 2020-06-23 19:10:32 Terrasse 27.30 27.22 42.40
28050 2020-06-23 18:42:17 Terrasse 27.90 27.54 39.40
28049 2020-06-23 18:14:01 Terrasse 28.40 27.91 38.50
28048 2020-06-23 17:45:45 Terrasse 28.80 28.20 37.50
28047 2020-06-23 17:17:30 Terrasse 29.30 28.68 37.40
28046 2020-06-23 16:49:20 Terrasse 30.30 29.74 37.40
28045 2020-06-23 16:21:09 Terrasse 31.00 30.80 39.20
28044 2020-06-23 15:53:00 Terrasse 33.00 33.31 37.70
28043 2020-06-23 15:24:44 Terrasse 36.90 38.72 33.70
28042 2020-06-23 14:56:31 Terrasse 46.20 54.94 27.40
28041 2020-06-23 14:28:18 Terrasse 42.70 48.27 29.20
28040 2020-06-23 14:00:03 Terrasse 50.30 63.42 25.70
28039 2020-06-23 13:31:34 Terrasse 49.90 64.21 27.30
28038 2020-06-23 13:02:48 Terrasse 42.70 50.61 32.90
28037 2020-06-23 12:34:19 Terrasse 32.70 33.74 42.00
28036 2020-06-23 12:05:57 Terrasse 34.00 35.77 41.30
28035 2020-06-23 11:37:34 Terrasse 31.70 32.80 45.20
28034 2020-06-23 11:09:19 Terrasse 26.50 27.12 53.10
28033 2020-06-23 10:40:51 Terrasse 24.80 24.85 57.90
28032 2020-06-23 10:12:23 Terrasse 23.20 23.09 58.10
28031 2020-06-23 09:44:01 Terrasse 22.00 21.84 60.60
28030 2020-06-23 09:15:37 Terrasse 20.90 20.72 64.10
28029 2020-06-23 08:47:13 Terrasse 19.70 19.47 67.00
28028 2020-06-23 08:18:51 Terrasse 18.80 18.59 71.20
28027 2020-06-23 07:50:32 Terrasse 18.10 17.98 77.30
28026 2020-06-23 07:22:14 Terrasse 17.60 17.66 86.00
28025 2020-06-23 06:53:57 Terrasse 17.30 17.32 85.60
28024 2020-06-23 06:25:41 Terrasse 17.40 17.22 77.40
28023 2020-06-23 05:57:25 Terrasse 17.50 17.25 74.30
28022 2020-06-23 05:29:10 Terrasse 17.80 17.51 71.90
28021 2020-06-23 05:00:56 Terrasse 18.00 17.71 71.00
28020 2020-06-23 04:32:41 Terrasse 18.10 17.81 70.60
28019 2020-06-23 04:04:26 Terrasse 18.20 17.85 68.00
28018 2020-06-23 03:36:17 Terrasse 18.20 17.79 65.80
28017 2020-06-23 03:08:00 Terrasse 18.30 17.92 66.30
28016 2020-06-23 02:39:45 Terrasse 18.50 18.11 65.30
28015 2020-06-23 02:11:32 Terrasse 18.80 18.41 64.10
28014 2020-06-23 01:43:17 Terrasse 19.20 18.80 62.10
28013 2020-06-23 01:15:02 Terrasse 19.20 18.85 64.00
28012 2020-06-23 00:46:47 Terrasse 19.40 19.04 63.10
28011 2020-06-23 00:18:30 Terrasse 19.70 19.41 64.70
28010 2020-06-22 23:50:15 Terrasse 20.00 19.74 64.70
28009 2020-06-22 23:22:00 Terrasse 20.40 20.13 62.70
28008 2020-06-22 22:53:46 Terrasse 20.80 20.56 62.10
28007 2020-06-22 22:25:33 Terrasse 21.40 21.22 62.10
28006 2020-06-22 21:57:20 Terrasse 22.10 21.97 61.60
28005 2020-06-22 21:29:09 Terrasse 23.10 23.02 59.60
28004 2020-06-22 21:00:57 Terrasse 23.90 23.85 57.50
28003 2020-06-22 20:32:42 Terrasse 24.40 24.38 57.00
28002 2020-06-22 20:04:28 Terrasse 24.90 24.98 58.90
28001 2020-06-22 19:36:12 Terrasse 25.50 25.56 55.70
28000 2020-06-22 19:08:00 Terrasse 26.40 27.12 55.10
27999 2020-06-22 18:39:47 Terrasse 26.90 27.57 54.10
27998 2020-06-22 18:11:32 Terrasse 27.20 27.88 54.00
27997 2020-06-22 17:43:17 Terrasse 27.60 28.27 53.20
27996 2020-06-22 17:15:03 Terrasse 27.70 28.41 53.50
27995 2020-06-22 16:46:49 Terrasse 28.30 29.00 52.00
27994 2020-06-22 16:18:38 Terrasse 28.70 29.66 53.30
27993 2020-06-22 15:50:32 Terrasse 30.00 31.24 51.20
27992 2020-06-22 15:22:16 Terrasse 30.50 31.86 50.30
27991 2020-06-22 14:53:57 Terrasse 32.10 34.50 49.80
27990 2020-06-22 14:25:48 Terrasse 30.70 32.64 52.70
27989 2020-06-22 13:57:19 Terrasse 31.00 33.36 53.60
27988 2020-06-22 13:28:44 Terrasse 26.60 27.70 61.80
27987 2020-06-22 13:00:12 Terrasse 25.10 25.54 71.90
27986 2020-06-22 12:31:44 Terrasse 22.80 23.33 84.20
27985 2020-06-22 12:03:22 Terrasse 21.70 22.16 85.50
27984 2020-06-22 11:34:58 Terrasse 20.80 21.32 91.30
27983 2020-06-22 11:06:41 Terrasse 20.90 21.42 91.10
27982 2020-06-22 10:38:21 Terrasse 20.50 21.08 94.90
27981 2020-06-22 10:10:05 Terrasse 20.50 21.18 98.60
27980 2020-06-22 09:41:44 Terrasse 19.90 20.55 99.90
27979 2020-06-22 09:13:23 Terrasse 19.30 19.89 99.90
27978 2020-06-22 08:45:07 Terrasse 19.00 19.56 99.90
27977 2020-06-22 08:16:49 Terrasse 19.00 19.56 99.90
27976 2020-06-22 07:48:32 Terrasse 19.10 19.47 92.10
27975 2020-06-22 07:20:18 Terrasse 19.20 19.37 84.00
27974 2020-06-22 06:52:00 Terrasse 19.10 19.19 81.50
27973 2020-06-22 06:23:43 Terrasse 18.90 19.00 82.70
27972 2020-06-22 05:55:25 Terrasse 18.80 18.82 79.90
27971 2020-06-22 05:27:09 Terrasse 18.70 18.64 77.30
27970 2020-06-22 04:58:53 Terrasse 18.90 18.80 74.70
27969 2020-06-22 04:30:37 Terrasse 18.90 18.74 72.60
27968 2020-06-22 04:02:21 Terrasse 19.20 19.02 70.50
27967 2020-06-22 03:34:05 Terrasse 19.50 19.30 68.80
27966 2020-06-22 03:05:48 Terrasse 19.30 19.10 69.50
27965 2020-06-22 02:37:34 Terrasse 19.50 19.27 67.60
27964 2020-06-22 02:09:31 Terrasse 20.20 19.97 64.80
27963 2020-06-22 01:41:12 Terrasse 20.30 20.05 63.90
27962 2020-06-22 01:12:58 Terrasse 20.60 20.34 62.10
27961 2020-06-22 00:44:44 Terrasse 21.10 20.85 60.50
27960 2020-06-22 00:16:29 Terrasse 21.30 21.06 60.40
27959 2020-06-21 23:48:16 Terrasse 21.50 21.26 59.70
27958 2020-06-21 23:20:02 Terrasse 21.70 21.48 59.40
27957 2020-06-21 22:51:47 Terrasse 22.00 21.79 58.70
27956 2020-06-21 22:23:38 Terrasse 22.40 22.22 58.50
27955 2020-06-21 21:55:30 Terrasse 22.50 22.29 57.00
27954 2020-06-21 21:27:15 Terrasse 23.00 22.88 58.30
27953 2020-06-21 20:59:00 Terrasse 23.60 23.50 57.00
27952 2020-06-21 20:30:48 Terrasse 23.90 23.88 58.80
27951 2020-06-21 20:02:35 Terrasse 24.60 24.46 51.40
27950 2020-06-21 19:34:23 Terrasse 25.20 25.08 49.80
27949 2020-06-21 19:06:06 Terrasse 25.60 25.49 48.70
27948 2020-06-21 18:37:52 Terrasse 25.70 25.63 49.80
27947 2020-06-21 18:09:37 Terrasse 26.10 26.10 51.10
27946 2020-06-21 17:41:23 Terrasse 26.40 26.85 49.20
27945 2020-06-21 17:13:05 Terrasse 26.30 26.74 48.70
27944 2020-06-21 16:44:49 Terrasse 26.70 27.17 50.60
27943 2020-06-21 16:16:39 Terrasse 27.00 27.31 48.20
27942 2020-06-21 15:48:22 Terrasse 27.90 28.20 48.40
27941 2020-06-21 15:20:08 Terrasse 27.60 27.95 49.10
27940 2020-06-21 14:51:58 Terrasse 28.60 28.92 47.80
27939 2020-06-21 14:23:41 Terrasse 28.20 28.57 48.90
27938 2020-06-21 13:55:33 Terrasse 29.40 29.62 45.50
27937 2020-06-21 13:27:15 Terrasse 29.40 29.87 47.50
27936 2020-06-21 12:58:39 Terrasse 27.40 27.90 51.30
27935 2020-06-21 12:30:23 Terrasse 25.60 25.60 52.90
27934 2020-06-21 12:01:57 Terrasse 25.00 25.01 55.80
27933 2020-06-21 11:33:42 Terrasse 23.40 23.28 57.00
27932 2020-06-21 11:05:20 Terrasse 23.40 23.31 58.10
27931 2020-06-21 10:36:49 Terrasse 22.50 22.46 63.40
27930 2020-06-21 10:08:24 Terrasse 20.90 20.79 66.70
27929 2020-06-21 09:40:04 Terrasse 19.90 19.73 68.50
27928 2020-06-21 09:11:38 Terrasse 19.10 19.06 76.30
27927 2020-06-21 08:43:15 Terrasse 17.80 17.66 77.60
27926 2020-06-21 08:14:54 Terrasse 17.10 17.24 90.80
27925 2020-06-21 07:46:34 Terrasse 16.60 16.92 99.70
27924 2020-06-21 07:18:16 Terrasse 16.20 16.48 99.60
27923 2020-06-21 06:49:59 Terrasse 15.80 15.91 94.60
27922 2020-06-21 06:21:42 Terrasse 15.60 15.57 90.00
27921 2020-06-21 05:53:26 Terrasse 15.60 15.35 81.80
27920 2020-06-21 05:25:11 Terrasse 15.70 15.30 75.60
27919 2020-06-21 04:57:06 Terrasse 16.00 15.52 71.40
27918 2020-06-21 04:28:48 Terrasse 16.20 15.68 69.00
27917 2020-06-21 04:00:40 Terrasse 16.50 15.95 67.00
27916 2020-06-21 03:32:25 Terrasse 16.80 16.25 65.60
27915 2020-06-21 03:04:11 Terrasse 17.20 16.62 62.80
27914 2020-06-21 02:35:56 Terrasse 17.70 17.16 62.70
27913 2020-06-21 02:07:41 Terrasse 17.70 17.14 62.00
27912 2020-06-21 01:39:27 Terrasse 17.80 17.27 62.50
27911 2020-06-21 01:11:12 Terrasse 17.80 17.27 62.60
27910 2020-06-21 00:42:58 Terrasse 18.10 17.58 61.90
27909 2020-06-21 00:14:46 Terrasse 18.30 17.80 61.70
27908 2020-06-20 23:46:32 Terrasse 18.80 18.31 60.40
27907 2020-06-20 23:18:20 Terrasse 19.30 18.81 58.20
27906 2020-06-20 22:50:06 Terrasse 19.80 19.35 57.90
27905 2020-06-20 22:21:53 Terrasse 20.20 19.79 58.00
27904 2020-06-20 21:53:38 Terrasse 20.40 20.00 57.70
27903 2020-06-20 21:25:24 Terrasse 20.60 20.22 57.70
27902 2020-06-20 20:57:11 Terrasse 20.90 20.57 58.30
27901 2020-06-20 20:29:00 Terrasse 21.80 21.59 59.40
27900 2020-06-20 20:00:47 Terrasse 22.60 22.38 56.10
27899 2020-06-20 19:32:33 Terrasse 22.80 22.53 53.60
27898 2020-06-20 19:04:18 Terrasse 23.00 22.75 53.50
27897 2020-06-20 18:36:03 Terrasse 23.60 23.45 55.00
27896 2020-06-20 18:07:47 Terrasse 23.60 23.46 55.40
27895 2020-06-20 17:39:31 Terrasse 23.80 23.72 56.90
27894 2020-06-20 17:11:20 Terrasse 24.70 24.67 55.20
27893 2020-06-20 16:43:08 Terrasse 25.00 24.98 54.70
27892 2020-06-20 16:14:52 Terrasse 25.10 25.12 55.80
27891 2020-06-20 15:46:35 Terrasse 25.40 25.45 55.80
27890 2020-06-20 15:18:24 Terrasse 25.70 25.75 54.50
27889 2020-06-20 14:50:08 Terrasse 25.40 25.43 54.90
27888 2020-06-20 14:22:02 Terrasse 27.70 27.99 48.30
27887 2020-06-20 13:53:38 Terrasse 26.80 27.22 49.70
27886 2020-06-20 13:25:39 Terrasse 28.70 28.87 46.10
27885 2020-06-20 12:57:03 Terrasse 26.90 27.42 51.70
27884 2020-06-20 12:28:51 Terrasse 25.80 25.83 53.40
27883 2020-06-20 12:00:26 Terrasse 24.80 24.86 58.30
27882 2020-06-20 11:32:02 Terrasse 22.90 22.80 59.70
27881 2020-06-20 11:03:50 Terrasse 24.20 24.37 64.90
27880 2020-06-20 10:35:17 Terrasse 22.00 21.98 66.00
27879 2020-06-20 10:06:56 Terrasse 21.40 21.48 72.00
27878 2020-06-20 09:38:33 Terrasse 20.20 20.36 80.00
27877 2020-06-20 09:10:10 Terrasse 19.20 19.61 93.40
27876 2020-06-20 08:41:49 Terrasse 18.20 18.68 99.90
27875 2020-06-20 08:13:31 Terrasse 17.60 18.02 99.90
27874 2020-06-20 07:45:11 Terrasse 17.00 17.36 99.90
27873 2020-06-20 07:16:54 Terrasse 16.40 16.70 99.90
27872 2020-06-20 06:48:37 Terrasse 16.20 16.48 99.90
27871 2020-06-20 06:20:21 Terrasse 16.30 16.59 99.90
27870 2020-06-20 05:52:06 Terrasse 16.60 16.92 99.90
27869 2020-06-20 05:23:51 Terrasse 17.00 17.36 99.90
27868 2020-06-20 04:55:37 Terrasse 17.30 17.63 97.40
27867 2020-06-20 04:27:21 Terrasse 17.50 17.70 91.60
27866 2020-06-20 03:59:07 Terrasse 17.50 17.72 92.30
27865 2020-06-20 03:30:53 Terrasse 17.60 17.81 91.60
27864 2020-06-20 03:02:39 Terrasse 17.90 18.03 87.60
27863 2020-06-20 02:34:24 Terrasse 18.10 18.12 82.60
27862 2020-06-20 02:06:09 Terrasse 18.20 18.19 80.90
27861 2020-06-20 01:37:54 Terrasse 18.30 18.27 79.90
27860 2020-06-20 01:09:37 Terrasse 18.10 18.13 82.90
27859 2020-06-20 00:41:23 Terrasse 18.40 18.26 75.20
27858 2020-06-20 00:13:07 Terrasse 18.70 18.47 70.60
27857 2020-06-19 23:44:51 Terrasse 19.00 18.70 66.90
27856 2020-06-19 23:16:36 Terrasse 19.20 18.86 64.40
27855 2020-06-19 22:48:21 Terrasse 19.40 19.13 66.40
27854 2020-06-19 22:20:07 Terrasse 19.60 19.36 66.80
27853 2020-06-19 21:51:52 Terrasse 19.90 19.63 64.60
27852 2020-06-19 21:23:39 Terrasse 20.20 19.94 63.90
27851 2020-06-19 20:55:27 Terrasse 20.50 20.24 62.60
27850 2020-06-19 20:27:13 Terrasse 21.00 20.75 60.90
27849 2020-06-19 19:59:06 Terrasse 21.30 21.03 59.10
27848 2020-06-19 19:30:49 Terrasse 21.70 21.48 59.60
27847 2020-06-19 19:02:35 Terrasse 22.20 22.01 58.90
27846 2020-06-19 18:34:23 Terrasse 22.70 22.61 60.80
27845 2020-06-19 18:06:10 Terrasse 23.40 23.33 58.60
27844 2020-06-19 17:37:54 Terrasse 23.40 23.38 60.70
27843 2020-06-19 17:09:43 Terrasse 24.30 24.19 53.80
27842 2020-06-19 16:41:27 Terrasse 24.60 24.60 56.80
27841 2020-06-19 16:13:13 Terrasse 24.50 24.51 57.80
27840 2020-06-19 15:44:54 Terrasse 24.70 24.63 53.70
27839 2020-06-19 15:16:32 Terrasse 23.60 23.55 58.70
27838 2020-06-19 14:48:14 Terrasse 23.50 23.47 60.10
27837 2020-06-19 14:20:01 Terrasse 23.30 23.27 60.70
27836 2020-06-19 13:51:41 Terrasse 22.90 22.86 62.00
27835 2020-06-19 13:23:22 Terrasse 22.40 22.29 61.20
27834 2020-06-19 12:55:06 Terrasse 21.80 21.64 61.40
27833 2020-06-19 12:26:52 Terrasse 22.10 22.04 64.30
27832 2020-06-19 11:58:34 Terrasse 21.70 21.72 68.70
27831 2020-06-19 11:30:13 Terrasse 20.70 20.69 71.30
27830 2020-06-19 11:01:57 Terrasse 20.50 20.45 70.80
27829 2020-06-19 10:33:48 Terrasse 21.40 21.48 72.10
27828 2020-06-19 10:05:26 Terrasse 21.10 21.18 73.50
27827 2020-06-19 09:37:03 Terrasse 19.80 20.02 83.70
27826 2020-06-19 09:08:39 Terrasse 18.90 19.28 93.20
27825 2020-06-19 08:40:18 Terrasse 17.80 18.24 99.90
27824 2020-06-19 08:11:59 Terrasse 17.20 17.58 99.90
27823 2020-06-19 07:43:41 Terrasse 16.70 17.03 99.90
27822 2020-06-19 07:15:25 Terrasse 16.40 16.70 99.90
27821 2020-06-19 06:47:08 Terrasse 16.20 16.48 99.90
27820 2020-06-19 06:18:54 Terrasse 16.10 16.37 99.90
27819 2020-06-19 05:50:39 Terrasse 16.10 16.37 99.90
27818 2020-06-19 05:22:25 Terrasse 16.30 16.59 99.90
27817 2020-06-19 04:54:10 Terrasse 16.50 16.81 99.90
27816 2020-06-19 04:25:56 Terrasse 16.50 16.81 99.90
27815 2020-06-19 03:57:40 Terrasse 16.50 16.81 99.90
27814 2020-06-19 03:29:25 Terrasse 16.50 16.81 99.90
27813 2020-06-19 03:01:10 Terrasse 16.50 16.81 99.90
27812 2020-06-19 02:32:53 Terrasse 16.50 16.81 99.90
27811 2020-06-19 02:04:39 Terrasse 16.50 16.81 99.90
27810 2020-06-19 01:36:25 Terrasse 16.60 16.92 99.90
27809 2020-06-19 01:08:12 Terrasse 17.10 17.47 99.90
27808 2020-06-19 00:39:58 Terrasse 17.00 17.36 99.90
27807 2020-06-19 00:11:44 Terrasse 17.30 17.69 99.90
27806 2020-06-18 23:43:31 Terrasse 17.50 17.91 99.90
27805 2020-06-18 23:15:17 Terrasse 18.00 18.46 99.90
27804 2020-06-18 22:47:04 Terrasse 18.40 18.90 99.90
27803 2020-06-18 22:18:52 Terrasse 18.70 19.23 99.90
27802 2020-06-18 21:50:39 Terrasse 19.10 19.67 99.90
27801 2020-06-18 21:22:25 Terrasse 19.40 20.00 99.90
27800 2020-06-18 20:54:11 Terrasse 19.90 20.51 98.30
27799 2020-06-18 20:25:57 Terrasse 20.50 20.69 79.70
27798 2020-06-18 19:57:42 Terrasse 20.70 20.90 79.40
27797 2020-06-18 19:29:30 Terrasse 21.10 21.14 71.70
27796 2020-06-18 19:01:16 Terrasse 21.50 21.55 70.70
27795 2020-06-18 18:33:02 Terrasse 21.80 21.81 68.10
27794 2020-06-18 18:04:49 Terrasse 22.30 22.38 68.80
27793 2020-06-18 17:36:30 Terrasse 21.90 21.99 70.70
27792 2020-06-18 17:08:12 Terrasse 21.50 21.74 78.10
27791 2020-06-18 16:39:57 Terrasse 21.20 21.76 91.20
27790 2020-06-18 16:11:41 Terrasse 20.40 21.10 99.90
27789 2020-06-18 15:43:35 Terrasse 20.40 21.10 99.90
27788 2020-06-18 15:15:19 Terrasse 20.80 21.29 90.20
27787 2020-06-18 14:47:01 Terrasse 20.50 20.89 87.50
27786 2020-06-18 14:18:49 Terrasse 20.70 20.88 78.80
27785 2020-06-18 13:50:35 Terrasse 20.90 21.10 78.50
27784 2020-06-18 13:22:25 Terrasse 21.40 21.59 76.20
27783 2020-06-18 12:54:05 Terrasse 21.40 21.68 79.90
27782 2020-06-18 12:25:53 Terrasse 21.70 22.23 88.20
27781 2020-06-18 11:57:43 Terrasse 21.50 22.12 92.30
27780 2020-06-18 11:29:29 Terrasse 22.00 22.69 93.10
27779 2020-06-18 11:00:57 Terrasse 20.00 20.66 99.90
27778 2020-06-18 10:32:36 Terrasse 19.40 20.00 99.90
27777 2020-06-18 10:04:15 Terrasse 18.90 19.45 99.90
27776 2020-06-18 09:35:54 Terrasse 18.20 18.68 99.90
27775 2020-06-18 09:07:31 Terrasse 17.00 17.36 99.90
27774 2020-06-18 08:39:10 Terrasse 16.10 16.37 99.90
27773 2020-06-18 08:10:51 Terrasse 15.60 15.82 99.90
27772 2020-06-18 07:42:35 Terrasse 15.40 15.60 99.90
27771 2020-06-18 07:14:19 Terrasse 15.50 15.71 99.90
27770 2020-06-18 06:46:04 Terrasse 15.40 15.60 99.90
27769 2020-06-18 06:17:48 Terrasse 15.40 15.60 99.90
27768 2020-06-18 05:49:33 Terrasse 15.50 15.71 99.90
27767 2020-06-18 05:21:18 Terrasse 15.40 15.60 99.90
27766 2020-06-18 04:53:06 Terrasse 15.50 15.71 99.90
27765 2020-06-18 04:24:51 Terrasse 15.60 15.82 99.90
27764 2020-06-18 03:56:37 Terrasse 15.70 15.93 99.90
27763 2020-06-18 03:28:23 Terrasse 15.90 16.15 99.90
27762 2020-06-18 03:00:16 Terrasse 16.10 16.37 99.90
27761 2020-06-18 02:32:00 Terrasse 16.20 16.48 99.90
27760 2020-06-18 02:03:45 Terrasse 16.40 16.70 99.90
27759 2020-06-18 01:35:34 Terrasse 16.90 17.25 99.90
27758 2020-06-18 01:07:19 Terrasse 17.20 17.58 99.90
27757 2020-06-18 00:39:05 Terrasse 17.20 17.58 99.90
27756 2020-06-18 00:10:51 Terrasse 17.40 17.80 99.90
27755 2020-06-17 23:42:37 Terrasse 17.60 18.02 99.90
27754 2020-06-17 23:14:23 Terrasse 17.70 18.13 99.90
27753 2020-06-17 22:46:10 Terrasse 17.90 18.35 99.90
27752 2020-06-17 22:17:56 Terrasse 18.10 18.57 99.90
27751 2020-06-17 21:49:42 Terrasse 18.40 18.90 99.90
27750 2020-06-17 21:21:30 Terrasse 18.60 19.12 99.90
27749 2020-06-17 20:53:15 Terrasse 18.90 19.45 99.90
27748 2020-06-17 20:25:01 Terrasse 19.10 19.67 99.90
27747 2020-06-17 19:56:49 Terrasse 19.70 20.33 99.90
27746 2020-06-17 19:28:37 Terrasse 20.20 20.88 99.90
27745 2020-06-17 19:00:25 Terrasse 20.80 21.54 99.90
27744 2020-06-17 18:32:15 Terrasse 21.50 22.31 99.90
27743 2020-06-17 18:04:06 Terrasse 22.50 23.41 99.90
27742 2020-06-17 17:35:56 Terrasse 23.50 24.51 99.90
27741 2020-06-17 17:07:51 Terrasse 25.30 26.03 82.00
27740 2020-06-17 16:39:42 Terrasse 26.60 28.23 70.40
27739 2020-06-17 16:11:27 Terrasse 26.80 28.36 67.70
27738 2020-06-17 15:43:05 Terrasse 26.50 28.29 74.10
27737 2020-06-17 15:14:47 Terrasse 25.50 26.72 79.10
27736 2020-06-17 14:46:50 Terrasse 28.40 30.34 62.20
27735 2020-06-17 14:18:37 Terrasse 28.50 31.02 65.80
27734 2020-06-17 13:50:21 Terrasse 27.30 29.31 69.40
27733 2020-06-17 13:21:56 Terrasse 28.60 32.09 71.30
27732 2020-06-17 12:53:31 Terrasse 26.20 28.06 80.10
27731 2020-06-17 12:25:11 Terrasse 25.00 25.93 90.90
27730 2020-06-17 11:56:54 Terrasse 24.20 25.28 99.90
27729 2020-06-17 11:28:30 Terrasse 23.10 24.07 99.90
27728 2020-06-17 11:00:07 Terrasse 21.90 22.75 99.90
27727 2020-06-17 10:31:38 Terrasse 20.50 21.21 99.90
27726 2020-06-17 10:03:16 Terrasse 19.40 20.00 99.90
27725 2020-06-17 09:34:55 Terrasse 18.70 19.23 99.90
27724 2020-06-17 09:06:36 Terrasse 18.20 18.68 99.90
27723 2020-06-17 08:38:15 Terrasse 17.60 18.02 99.90
27722 2020-06-17 08:09:54 Terrasse 16.90 17.25 99.90
27721 2020-06-17 07:41:34 Terrasse 16.20 16.48 99.90
27720 2020-06-17 07:13:24 Terrasse 15.70 15.93 99.90
27719 2020-06-17 06:45:04 Terrasse 15.30 15.49 99.90
27718 2020-06-17 06:16:47 Terrasse 15.20 15.38 99.90
27717 2020-06-17 05:48:31 Terrasse 15.00 15.16 99.90
27716 2020-06-17 05:20:16 Terrasse 15.10 15.27 99.90
27715 2020-06-17 04:52:00 Terrasse 15.20 15.38 99.90
27714 2020-06-17 04:23:45 Terrasse 15.20 15.38 99.90
27713 2020-06-17 03:55:30 Terrasse 15.20 15.38 99.90
27712 2020-06-17 03:27:16 Terrasse 15.50 15.71 99.90
27711 2020-06-17 02:59:03 Terrasse 15.70 15.93 99.90
27710 2020-06-17 02:30:48 Terrasse 16.00 16.26 99.90
27709 2020-06-17 02:02:35 Terrasse 16.20 16.48 99.90
27708 2020-06-17 01:34:19 Terrasse 16.20 16.48 99.90
27707 2020-06-17 01:06:04 Terrasse 16.30 16.59 99.90
27706 2020-06-17 00:09:43 Terrasse 16.60 16.92 99.90
27705 2020-06-16 23:41:29 Terrasse 16.60 16.92 99.90
27704 2020-06-16 23:13:14 Terrasse 16.60 16.92 99.90
27703 2020-06-16 22:45:00 Terrasse 16.80 17.14 99.90
27702 2020-06-16 22:16:47 Terrasse 17.10 17.47 99.90
27701 2020-06-16 21:48:33 Terrasse 17.50 17.91 99.90
27700 2020-06-16 21:20:19 Terrasse 17.90 18.35 99.90
27699 2020-06-16 20:52:04 Terrasse 18.30 18.79 99.90
27698 2020-06-16 20:23:52 Terrasse 18.40 18.90 99.90
27697 2020-06-16 19:55:39 Terrasse 18.80 19.34 99.90
27696 2020-06-16 19:27:24 Terrasse 19.00 19.56 99.90
27695 2020-06-16 18:59:09 Terrasse 19.30 19.89 99.90
27694 2020-06-16 18:30:53 Terrasse 19.30 19.89 99.90
27693 2020-06-16 18:02:38 Terrasse 19.30 19.89 99.90
27692 2020-06-16 17:34:22 Terrasse 19.30 19.89 99.90
27691 2020-06-16 17:06:09 Terrasse 19.60 20.22 99.90
27690 2020-06-16 16:37:53 Terrasse 19.60 20.22 99.90
27689 2020-06-16 16:09:35 Terrasse 19.20 19.78 99.90
27688 2020-06-16 15:41:17 Terrasse 18.70 19.23 99.90
27687 2020-06-16 15:13:02 Terrasse 18.50 19.01 99.90
27686 2020-06-16 14:44:49 Terrasse 18.90 19.45 99.90
27685 2020-06-16 14:16:36 Terrasse 19.50 20.11 99.90
27684 2020-06-16 13:48:20 Terrasse 19.60 20.22 99.90
27683 2020-06-16 13:20:01 Terrasse 19.20 19.78 99.90
27682 2020-06-16 12:51:47 Terrasse 19.10 19.67 99.90
27681 2020-06-16 12:23:33 Terrasse 19.20 19.78 99.90
27680 2020-06-16 11:55:17 Terrasse 19.10 19.67 99.90
27679 2020-06-16 11:27:01 Terrasse 18.90 19.45 99.90
27678 2020-06-16 10:58:44 Terrasse 18.80 19.34 99.90
27677 2020-06-16 10:30:25 Terrasse 18.40 18.90 99.90
27676 2020-06-16 10:02:09 Terrasse 18.30 18.79 99.90
27675 2020-06-16 09:33:51 Terrasse 17.90 18.35 99.90
27674 2020-06-16 09:05:34 Terrasse 17.50 17.91 99.90
27673 2020-06-16 08:37:17 Terrasse 17.10 17.47 99.90
27672 2020-06-16 08:09:00 Terrasse 17.00 17.36 99.90
27671 2020-06-16 07:40:45 Terrasse 16.90 17.25 99.90
27670 2020-06-16 07:12:29 Terrasse 16.70 17.03 99.90
27669 2020-06-16 06:44:13 Terrasse 16.50 16.81 99.90
27668 2020-06-16 06:15:56 Terrasse 16.30 16.59 99.90
27667 2020-06-16 05:47:51 Terrasse 16.30 16.59 99.90
27666 2020-06-16 05:19:33 Terrasse 16.30 16.59 99.90
27665 2020-06-16 04:51:19 Terrasse 16.30 16.59 99.90
27664 2020-06-16 04:23:05 Terrasse 16.40 16.70 99.90
27663 2020-06-16 03:54:51 Terrasse 16.50 16.81 99.90
27662 2020-06-16 03:26:37 Terrasse 16.50 16.81 99.90
27661 2020-06-16 02:58:24 Terrasse 16.70 17.03 99.90
27660 2020-06-16 02:30:10 Terrasse 16.90 17.25 99.90
27659 2020-06-16 02:01:54 Terrasse 16.90 17.25 99.90
27658 2020-06-16 01:33:39 Terrasse 17.00 17.36 99.90
27657 2020-06-16 01:05:25 Terrasse 17.10 17.47 99.90
27656 2020-06-16 00:37:12 Terrasse 17.30 17.69 99.90
27655 2020-06-16 00:08:57 Terrasse 17.40 17.80 99.90
27654 2020-06-15 23:40:42 Terrasse 17.60 18.02 99.90
27653 2020-06-15 23:12:28 Terrasse 17.70 18.13 99.90
27652 2020-06-15 22:44:12 Terrasse 17.80 18.24 99.90
27651 2020-06-15 22:15:57 Terrasse 17.90 18.35 99.90
27650 2020-06-15 21:47:43 Terrasse 18.10 18.57 99.90
27649 2020-06-15 21:19:29 Terrasse 18.40 18.90 99.90
27648 2020-06-15 20:51:16 Terrasse 18.60 19.12 99.90
27647 2020-06-15 20:23:02 Terrasse 18.80 19.34 99.90
27646 2020-06-15 19:54:49 Terrasse 19.10 19.67 99.90
27645 2020-06-15 19:26:36 Terrasse 19.40 20.00 99.90
27644 2020-06-15 18:58:23 Terrasse 19.60 20.22 99.90
27643 2020-06-15 18:30:06 Terrasse 19.50 20.11 99.90
27642 2020-06-15 18:01:51 Terrasse 19.40 20.00 99.90
27641 2020-06-15 17:33:35 Terrasse 19.50 20.11 99.90
27640 2020-06-15 17:05:19 Terrasse 19.40 20.00 99.90
27639 2020-06-15 16:37:04 Terrasse 19.50 20.11 99.90
27638 2020-06-15 16:08:48 Terrasse 19.30 19.89 99.90
27637 2020-06-15 15:40:32 Terrasse 19.40 20.00 99.90
27636 2020-06-15 15:12:17 Terrasse 19.40 19.98 99.00
27635 2020-06-15 14:44:02 Terrasse 19.50 20.00 95.40
27634 2020-06-15 14:15:49 Terrasse 19.80 20.38 97.60
27633 2020-06-15 13:47:31 Terrasse 19.50 20.00 95.70
27632 2020-06-15 13:19:13 Terrasse 19.30 19.87 99.00
27631 2020-06-15 12:50:54 Terrasse 18.80 19.30 98.10
27630 2020-06-15 12:22:37 Terrasse 18.40 18.85 97.80
27629 2020-06-15 11:54:22 Terrasse 18.30 18.79 99.90
27628 2020-06-15 11:26:04 Terrasse 18.10 18.57 99.90
27627 2020-06-15 10:57:46 Terrasse 17.90 18.35 99.90
27626 2020-06-15 10:29:31 Terrasse 17.60 17.98 98.30
27625 2020-06-15 10:01:16 Terrasse 17.70 18.13 99.90
27624 2020-06-15 09:33:01 Terrasse 17.70 18.13 99.90
27623 2020-06-15 09:04:45 Terrasse 17.50 17.91 99.90
27622 2020-06-15 08:36:28 Terrasse 17.10 17.47 99.90
27621 2020-06-15 08:08:10 Terrasse 16.90 17.25 99.90
27620 2020-06-15 07:39:55 Terrasse 16.80 17.14 99.90
27619 2020-06-15 07:11:39 Terrasse 16.80 17.14 99.90
27618 2020-06-15 06:43:24 Terrasse 16.70 17.03 99.90
27617 2020-06-15 06:15:09 Terrasse 16.70 17.03 99.90
27616 2020-06-15 05:46:53 Terrasse 16.80 17.14 99.90
27615 2020-06-15 05:18:39 Terrasse 16.90 17.25 99.90
27614 2020-06-15 04:50:25 Terrasse 16.90 17.25 99.90
27613 2020-06-15 04:22:10 Terrasse 17.00 17.36 99.90
27612 2020-06-15 03:53:56 Terrasse 17.00 17.36 99.90
27611 2020-06-15 03:25:40 Terrasse 17.10 17.47 99.90
27610 2020-06-15 02:57:26 Terrasse 17.20 17.58 99.90
27609 2020-06-15 02:29:11 Terrasse 17.30 17.69 99.90
27608 2020-06-15 02:00:56 Terrasse 17.40 17.80 99.90
27607 2020-06-15 01:32:42 Terrasse 17.60 18.02 99.90
27606 2020-06-15 01:04:29 Terrasse 17.70 18.13 99.90
27605 2020-06-15 00:36:14 Terrasse 17.80 18.24 99.90
27604 2020-06-15 00:08:00 Terrasse 17.90 18.35 99.90
27603 2020-06-14 23:39:46 Terrasse 18.10 18.57 99.90
27602 2020-06-14 23:11:31 Terrasse 18.20 18.68 99.90
27601 2020-06-14 22:43:18 Terrasse 18.40 18.90 99.90
27600 2020-06-14 22:15:04 Terrasse 18.60 19.12 99.90
27599 2020-06-14 21:46:49 Terrasse 18.70 19.23 99.90
27598 2020-06-14 21:18:37 Terrasse 18.90 19.27 92.90
27597 2020-06-14 20:50:25 Terrasse 19.20 19.46 87.50
27596 2020-06-14 20:22:12 Terrasse 19.40 19.57 83.40
27595 2020-06-14 19:54:10 Terrasse 19.80 19.95 80.90
27594 2020-06-14 19:25:55 Terrasse 20.10 20.23 79.20
27593 2020-06-14 18:57:40 Terrasse 20.20 20.42 82.30
27592 2020-06-14 18:29:27 Terrasse 20.50 20.81 84.50
27591 2020-06-14 18:01:16 Terrasse 20.70 20.92 80.10
27590 2020-06-14 17:33:03 Terrasse 20.90 20.96 73.50
27589 2020-06-14 17:04:50 Terrasse 21.20 21.44 78.90
27588 2020-06-14 16:36:35 Terrasse 21.10 21.45 83.50
27587 2020-06-14 16:08:19 Terrasse 20.90 21.37 89.00
27586 2020-06-14 15:40:04 Terrasse 21.00 21.52 90.70
27585 2020-06-14 15:11:47 Terrasse 20.90 21.49 93.60
27584 2020-06-14 14:43:30 Terrasse 20.40 21.03 96.90
27583 2020-06-14 14:15:10 Terrasse 19.90 20.51 98.30
27582 2020-06-14 13:46:57 Terrasse 19.70 20.26 97.10
27581 2020-06-14 13:18:42 Terrasse 19.60 20.16 97.40
27580 2020-06-14 12:50:27 Terrasse 19.70 20.33 99.90
27579 2020-06-14 12:22:11 Terrasse 19.50 20.11 99.90
27578 2020-06-14 11:53:59 Terrasse 19.70 20.32 99.40
27577 2020-06-14 11:25:48 Terrasse 20.30 20.82 93.10
27576 2020-06-14 10:57:50 Terrasse 22.20 22.65 83.30
27575 2020-06-14 10:29:25 Terrasse 20.50 21.14 97.10
27574 2020-06-14 10:01:12 Terrasse 20.40 21.04 97.30
27573 2020-06-14 09:33:23 Terrasse 23.90 24.70 90.30
27572 2020-06-14 09:33:08 Terrasse 23.60 24.62 99.90
27571 2020-06-14 09:32:53 Terrasse 23.50 23.94 77.90
27570 2020-06-14 09:25:09 Terrasse 20.60 20.82 80.60
27569 2020-06-13 22:10:25 Terrasse 23.30 23.11 54.70
27568 2020-06-13 21:42:09 Terrasse 23.60 23.43 54.20
27567 2020-06-13 21:13:52 Terrasse 24.00 23.85 53.30
27566 2020-06-13 20:45:34 Terrasse 24.50 24.38 52.70
27565 2020-06-13 20:17:17 Terrasse 24.90 24.79 51.60
27564 2020-06-13 19:49:04 Terrasse 25.60 25.55 51.00
27563 2020-06-13 19:20:44 Terrasse 25.80 25.75 50.50
27562 2020-06-13 18:52:27 Terrasse 26.30 26.83 50.70
27561 2020-06-13 18:24:11 Terrasse 27.00 27.37 49.20
27560 2020-06-13 17:55:52 Terrasse 27.30 27.57 47.90
27559 2020-06-13 17:27:35 Terrasse 27.80 28.14 48.90
27558 2020-06-13 16:59:17 Terrasse 28.40 28.91 50.00
27557 2020-06-13 16:30:58 Terrasse 28.60 29.08 49.30
27556 2020-06-13 16:02:50 Terrasse 29.50 30.46 50.90
27555 2020-06-13 15:34:31 Terrasse 30.20 31.43 50.50
27554 2020-06-13 15:06:17 Terrasse 30.30 32.01 52.90
27553 2020-06-13 14:37:47 Terrasse 30.40 32.40 54.10
27552 2020-06-13 14:09:20 Terrasse 29.10 30.56 55.70
27551 2020-06-13 13:40:57 Terrasse 28.10 29.08 55.30
27550 2020-06-13 13:12:26 Terrasse 27.20 28.35 60.10
27549 2020-06-13 12:43:50 Terrasse 24.00 24.38 73.70
27548 2020-06-13 12:15:25 Terrasse 23.50 24.21 88.40
27547 2020-06-13 11:46:56 Terrasse 22.00 22.74 95.10
27546 2020-06-13 11:18:31 Terrasse 21.10 21.76 95.50
27545 2020-06-13 10:50:11 Terrasse 21.10 21.68 92.30
27544 2020-06-13 10:21:50 Terrasse 21.10 21.45 83.80
27543 2020-06-13 09:53:30 Terrasse 21.10 21.30 78.00
27542 2020-06-13 09:25:08 Terrasse 20.90 21.10 78.60
27541 2020-06-13 08:56:38 Terrasse 20.00 20.31 86.20
27540 2020-06-13 08:28:18 Terrasse 19.20 19.54 90.50
27539 2020-06-13 07:59:58 Terrasse 19.30 19.49 84.60
27538 2020-06-13 07:31:39 Terrasse 19.50 19.41 72.90
27537 2020-06-13 07:03:21 Terrasse 19.60 19.41 68.80
27536 2020-06-13 06:35:01 Terrasse 19.40 19.10 65.30
27535 2020-06-13 06:06:40 Terrasse 19.40 19.10 65.10
27534 2020-06-13 05:38:25 Terrasse 19.40 19.12 65.90
27533 2020-06-13 05:10:05 Terrasse 19.40 19.17 67.80
27532 2020-06-13 04:41:47 Terrasse 19.40 19.20 69.10
27531 2020-06-13 04:13:27 Terrasse 19.60 19.38 67.70
27530 2020-06-13 03:45:09 Terrasse 19.90 19.69 67.00
27529 2020-06-13 03:16:52 Terrasse 20.30 20.11 66.10
27528 2020-06-13 02:48:36 Terrasse 20.90 20.69 62.90
27527 2020-06-13 02:20:18 Terrasse 21.20 20.99 62.00
27526 2020-06-13 01:51:58 Terrasse 21.50 21.32 61.80
27525 2020-06-13 01:23:37 Terrasse 21.60 21.40 60.80
27524 2020-06-13 00:55:19 Terrasse 21.70 21.48 59.50
27523 2020-06-13 00:26:59 Terrasse 21.80 21.56 58.30
27522 2020-06-12 23:58:39 Terrasse 22.00 21.78 58.20
27521 2020-06-12 23:30:20 Terrasse 22.20 22.01 58.80
27520 2020-06-12 23:02:03 Terrasse 22.50 22.34 58.60
27519 2020-06-12 22:33:45 Terrasse 22.80 22.71 60.20
27518 2020-06-12 22:05:29 Terrasse 23.20 23.14 60.00
27517 2020-06-12 21:37:12 Terrasse 23.70 23.68 59.50
27516 2020-06-12 21:08:57 Terrasse 24.20 24.21 58.70
27515 2020-06-12 20:40:40 Terrasse 24.80 24.83 57.20
27514 2020-06-12 20:12:22 Terrasse 25.30 25.34 55.60
27513 2020-06-12 19:44:06 Terrasse 26.00 26.07 54.00
27512 2020-06-12 19:15:51 Terrasse 26.70 27.32 53.30
27511 2020-06-12 18:47:31 Terrasse 27.30 27.90 52.70
27510 2020-06-12 18:19:11 Terrasse 27.40 28.09 53.80
27509 2020-06-12 17:50:51 Terrasse 27.70 28.26 51.70
27508 2020-06-12 17:22:32 Terrasse 28.10 28.81 52.60
27507 2020-06-12 16:54:15 Terrasse 28.30 29.11 53.10
27506 2020-06-12 16:25:52 Terrasse 28.30 29.21 54.00
27505 2020-06-12 15:57:42 Terrasse 29.80 30.83 50.50
27504 2020-06-12 15:29:21 Terrasse 31.30 33.44 51.50
27503 2020-06-12 15:01:13 Terrasse 31.90 34.74 52.30
27502 2020-06-12 14:32:45 Terrasse 30.80 32.78 52.50
27501 2020-06-12 14:04:43 Terrasse 33.80 38.77 52.40
27500 2020-06-12 13:36:13 Terrasse 32.80 37.05 54.00
27499 2020-06-12 13:07:37 Terrasse 30.40 33.55 59.70
27498 2020-06-12 12:38:54 Terrasse 27.20 29.53 73.50
27497 2020-06-12 12:10:32 Terrasse 26.30 28.28 80.40
27496 2020-06-12 11:42:08 Terrasse 25.60 27.06 90.70
27495 2020-06-12 11:13:36 Terrasse 24.00 25.05 99.50
27494 2020-06-12 10:45:01 Terrasse 22.20 23.08 99.90
27493 2020-06-12 10:16:28 Terrasse 20.50 21.21 99.90
27492 2020-06-12 09:48:00 Terrasse 19.20 19.78 99.90
27491 2020-06-12 09:19:31 Terrasse 18.10 18.57 99.90
27490 2020-06-12 08:51:01 Terrasse 16.70 17.03 99.90
27489 2020-06-12 08:22:36 Terrasse 15.80 16.04 99.90
27488 2020-06-12 07:54:16 Terrasse 15.40 15.60 99.90
27487 2020-06-12 07:25:54 Terrasse 15.20 15.38 99.90
27486 2020-06-12 06:57:35 Terrasse 14.90 15.05 99.90
27485 2020-06-12 06:29:20 Terrasse 14.70 14.83 99.90
27484 2020-06-12 06:00:58 Terrasse 14.70 14.83 99.90
27483 2020-06-12 05:32:55 Terrasse 14.60 14.72 99.90
27482 2020-06-12 05:04:31 Terrasse 14.60 14.72 99.90
27481 2020-06-12 04:36:14 Terrasse 14.70 14.83 99.90
27480 2020-06-12 04:07:55 Terrasse 14.90 15.05 99.90
27479 2020-06-12 03:39:36 Terrasse 15.00 15.16 99.90
27478 2020-06-12 03:11:17 Terrasse 15.00 15.16 99.90
27477 2020-06-12 02:42:57 Terrasse 15.10 15.27 99.90
27476 2020-06-12 02:14:39 Terrasse 15.20 15.38 99.90
27475 2020-06-12 01:46:20 Terrasse 15.40 15.60 99.90
27474 2020-06-12 01:18:01 Terrasse 15.20 15.38 99.90
27473 2020-06-12 00:49:42 Terrasse 15.30 15.49 99.90
27472 2020-06-12 00:21:25 Terrasse 15.50 15.71 99.90
27471 2020-06-11 23:53:04 Terrasse 15.50 15.71 99.90
27470 2020-06-11 23:24:46 Terrasse 15.50 15.71 99.90
27469 2020-06-11 22:56:29 Terrasse 15.80 16.04 99.90
27468 2020-06-11 22:28:11 Terrasse 16.00 16.26 99.90
27467 2020-06-11 21:59:53 Terrasse 16.30 16.59 99.90
27466 2020-06-11 21:31:36 Terrasse 16.50 16.81 99.90
27465 2020-06-11 21:03:19 Terrasse 17.00 17.36 99.90
27464 2020-06-11 20:35:02 Terrasse 17.30 17.69 99.90
27463 2020-06-11 20:06:44 Terrasse 17.40 17.80 99.90
27462 2020-06-11 19:38:26 Terrasse 17.60 18.02 99.90
27461 2020-06-11 19:10:08 Terrasse 17.90 18.35 99.90
27460 2020-06-11 18:41:50 Terrasse 17.90 18.35 99.90
27459 2020-06-11 18:13:30 Terrasse 17.80 18.24 99.90
27458 2020-06-11 17:45:10 Terrasse 17.80 18.24 99.90
27457 2020-06-11 17:16:53 Terrasse 18.20 18.68 99.90
27456 2020-06-11 16:48:34 Terrasse 17.90 18.35 99.90
27455 2020-06-11 16:20:16 Terrasse 18.00 18.46 99.90
27454 2020-06-11 15:52:00 Terrasse 18.40 18.90 99.90
27453 2020-06-11 15:23:42 Terrasse 18.70 19.22 99.40
27452 2020-06-11 14:55:27 Terrasse 19.20 19.65 94.80
27451 2020-06-11 14:27:11 Terrasse 20.00 20.34 87.60
27450 2020-06-11 13:59:06 Terrasse 21.50 21.87 82.80
27449 2020-06-11 13:30:46 Terrasse 20.50 21.09 95.30
27448 2020-06-11 13:02:11 Terrasse 18.40 18.90 99.90
27447 2020-06-11 12:33:50 Terrasse 18.30 18.79 99.90
27446 2020-06-11 12:05:40 Terrasse 18.70 19.23 99.90
27445 2020-06-11 11:37:28 Terrasse 19.60 20.22 99.90
27444 2020-06-11 11:08:55 Terrasse 18.50 19.01 99.90
27443 2020-06-11 10:40:28 Terrasse 17.10 17.47 99.90
27442 2020-06-11 10:12:04 Terrasse 16.50 16.81 99.90
27441 2020-06-11 09:43:37 Terrasse 15.70 15.93 99.90
27440 2020-06-11 09:15:13 Terrasse 14.90 15.05 99.90
27439 2020-06-11 08:46:53 Terrasse 14.70 14.83 99.90
27438 2020-06-11 08:18:33 Terrasse 14.60 14.72 99.90
27437 2020-06-11 07:50:14 Terrasse 14.50 14.61 99.90
27436 2020-06-11 07:21:53 Terrasse 14.30 14.39 99.90
27435 2020-06-11 06:53:33 Terrasse 14.20 14.28 99.90
27434 2020-06-11 06:25:13 Terrasse 14.20 14.28 99.90
27433 2020-06-11 05:56:54 Terrasse 14.10 14.17 99.90
27432 2020-06-11 05:28:36 Terrasse 14.20 14.28 99.90
27431 2020-06-11 05:00:18 Terrasse 14.30 14.39 99.90
27430 2020-06-11 04:32:00 Terrasse 14.30 14.39 99.90
27429 2020-06-11 04:03:40 Terrasse 14.30 14.39 99.90
27428 2020-06-11 03:35:22 Terrasse 14.30 14.39 99.90
27427 2020-06-11 03:07:05 Terrasse 14.50 14.61 99.90
27426 2020-06-11 02:38:47 Terrasse 14.60 14.72 99.90
27425 2020-06-11 02:10:28 Terrasse 14.70 14.83 99.90
27424 2020-06-11 01:42:10 Terrasse 14.80 14.94 99.90
27423 2020-06-11 01:13:52 Terrasse 15.00 15.16 99.90
27422 2020-06-11 00:45:34 Terrasse 15.30 15.49 99.90
27421 2020-06-11 00:17:17 Terrasse 15.60 15.82 99.90
27420 2020-06-10 23:48:58 Terrasse 15.80 16.04 99.90
27419 2020-06-10 23:20:41 Terrasse 15.90 16.15 99.90
27418 2020-06-10 22:52:23 Terrasse 16.20 16.48 99.90
27417 2020-06-10 22:24:06 Terrasse 16.30 16.59 99.90
27416 2020-06-10 21:55:49 Terrasse 16.60 16.92 99.90
27415 2020-06-10 21:27:32 Terrasse 17.00 17.34 99.10
27414 2020-06-10 20:59:16 Terrasse 17.40 17.72 96.50
27413 2020-06-10 20:30:58 Terrasse 17.80 18.01 91.10
27412 2020-06-10 20:02:41 Terrasse 18.30 18.38 84.10
27411 2020-06-10 19:34:33 Terrasse 18.80 18.87 81.80
27410 2020-06-10 19:06:12 Terrasse 19.00 19.07 80.90
27409 2020-06-10 18:37:55 Terrasse 19.30 19.35 79.10
27408 2020-06-10 18:09:37 Terrasse 19.50 19.46 74.80
27407 2020-06-10 17:41:19 Terrasse 19.80 19.92 79.70
27406 2020-06-10 17:12:59 Terrasse 19.80 20.05 84.80
27405 2020-06-10 16:44:37 Terrasse 19.50 19.74 85.70
27404 2020-06-10 16:16:12 Terrasse 18.40 18.66 90.40
27403 2020-06-10 15:47:52 Terrasse 18.30 18.31 81.30
27402 2020-06-10 15:19:33 Terrasse 18.40 18.42 81.20
27401 2020-06-10 14:51:14 Terrasse 18.40 18.42 81.20
27400 2020-06-10 14:22:47 Terrasse 17.70 18.03 95.90
27399 2020-06-10 13:54:20 Terrasse 16.60 16.92 99.90
27398 2020-06-10 13:25:56 Terrasse 15.70 15.93 99.90
27397 2020-06-10 12:57:37 Terrasse 15.50 15.71 99.90
27396 2020-06-10 12:29:14 Terrasse 15.20 15.38 99.90
27395 2020-06-10 12:00:53 Terrasse 14.80 14.94 99.90
27394 2020-06-10 11:32:34 Terrasse 14.70 14.83 99.90
27393 2020-06-10 11:04:15 Terrasse 14.70 14.83 99.90
27392 2020-06-10 10:35:57 Terrasse 14.70 14.83 99.90
27391 2020-06-10 10:07:38 Terrasse 14.90 15.05 99.90
27390 2020-06-10 09:39:21 Terrasse 15.10 15.27 99.90
27389 2020-06-10 09:11:01 Terrasse 15.20 15.38 99.90
27388 2020-06-10 08:42:44 Terrasse 15.10 15.27 99.90
27387 2020-06-10 08:14:25 Terrasse 15.10 15.27 99.90
27386 2020-06-10 07:46:04 Terrasse 15.00 15.16 99.90
27385 2020-06-10 07:17:47 Terrasse 15.00 15.16 99.90
27384 2020-06-10 06:49:27 Terrasse 14.80 14.94 99.90
27383 2020-06-10 06:21:08 Terrasse 14.70 14.83 99.90
27382 2020-06-10 05:52:50 Terrasse 14.70 14.83 99.90
27381 2020-06-10 05:24:32 Terrasse 14.80 14.94 99.90
27380 2020-06-10 04:56:15 Terrasse 14.90 15.05 99.90
27379 2020-06-10 04:27:56 Terrasse 14.90 15.05 99.90
27378 2020-06-10 03:59:37 Terrasse 14.90 15.05 99.90
27377 2020-06-10 03:31:20 Terrasse 15.00 15.16 99.90
27376 2020-06-10 03:03:02 Terrasse 15.20 15.38 99.90
27375 2020-06-10 02:34:44 Terrasse 15.30 15.49 99.90
27374 2020-06-10 02:06:25 Terrasse 15.40 15.60 99.90
27373 2020-06-10 01:38:06 Terrasse 15.50 15.71 99.90
27372 2020-06-10 01:09:48 Terrasse 15.60 15.82 99.90
27371 2020-06-10 00:41:28 Terrasse 15.70 15.93 99.90
27370 2020-06-10 00:13:09 Terrasse 15.80 16.04 99.90
27369 2020-06-09 23:44:49 Terrasse 15.90 16.15 99.90
27368 2020-06-09 23:16:31 Terrasse 16.00 16.26 99.90
27367 2020-06-09 22:48:12 Terrasse 16.40 16.70 99.90
27366 2020-06-09 22:19:53 Terrasse 16.80 16.90 90.50
27365 2020-06-09 21:51:34 Terrasse 16.90 16.87 85.30
27364 2020-06-09 21:23:15 Terrasse 17.20 17.30 89.10
27363 2020-06-09 20:54:58 Terrasse 17.50 17.39 80.00
27362 2020-06-09 20:26:40 Terrasse 18.00 17.77 73.20
27361 2020-06-09 19:58:23 Terrasse 18.40 18.12 69.80
27360 2020-06-09 19:30:03 Terrasse 18.70 18.36 66.60
27359 2020-06-09 19:01:46 Terrasse 18.80 18.47 66.30
27358 2020-06-09 18:33:28 Terrasse 19.30 18.95 63.70
27357 2020-06-09 18:05:13 Terrasse 20.10 19.72 59.50
27356 2020-06-09 17:36:56 Terrasse 20.80 20.47 58.60
27355 2020-06-09 17:08:38 Terrasse 21.10 20.79 58.40
27354 2020-06-09 16:40:20 Terrasse 21.40 21.16 60.00
27353 2020-06-09 16:11:57 Terrasse 21.10 20.91 63.10
27352 2020-06-09 15:43:34 Terrasse 20.80 20.56 62.40
27351 2020-06-09 15:15:08 Terrasse 20.00 19.76 65.30
27350 2020-06-09 14:46:42 Terrasse 19.40 19.14 67.00
27349 2020-06-09 14:18:26 Terrasse 18.80 18.48 66.90
27348 2020-06-09 13:50:05 Terrasse 18.90 18.57 65.90
27347 2020-06-09 13:21:43 Terrasse 18.50 18.22 69.40
27346 2020-06-09 12:53:23 Terrasse 18.40 18.07 68.00
27345 2020-06-09 12:25:08 Terrasse 19.00 18.62 63.80
27344 2020-06-09 11:56:56 Terrasse 19.80 19.48 63.00
27343 2020-06-09 11:28:37 Terrasse 19.90 19.64 64.80
27342 2020-06-09 11:00:08 Terrasse 18.70 18.48 71.10
27341 2020-06-09 10:31:42 Terrasse 17.70 17.44 73.30
27340 2020-06-09 10:03:21 Terrasse 17.20 17.12 82.20
27339 2020-06-09 09:34:54 Terrasse 15.90 16.15 99.90
27338 2020-06-09 09:06:31 Terrasse 15.10 15.27 99.90
27337 2020-06-09 08:38:08 Terrasse 14.60 14.72 99.90
27336 2020-06-09 08:09:48 Terrasse 14.10 14.17 99.90
27335 2020-06-09 07:41:27 Terrasse 13.70 13.73 99.90
27334 2020-06-09 07:13:22 Terrasse 13.40 13.40 99.90
27333 2020-06-09 06:44:57 Terrasse 13.10 13.07 99.90
27332 2020-06-09 06:16:40 Terrasse 13.00 12.96 99.90
27331 2020-06-09 05:48:23 Terrasse 13.20 13.18 99.90
27330 2020-06-09 05:20:05 Terrasse 13.20 13.17 99.20
27329 2020-06-09 04:51:49 Terrasse 13.20 13.18 99.80
27328 2020-06-09 04:23:31 Terrasse 13.20 13.16 98.80
27327 2020-06-09 03:55:14 Terrasse 13.30 13.28 99.40
27326 2020-06-09 03:26:56 Terrasse 13.40 13.35 98.00
27325 2020-06-09 02:58:41 Terrasse 13.60 13.59 98.60
27324 2020-06-09 02:30:23 Terrasse 13.60 13.57 97.90
27323 2020-06-09 02:02:05 Terrasse 13.70 13.56 93.20
27322 2020-06-09 01:33:48 Terrasse 13.90 13.76 92.50
27321 2020-06-09 01:05:31 Terrasse 14.10 14.03 94.50
27320 2020-06-09 00:37:14 Terrasse 14.30 14.19 92.20
27319 2020-06-09 00:08:56 Terrasse 14.40 14.26 90.60
27318 2020-06-08 23:40:39 Terrasse 14.80 14.71 90.80
27317 2020-06-08 23:12:22 Terrasse 14.90 14.68 85.40
27316 2020-06-08 22:44:05 Terrasse 15.00 14.82 86.70
27315 2020-06-08 22:15:50 Terrasse 15.20 15.07 88.00
27314 2020-06-08 21:47:32 Terrasse 15.60 15.51 87.90
27313 2020-06-08 21:19:17 Terrasse 16.00 15.94 87.40
27312 2020-06-08 20:51:01 Terrasse 16.60 16.67 90.00
27311 2020-06-08 20:22:46 Terrasse 17.10 17.20 89.40
27310 2020-06-08 19:54:31 Terrasse 17.70 17.95 93.00
27309 2020-06-08 19:26:14 Terrasse 18.00 18.28 92.70
27308 2020-06-08 18:57:53 Terrasse 17.90 18.30 97.80
27307 2020-06-08 18:29:34 Terrasse 17.80 18.02 91.30
27306 2020-06-08 18:01:18 Terrasse 18.40 18.15 71.00
27305 2020-06-08 17:33:06 Terrasse 19.60 19.26 62.90
27304 2020-06-08 17:04:54 Terrasse 20.90 20.30 48.20
27303 2020-06-08 16:36:44 Terrasse 22.50 22.05 47.60
27302 2020-06-08 16:08:30 Terrasse 23.00 22.59 47.30
27301 2020-06-08 15:40:09 Terrasse 23.50 23.06 44.30
27300 2020-06-08 15:11:44 Terrasse 22.80 22.32 45.50
27299 2020-06-08 14:43:29 Terrasse 23.40 22.95 44.40
27298 2020-06-08 14:15:22 Terrasse 25.30 25.14 48.10
27297 2020-06-08 13:46:41 Terrasse 23.50 23.26 51.80
27296 2020-06-08 13:18:06 Terrasse 20.70 20.28 55.90
27295 2020-06-08 12:49:36 Terrasse 19.20 18.68 57.70
27294 2020-06-08 12:21:11 Terrasse 18.40 17.82 58.40
27293 2020-06-08 11:52:58 Terrasse 19.30 18.82 58.70
27292 2020-06-08 11:24:41 Terrasse 19.30 18.95 63.60
27291 2020-06-08 10:56:09 Terrasse 17.80 17.43 68.60
27290 2020-06-08 10:27:46 Terrasse 17.10 16.72 71.20
27289 2020-06-08 09:59:25 Terrasse 16.90 16.76 80.90
27288 2020-06-08 09:31:01 Terrasse 16.00 15.80 82.20
27287 2020-06-08 09:02:35 Terrasse 14.60 14.72 99.90
27286 2020-06-08 08:34:12 Terrasse 13.80 13.84 99.90
27285 2020-06-08 08:05:50 Terrasse 13.20 13.18 99.90
27284 2020-06-08 07:37:28 Terrasse 12.60 12.52 99.90
27283 2020-06-08 07:09:06 Terrasse 12.20 12.08 99.90
27282 2020-06-08 06:40:47 Terrasse 11.80 11.64 99.90
27281 2020-06-08 06:12:26 Terrasse 11.60 11.42 99.90
27280 2020-06-08 05:44:10 Terrasse 11.70 11.45 96.60
27279 2020-06-08 05:15:52 Terrasse 11.70 11.47 97.40
27278 2020-06-08 04:47:34 Terrasse 11.70 11.43 96.10
27277 2020-06-08 04:19:17 Terrasse 11.90 11.58 93.40
27276 2020-06-08 03:51:00 Terrasse 12.10 11.77 92.10
27275 2020-06-08 03:22:43 Terrasse 12.20 11.72 86.00
27274 2020-06-08 02:54:25 Terrasse 12.30 11.69 80.50
27273 2020-06-08 02:26:08 Terrasse 12.60 12.06 82.20
27272 2020-06-08 01:57:52 Terrasse 12.80 12.25 80.80
27271 2020-06-08 01:29:36 Terrasse 13.00 12.38 77.60
27270 2020-06-08 01:01:19 Terrasse 13.30 12.74 78.70
27269 2020-06-08 00:33:01 Terrasse 13.60 12.96 74.60
27268 2020-06-08 00:04:44 Terrasse 13.80 13.12 72.10
27267 2020-06-07 23:36:27 Terrasse 14.10 13.39 69.90
27266 2020-06-07 23:08:10 Terrasse 14.20 13.47 68.60
27265 2020-06-07 22:39:53 Terrasse 14.30 13.60 69.50
27264 2020-06-07 22:11:37 Terrasse 14.70 14.05 69.90
27263 2020-06-07 21:43:20 Terrasse 15.20 14.58 69.20
27262 2020-06-07 21:15:03 Terrasse 15.70 15.10 68.00
27261 2020-06-07 20:46:45 Terrasse 16.20 15.60 66.20
27260 2020-06-07 20:18:27 Terrasse 16.50 15.79 60.50
27259 2020-06-07 19:50:13 Terrasse 16.90 16.21 60.10
27258 2020-06-07 19:21:55 Terrasse 17.50 16.87 59.80
27257 2020-06-07 18:53:38 Terrasse 17.60 16.92 57.70
27256 2020-06-07 18:25:20 Terrasse 17.70 17.07 59.30
27255 2020-06-07 17:57:01 Terrasse 17.70 17.09 60.00
27254 2020-06-07 17:28:43 Terrasse 18.00 17.40 59.10
27253 2020-06-07 17:00:30 Terrasse 18.90 18.33 57.00
27252 2020-06-07 16:32:11 Terrasse 19.00 18.44 56.70
27251 2020-06-07 16:03:50 Terrasse 18.70 18.20 60.20
27250 2020-06-07 15:35:32 Terrasse 18.90 18.35 57.60
27249 2020-06-07 15:07:03 Terrasse 18.00 17.37 58.00
27248 2020-06-07 14:38:42 Terrasse 17.70 17.09 60.00
27247 2020-06-07 14:10:26 Terrasse 18.00 17.41 59.40
27246 2020-06-07 13:41:57 Terrasse 17.10 16.45 60.50
27245 2020-06-07 13:13:36 Terrasse 16.60 15.89 60.30
27244 2020-06-07 12:45:14 Terrasse 16.20 15.47 61.20
27243 2020-06-07 12:16:57 Terrasse 16.50 15.81 61.30
27242 2020-06-07 11:48:34 Terrasse 16.10 15.35 60.70
27241 2020-06-07 11:20:13 Terrasse 16.00 15.31 63.20
27240 2020-06-07 10:51:54 Terrasse 15.80 15.17 66.40
27239 2020-06-07 10:23:28 Terrasse 15.20 14.59 69.60
27238 2020-06-07 09:55:03 Terrasse 14.10 13.66 80.30
27237 2020-06-07 09:26:39 Terrasse 13.10 12.83 90.70
27236 2020-06-07 08:58:15 Terrasse 12.60 12.51 99.50
27235 2020-06-07 08:29:53 Terrasse 11.90 11.75 99.90
27234 2020-06-07 08:01:32 Terrasse 11.40 11.20 99.90
27233 2020-06-07 07:33:13 Terrasse 11.00 10.76 99.90
27232 2020-06-07 07:04:53 Terrasse 10.70 10.43 99.90
27231 2020-06-07 06:36:34 Terrasse 10.40 10.10 99.90
27230 2020-06-07 06:08:17 Terrasse 10.50 10.21 99.90
27229 2020-06-07 05:40:01 Terrasse 10.60 10.32 99.90
27228 2020-06-07 05:11:46 Terrasse 10.80 10.54 99.90
27227 2020-06-07 04:43:29 Terrasse 11.10 10.87 99.90
27226 2020-06-07 04:15:12 Terrasse 11.10 10.87 99.90
27225 2020-06-07 03:46:55 Terrasse 11.20 10.98 99.90
27224 2020-06-07 03:18:38 Terrasse 11.20 10.98 99.90
27223 2020-06-07 02:50:21 Terrasse 11.30 11.09 99.90
27222 2020-06-07 02:22:05 Terrasse 11.40 11.20 99.90
27221 2020-06-07 01:53:47 Terrasse 11.40 11.20 99.90
27220 2020-06-07 01:25:30 Terrasse 11.40 11.20 99.90
27219 2020-06-07 00:57:12 Terrasse 11.40 11.20 99.90
27218 2020-06-07 00:28:55 Terrasse 11.60 11.42 99.90
27217 2020-06-07 00:00:38 Terrasse 11.80 11.64 99.90
27216 2020-06-06 23:32:21 Terrasse 12.10 11.97 99.90
27215 2020-06-06 23:04:05 Terrasse 12.30 12.19 99.90
27214 2020-06-06 22:35:49 Terrasse 12.50 12.41 99.90
27213 2020-06-06 22:07:33 Terrasse 12.90 12.80 97.70
27212 2020-06-06 21:39:17 Terrasse 13.40 13.32 96.70
27211 2020-06-06 21:11:03 Terrasse 14.20 14.14 94.30
27210 2020-06-06 20:42:47 Terrasse 14.70 14.13 72.80
27209 2020-06-06 20:14:31 Terrasse 15.00 14.35 68.70
27208 2020-06-06 19:46:13 Terrasse 15.30 14.65 67.50
27207 2020-06-06 19:17:56 Terrasse 15.60 15.00 68.20
27206 2020-06-06 18:49:37 Terrasse 15.80 15.61 83.30
27205 2020-06-06 18:21:17 Terrasse 15.70 15.73 92.20
27204 2020-06-06 17:52:57 Terrasse 15.70 15.93 99.90
27203 2020-06-06 17:24:37 Terrasse 15.50 15.71 99.90
27202 2020-06-06 16:56:17 Terrasse 15.20 15.38 99.90
27201 2020-06-06 16:28:06 Terrasse 16.10 16.00 85.70
27200 2020-06-06 15:59:51 Terrasse 16.70 16.92 95.50
27199 2020-06-06 15:31:16 Terrasse 15.30 15.49 99.90
27198 2020-06-06 15:02:50 Terrasse 14.30 14.39 99.90
27197 2020-06-06 14:34:27 Terrasse 13.40 13.40 99.90
27196 2020-06-06 14:06:11 Terrasse 13.30 13.29 99.90
27195 2020-06-06 13:37:53 Terrasse 13.40 13.40 99.90
27194 2020-06-06 13:09:37 Terrasse 13.50 13.51 99.90
27193 2020-06-06 12:41:17 Terrasse 13.00 12.96 99.90
27192 2020-06-06 12:13:01 Terrasse 13.50 13.51 99.90
27191 2020-06-06 11:44:41 Terrasse 13.60 13.62 99.90
27190 2020-06-06 11:16:32 Terrasse 13.80 13.84 99.90
27189 2020-06-06 10:48:07 Terrasse 12.70 12.63 99.90
27188 2020-06-06 10:19:34 Terrasse 11.60 11.42 99.90
27187 2020-06-06 09:51:12 Terrasse 10.60 10.32 99.90
27186 2020-06-06 09:22:53 Terrasse 10.20 9.88 99.90
27185 2020-06-06 08:54:35 Terrasse 10.20 9.88 99.90
27184 2020-06-06 08:26:19 Terrasse 10.20 9.88 99.90
27183 2020-06-06 07:57:59 Terrasse 9.90 9.55 99.90
27182 2020-06-06 07:29:39 Terrasse 9.60 9.22 99.90
27181 2020-06-06 07:01:20 Terrasse 9.50 9.11 99.90
27180 2020-06-06 06:33:02 Terrasse 9.30 8.89 99.90
27179 2020-06-06 06:04:44 Terrasse 9.30 8.89 99.90
27178 2020-06-06 05:36:25 Terrasse 9.10 8.67 99.90
27177 2020-06-06 05:08:06 Terrasse 9.10 8.67 99.90
27176 2020-06-06 04:39:47 Terrasse 9.10 8.67 99.90
27175 2020-06-06 04:11:28 Terrasse 8.90 8.45 99.90
27174 2020-06-06 03:43:09 Terrasse 8.80 8.34 99.90
27173 2020-06-06 03:14:51 Terrasse 8.80 8.34 99.90
27172 2020-06-06 02:46:32 Terrasse 8.60 8.12 99.90
27171 2020-06-06 02:18:13 Terrasse 8.60 8.12 99.90
27170 2020-06-06 01:49:56 Terrasse 8.90 8.45 99.90
27169 2020-06-06 01:21:38 Terrasse 9.00 8.56 99.90
27168 2020-06-06 00:53:22 Terrasse 9.30 8.89 99.90
27167 2020-06-06 00:25:04 Terrasse 9.50 9.11 99.90
27166 2020-06-05 23:56:49 Terrasse 9.60 9.22 99.90
27165 2020-06-05 23:28:34 Terrasse 9.90 9.55 99.90
27164 2020-06-05 23:00:19 Terrasse 10.10 9.77 99.90
27163 2020-06-05 22:32:02 Terrasse 10.30 9.99 99.90
27162 2020-06-05 22:03:48 Terrasse 10.60 10.32 99.90
27161 2020-06-05 21:35:32 Terrasse 10.90 10.65 99.90
27160 2020-06-05 21:07:16 Terrasse 11.20 10.98 99.90
27159 2020-06-05 20:39:00 Terrasse 11.40 11.20 99.90
27158 2020-06-05 20:10:44 Terrasse 11.70 11.53 99.90
27157 2020-06-05 19:42:28 Terrasse 12.10 11.97 99.90
27156 2020-06-05 19:14:10 Terrasse 12.20 12.08 99.90
27155 2020-06-05 18:45:51 Terrasse 12.20 12.08 99.90
27154 2020-06-05 18:17:34 Terrasse 12.30 12.19 99.90
27153 2020-06-05 17:49:18 Terrasse 12.30 12.19 99.90
27152 2020-06-05 17:21:00 Terrasse 12.40 12.30 99.90
27151 2020-06-05 16:52:43 Terrasse 12.60 12.52 99.90
27150 2020-06-05 16:24:25 Terrasse 12.70 12.63 99.90
27149 2020-06-05 15:56:08 Terrasse 12.90 12.85 99.90
27148 2020-06-05 15:27:51 Terrasse 13.10 13.07 99.90
27147 2020-06-05 14:59:35 Terrasse 13.50 13.51 99.90
27146 2020-06-05 14:31:20 Terrasse 14.00 13.63 83.20
27145 2020-06-05 14:03:01 Terrasse 14.10 13.62 78.50
27144 2020-06-05 13:34:41 Terrasse 14.30 13.75 75.10
27143 2020-06-05 13:06:17 Terrasse 13.50 13.37 94.40
27142 2020-06-05 12:38:02 Terrasse 13.70 13.62 95.40
27141 2020-06-05 12:09:47 Terrasse 14.10 13.84 87.10
27140 2020-06-05 11:41:31 Terrasse 14.30 14.03 85.90
27139 2020-06-05 11:13:06 Terrasse 13.30 13.02 89.40
27138 2020-06-05 10:44:50 Terrasse 13.30 13.09 91.90
27137 2020-06-05 10:16:32 Terrasse 13.10 12.96 95.60
27136 2020-06-05 09:48:10 Terrasse 12.70 12.58 97.70
27135 2020-06-05 09:19:50 Terrasse 12.30 12.19 99.90
27134 2020-06-05 08:51:31 Terrasse 12.10 11.97 99.90
27133 2020-06-05 08:23:12 Terrasse 11.70 11.53 99.90
27132 2020-06-05 07:54:53 Terrasse 11.40 11.20 99.90
27131 2020-06-05 07:26:33 Terrasse 11.00 10.76 99.90
27130 2020-06-05 06:58:15 Terrasse 10.90 10.65 99.90
27129 2020-06-05 06:29:56 Terrasse 10.80 10.54 99.90
27128 2020-06-05 06:01:37 Terrasse 10.80 10.54 99.90
27127 2020-06-05 05:33:22 Terrasse 11.00 10.76 99.90
27126 2020-06-05 05:05:07 Terrasse 11.40 11.20 99.90
27125 2020-06-05 04:36:49 Terrasse 11.50 11.31 99.90
27124 2020-06-05 04:08:33 Terrasse 11.80 11.64 99.90
27123 2020-06-05 03:40:17 Terrasse 11.90 11.75 99.90
27122 2020-06-05 03:12:02 Terrasse 12.10 11.97 99.90
27121 2020-06-05 02:43:45 Terrasse 12.20 12.08 99.90
27120 2020-06-05 02:15:29 Terrasse 12.20 12.08 99.90
27119 2020-06-05 01:47:12 Terrasse 12.30 12.19 99.90
27118 2020-06-05 01:18:55 Terrasse 12.40 12.30 99.90
27117 2020-06-05 00:50:37 Terrasse 12.60 12.52 99.90
27116 2020-06-05 00:22:20 Terrasse 12.80 12.74 99.90
27115 2020-06-04 23:54:03 Terrasse 13.00 12.96 99.90
27114 2020-06-04 23:25:46 Terrasse 13.20 13.18 99.90
27113 2020-06-04 22:57:28 Terrasse 13.40 13.40 99.90
27112 2020-06-04 22:29:11 Terrasse 13.70 13.73 99.90
27111 2020-06-04 22:00:54 Terrasse 14.00 14.06 99.90
27110 2020-06-04 21:32:38 Terrasse 14.20 14.28 99.90
27109 2020-06-04 21:04:21 Terrasse 14.60 14.72 99.90
27108 2020-06-04 20:36:06 Terrasse 15.10 15.27 99.90
27107 2020-06-04 20:07:53 Terrasse 15.60 15.82 99.90
27106 2020-06-04 19:39:35 Terrasse 16.10 16.37 99.90
27105 2020-06-04 19:11:20 Terrasse 16.60 16.92 99.90
27104 2020-06-04 18:43:01 Terrasse 16.80 17.14 99.90
27103 2020-06-04 18:14:42 Terrasse 17.00 17.36 99.90
27102 2020-06-04 17:46:21 Terrasse 16.70 17.03 99.90
27101 2020-06-04 17:18:03 Terrasse 16.70 17.03 99.90
27100 2020-06-04 16:49:44 Terrasse 16.40 16.70 99.90
27099 2020-06-04 16:21:29 Terrasse 16.80 17.14 99.90
27098 2020-06-04 15:53:15 Terrasse 17.50 17.91 99.90
27097 2020-06-04 15:25:00 Terrasse 18.20 18.68 99.90
27096 2020-06-04 14:56:44 Terrasse 18.60 19.12 99.90
27095 2020-06-04 14:28:26 Terrasse 18.60 19.12 99.90
27094 2020-06-04 14:00:00 Terrasse 17.60 18.02 99.90
27093 2020-06-04 13:31:40 Terrasse 17.50 17.91 99.90
27092 2020-06-04 13:03:15 Terrasse 16.70 17.03 99.90
27091 2020-06-04 12:34:52 Terrasse 16.20 16.48 99.90
27090 2020-06-04 12:06:34 Terrasse 16.10 16.37 99.90
27089 2020-06-04 11:38:16 Terrasse 16.20 16.48 99.90
27088 2020-06-04 11:09:59 Terrasse 16.30 16.59 99.90
27087 2020-06-04 10:41:44 Terrasse 16.70 17.03 99.90
27086 2020-06-04 10:13:26 Terrasse 16.90 17.25 99.90
27085 2020-06-04 09:45:07 Terrasse 16.80 17.14 99.90
27084 2020-06-04 09:16:49 Terrasse 16.70 17.03 99.90
27083 2020-06-04 08:48:29 Terrasse 16.50 16.81 99.90
27082 2020-06-04 08:20:09 Terrasse 16.20 16.48 99.90
27081 2020-06-04 07:51:52 Terrasse 16.30 16.59 99.90
27080 2020-06-04 07:23:35 Terrasse 16.50 16.81 99.90
27079 2020-06-04 06:55:16 Terrasse 16.60 16.92 99.90
27078 2020-06-04 06:27:05 Terrasse 16.70 17.01 99.00
27077 2020-06-04 05:58:46 Terrasse 16.90 17.16 96.30
27076 2020-06-04 05:30:29 Terrasse 17.10 17.30 93.30
27075 2020-06-04 05:02:11 Terrasse 17.50 17.11 69.20
27074 2020-06-04 04:33:53 Terrasse 17.60 17.36 74.40
27073 2020-06-04 04:05:35 Terrasse 17.80 17.56 73.80
27072 2020-06-04 03:37:17 Terrasse 17.90 17.63 72.00
27071 2020-06-04 03:08:58 Terrasse 18.00 17.59 66.50
27070 2020-06-04 02:40:39 Terrasse 17.80 17.30 63.70
27069 2020-06-04 02:12:21 Terrasse 17.90 17.37 62.30
27068 2020-06-04 01:44:04 Terrasse 18.00 17.44 60.70
27067 2020-06-04 01:15:47 Terrasse 18.20 17.63 59.50
27066 2020-06-04 00:47:32 Terrasse 18.70 18.14 58.00
27065 2020-06-04 00:19:14 Terrasse 18.70 18.13 57.80
27064 2020-06-03 23:50:59 Terrasse 19.20 18.69 58.10
27063 2020-06-03 23:22:42 Terrasse 19.50 19.03 58.40
27062 2020-06-03 22:54:25 Terrasse 20.00 19.60 59.00
27061 2020-06-03 22:26:10 Terrasse 20.50 20.09 56.70
27060 2020-06-03 21:57:53 Terrasse 20.60 20.21 57.30
27059 2020-06-03 21:29:36 Terrasse 21.10 20.74 56.60
27058 2020-06-03 21:01:20 Terrasse 21.50 21.17 56.10
27057 2020-06-03 20:33:06 Terrasse 22.00 21.70 55.20
27056 2020-06-03 20:04:49 Terrasse 22.50 22.19 53.20
27055 2020-06-03 19:36:34 Terrasse 23.20 22.85 48.70
27054 2020-06-03 19:08:18 Terrasse 23.80 23.56 50.80
27053 2020-06-03 18:39:56 Terrasse 23.70 23.46 51.00
27052 2020-06-03 18:11:35 Terrasse 23.40 23.24 55.30
27051 2020-06-03 17:43:11 Terrasse 22.20 21.99 58.00
27050 2020-06-03 17:14:54 Terrasse 22.70 22.45 54.40
27049 2020-06-03 16:46:42 Terrasse 23.70 23.34 46.50
27048 2020-06-03 16:18:30 Terrasse 24.50 24.18 45.00
27047 2020-06-03 15:50:19 Terrasse 25.70 25.52 45.60
27046 2020-06-03 15:22:13 Terrasse 26.50 26.57 41.30
27045 2020-06-03 14:53:58 Terrasse 27.50 27.34 41.50
27044 2020-06-03 14:25:40 Terrasse 27.50 27.40 42.60
27043 2020-06-03 13:57:40 Terrasse 30.00 29.79 40.90
27042 2020-06-03 13:29:37 Terrasse 31.90 32.29 40.90
27041 2020-06-03 13:01:06 Terrasse 30.30 30.45 43.10
27040 2020-06-03 12:32:41 Terrasse 28.50 28.57 45.30
27039 2020-06-03 12:04:24 Terrasse 28.20 28.43 47.30
27038 2020-06-03 11:36:00 Terrasse 27.20 27.54 48.90
27037 2020-06-03 11:07:25 Terrasse 25.30 25.19 49.90
27036 2020-06-03 10:38:54 Terrasse 24.40 24.23 51.10
27035 2020-06-03 10:10:26 Terrasse 23.30 23.04 51.90
27034 2020-06-03 09:42:00 Terrasse 22.10 21.77 53.90
27033 2020-06-03 09:13:38 Terrasse 21.00 20.57 54.20
27032 2020-06-03 08:45:15 Terrasse 19.80 19.29 55.70
27031 2020-06-03 08:16:51 Terrasse 19.20 18.67 57.30
27030 2020-06-03 07:48:31 Terrasse 18.80 18.22 56.80
27029 2020-06-03 07:20:12 Terrasse 18.50 17.86 55.60
27028 2020-06-03 06:51:53 Terrasse 18.50 17.84 54.90
27027 2020-06-03 06:23:34 Terrasse 18.50 17.80 53.60
27026 2020-06-03 05:55:15 Terrasse 18.60 17.87 51.90
27025 2020-06-03 05:26:56 Terrasse 18.70 17.96 51.20
27024 2020-06-03 04:58:39 Terrasse 18.80 18.06 50.70
27023 2020-06-03 04:30:21 Terrasse 19.20 18.48 50.00
27022 2020-06-03 04:02:03 Terrasse 19.30 18.56 49.00
27021 2020-06-03 03:33:44 Terrasse 19.30 18.55 48.40
27020 2020-06-03 03:05:27 Terrasse 19.70 19.00 48.70
27019 2020-06-03 02:37:10 Terrasse 19.90 19.21 48.40
27018 2020-06-03 02:08:52 Terrasse 20.10 19.43 48.40
27017 2020-06-03 01:40:34 Terrasse 20.40 19.75 47.90
27016 2020-06-03 01:12:18 Terrasse 20.70 20.05 47.00
27015 2020-06-03 00:44:02 Terrasse 21.00 20.38 47.00
27014 2020-06-03 00:15:43 Terrasse 21.30 20.70 46.60
27013 2020-06-02 23:47:24 Terrasse 21.40 20.78 45.30
27012 2020-06-02 23:19:07 Terrasse 21.70 21.12 45.60
27011 2020-06-02 22:50:52 Terrasse 22.20 21.67 45.80
27010 2020-06-02 22:22:34 Terrasse 22.60 22.10 45.30
27009 2020-06-02 21:54:18 Terrasse 22.90 22.40 44.40
27008 2020-06-02 21:26:05 Terrasse 23.40 22.94 43.70
27007 2020-06-02 20:57:49 Terrasse 24.10 23.72 44.40
27006 2020-06-02 20:29:33 Terrasse 24.90 24.62 45.00
27005 2020-06-02 20:01:17 Terrasse 25.50 25.23 43.20
27004 2020-06-02 19:33:01 Terrasse 26.10 25.73 36.80
27003 2020-06-02 19:04:45 Terrasse 26.60 26.40 35.70
27002 2020-06-02 18:36:27 Terrasse 27.20 26.81 36.10
27001 2020-06-02 18:08:11 Terrasse 27.70 27.23 36.90
27000 2020-06-02 17:39:51 Terrasse 28.00 27.47 37.00
26999 2020-06-02 17:11:37 Terrasse 28.60 27.98 36.90
26998 2020-06-02 16:43:20 Terrasse 29.10 28.47 37.30
26997 2020-06-02 16:15:03 Terrasse 29.40 28.85 38.20
26996 2020-06-02 15:46:54 Terrasse 30.40 29.87 37.60
26995 2020-06-02 15:18:36 Terrasse 30.90 30.12 34.80
26994 2020-06-02 14:50:20 Terrasse 31.60 30.98 35.10
26993 2020-06-02 14:22:05 Terrasse 31.70 31.18 35.60
26992 2020-06-02 13:53:43 Terrasse 31.80 31.49 36.90
26991 2020-06-02 13:25:19 Terrasse 31.10 30.76 38.00
26990 2020-06-02 12:56:44 Terrasse 29.50 28.89 37.50
26989 2020-06-02 12:28:25 Terrasse 28.20 27.86 40.30
26988 2020-06-02 12:00:06 Terrasse 27.80 27.64 42.30
26987 2020-06-02 11:31:43 Terrasse 27.00 27.04 43.40
26986 2020-06-02 11:03:15 Terrasse 25.70 25.46 43.50
26985 2020-06-02 10:34:37 Terrasse 23.80 23.42 45.20
26984 2020-06-02 10:06:09 Terrasse 22.50 22.02 46.50
26983 2020-06-02 09:37:46 Terrasse 21.40 20.81 46.50
26982 2020-06-02 09:09:16 Terrasse 20.30 19.64 47.90
26981 2020-06-02 08:40:50 Terrasse 19.10 18.33 48.50
26980 2020-06-02 08:12:28 Terrasse 18.40 17.56 48.60
26979 2020-06-02 07:44:06 Terrasse 17.90 17.03 49.10
26978 2020-06-02 07:15:48 Terrasse 17.80 16.95 50.50
26977 2020-06-02 06:47:28 Terrasse 17.60 16.74 50.90
26976 2020-06-02 06:19:09 Terrasse 17.40 16.53 51.30
26975 2020-06-02 05:50:50 Terrasse 17.40 16.53 51.00
26974 2020-06-02 05:22:31 Terrasse 17.60 16.74 50.80
26973 2020-06-02 04:54:13 Terrasse 17.60 16.74 50.60
26972 2020-06-02 04:25:57 Terrasse 17.80 16.96 50.70
26971 2020-06-02 03:57:40 Terrasse 18.00 17.18 50.80
26970 2020-06-02 03:29:23 Terrasse 18.40 17.60 49.80
26969 2020-06-02 03:01:08 Terrasse 18.80 18.02 49.30
26968 2020-06-02 02:32:51 Terrasse 19.20 18.43 47.90
26967 2020-06-02 02:04:33 Terrasse 19.30 18.55 48.30
26966 2020-06-02 01:36:15 Terrasse 19.60 18.86 47.70
26965 2020-06-02 01:07:57 Terrasse 19.80 19.05 46.60
26964 2020-06-02 00:39:40 Terrasse 20.10 19.38 46.40
26963 2020-06-02 00:11:23 Terrasse 20.40 19.68 45.20
26962 2020-06-01 23:43:07 Terrasse 20.80 20.08 43.90
26961 2020-06-01 23:14:49 Terrasse 21.00 20.29 43.40
26960 2020-06-01 22:46:30 Terrasse 21.50 20.81 42.30
26959 2020-06-01 22:18:14 Terrasse 21.80 21.13 42.10
26958 2020-06-01 21:49:58 Terrasse 22.10 21.49 43.20
26957 2020-06-01 21:21:42 Terrasse 22.70 22.18 44.20
26956 2020-06-01 20:53:26 Terrasse 23.40 22.96 44.70
26955 2020-06-01 20:25:09 Terrasse 23.80 23.40 44.60
26954 2020-06-01 19:56:53 Terrasse 24.40 24.02 43.10
26953 2020-06-01 19:28:39 Terrasse 25.10 24.75 41.40
26952 2020-06-01 19:00:23 Terrasse 25.70 25.36 39.60
26951 2020-06-01 18:32:06 Terrasse 26.20 25.91 39.60
26950 2020-06-01 18:03:50 Terrasse 26.70 26.60 38.80
26949 2020-06-01 17:35:33 Terrasse 27.20 27.00 39.70
26948 2020-06-01 17:07:18 Terrasse 27.80 27.43 39.00
26947 2020-06-01 16:39:01 Terrasse 28.30 27.91 39.70
26946 2020-06-01 16:10:46 Terrasse 28.70 28.20 38.60
26945 2020-06-01 15:42:33 Terrasse 29.70 29.38 40.30
26944 2020-06-01 15:14:14 Terrasse 29.80 29.42 39.60
26943 2020-06-01 14:45:52 Terrasse 30.10 29.61 38.30
26942 2020-06-01 14:17:38 Terrasse 30.10 29.74 39.40
26941 2020-06-01 13:49:17 Terrasse 30.30 29.97 39.40
26940 2020-06-01 13:20:51 Terrasse 29.60 29.39 41.40
26939 2020-06-01 12:52:14 Terrasse 27.50 27.45 43.40
26938 2020-06-01 12:23:57 Terrasse 26.70 26.85 44.20
26937 2020-06-01 11:55:37 Terrasse 26.20 26.06 45.30
26936 2020-06-01 11:27:11 Terrasse 25.10 24.87 46.30
26935 2020-06-01 10:58:41 Terrasse 23.40 23.05 48.00
26934 2020-06-01 10:30:02 Terrasse 21.40 20.91 50.40
26933 2020-06-01 10:01:34 Terrasse 20.00 19.42 52.40
26932 2020-06-01 09:33:10 Terrasse 18.90 18.23 53.20
26931 2020-06-01 09:04:41 Terrasse 17.70 16.91 53.00
26930 2020-06-01 08:36:14 Terrasse 16.40 15.52 54.50
26929 2020-06-01 08:07:52 Terrasse 15.80 14.87 54.80
26928 2020-06-01 07:39:32 Terrasse 15.40 14.43 55.00
26927 2020-06-01 07:11:12 Terrasse 15.20 14.22 55.20
26926 2020-06-01 06:42:52 Terrasse 14.80 13.80 55.90
26925 2020-06-01 06:14:34 Terrasse 14.60 13.58 56.20
26924 2020-06-01 05:46:16 Terrasse 14.60 13.55 55.10
26923 2020-06-01 05:17:58 Terrasse 14.70 13.64 54.30
26922 2020-06-01 04:49:42 Terrasse 15.00 13.95 53.50
26921 2020-06-01 04:21:26 Terrasse 15.10 14.06 53.40
26920 2020-06-01 03:53:07 Terrasse 15.30 14.27 53.00
26919 2020-06-01 03:24:50 Terrasse 15.60 14.58 52.20
26918 2020-06-01 02:56:33 Terrasse 15.90 14.88 51.20
26917 2020-06-01 02:28:15 Terrasse 16.20 15.18 50.00
26916 2020-06-01 01:59:57 Terrasse 16.40 15.39 49.50
26915 2020-06-01 01:31:39 Terrasse 16.50 15.50 49.60
26914 2020-06-01 01:03:20 Terrasse 16.60 15.60 49.10
26913 2020-06-01 00:35:04 Terrasse 16.90 15.91 48.60
26912 2020-06-01 00:06:46 Terrasse 17.10 16.12 48.20
26911 2020-05-31 23:38:31 Terrasse 17.50 16.54 47.40
26910 2020-05-31 23:10:13 Terrasse 17.90 16.95 46.30
26909 2020-05-31 22:41:56 Terrasse 18.00 17.05 45.90
26908 2020-05-31 22:13:41 Terrasse 18.40 17.47 45.10
26907 2020-05-31 21:45:24 Terrasse 18.80 17.87 43.40
26906 2020-05-31 21:17:09 Terrasse 19.40 18.53 43.60
26905 2020-05-31 20:48:54 Terrasse 19.90 19.08 43.50
26904 2020-05-31 20:20:37 Terrasse 20.50 19.73 43.00
26903 2020-05-31 19:52:20 Terrasse 20.90 20.15 42.20
26902 2020-05-31 19:24:03 Terrasse 21.30 20.56 41.10
26901 2020-05-31 18:55:47 Terrasse 21.80 21.08 39.90
26900 2020-05-31 18:27:32 Terrasse 22.20 21.49 39.00
26899 2020-05-31 17:59:16 Terrasse 22.80 22.16 39.40
26898 2020-05-31 17:30:59 Terrasse 23.10 22.49 39.30
26897 2020-05-31 17:02:42 Terrasse 23.70 23.16 39.50
26896 2020-05-31 16:34:26 Terrasse 24.30 23.77 37.70
26895 2020-05-31 16:06:12 Terrasse 25.00 24.57 39.00
26894 2020-05-31 15:37:54 Terrasse 25.50 25.10 38.20
26893 2020-05-31 15:09:40 Terrasse 26.30 25.96 37.50
26892 2020-05-31 14:41:18 Terrasse 26.20 25.88 38.30
26891 2020-05-31 14:13:03 Terrasse 26.10 25.75 37.90
26890 2020-05-31 13:44:46 Terrasse 26.50 26.38 36.70
26889 2020-05-31 13:16:14 Terrasse 24.90 24.49 40.20
26888 2020-05-31 12:47:38 Terrasse 23.30 22.77 41.40
26887 2020-05-31 12:19:26 Terrasse 23.20 22.65 41.20
26886 2020-05-31 11:51:00 Terrasse 22.80 22.23 42.10
26885 2020-05-31 11:22:37 Terrasse 22.00 21.34 41.50
26884 2020-05-31 10:54:11 Terrasse 20.90 20.16 42.80
26883 2020-05-31 10:25:35 Terrasse 19.20 18.36 45.40
26882 2020-05-31 09:57:10 Terrasse 18.20 17.30 46.80
26881 2020-05-31 09:28:45 Terrasse 17.10 16.10 47.30
26880 2020-05-31 09:00:18 Terrasse 16.00 14.92 48.50
26879 2020-05-31 08:31:56 Terrasse 15.20 14.07 49.70
26878 2020-05-31 08:03:36 Terrasse 14.70 13.55 50.60
26877 2020-05-31 07:35:16 Terrasse 14.30 13.11 50.60
26876 2020-05-31 07:06:57 Terrasse 13.90 12.69 51.40
26875 2020-05-31 06:38:56 Terrasse 13.50 12.28 52.50
26874 2020-05-31 06:10:35 Terrasse 13.50 12.26 51.70
26873 2020-05-31 05:42:19 Terrasse 13.90 12.66 50.50
26872 2020-05-31 05:14:04 Terrasse 14.00 12.76 50.10
26871 2020-05-31 04:45:49 Terrasse 14.40 13.16 48.30
26870 2020-05-31 04:17:33 Terrasse 14.70 13.47 47.70
26869 2020-05-31 03:49:19 Terrasse 15.20 14.02 47.70
26868 2020-05-31 03:21:02 Terrasse 15.30 14.14 48.20
26867 2020-05-31 02:52:46 Terrasse 15.40 14.24 47.50
26866 2020-05-31 02:24:30 Terrasse 15.70 14.57 47.70
26865 2020-05-31 01:56:14 Terrasse 15.80 14.67 47.40
26864 2020-05-31 01:27:57 Terrasse 15.90 14.79 47.70
26863 2020-05-31 00:59:41 Terrasse 16.10 15.00 47.30
26862 2020-05-31 00:31:25 Terrasse 16.40 15.32 46.80
26861 2020-05-31 00:03:19 Terrasse 16.90 15.81 44.70
26860 2020-05-30 23:35:02 Terrasse 17.20 16.13 44.40
26859 2020-05-30 23:06:46 Terrasse 17.40 16.32 42.90
26858 2020-05-30 22:38:31 Terrasse 17.90 16.85 42.20
26857 2020-05-30 22:10:14 Terrasse 18.10 17.05 41.70
26856 2020-05-30 21:41:58 Terrasse 18.60 17.59 41.00
26855 2020-05-30 21:13:43 Terrasse 19.10 18.10 39.60
26854 2020-05-30 20:45:29 Terrasse 19.90 18.94 38.00
26853 2020-05-30 20:17:14 Terrasse 20.50 19.57 36.90
26852 2020-05-30 19:48:57 Terrasse 21.00 20.13 37.20
26851 2020-05-30 19:20:40 Terrasse 21.40 20.52 35.30
26850 2020-05-30 18:52:25 Terrasse 22.00 21.16 34.70
26849 2020-05-30 18:24:09 Terrasse 22.70 21.93 34.60
26848 2020-05-30 17:55:53 Terrasse 23.20 22.48 34.50
26847 2020-05-30 17:27:37 Terrasse 23.80 23.10 33.10
26846 2020-05-30 16:59:24 Terrasse 24.70 24.06 32.10
26845 2020-05-30 16:31:08 Terrasse 25.40 24.84 32.40
26844 2020-05-30 16:02:56 Terrasse 26.10 25.64 33.60
26843 2020-05-30 15:34:41 Terrasse 27.30 26.71 32.40
26842 2020-05-30 15:06:23 Terrasse 27.60 26.93 32.60
26841 2020-05-30 14:38:00 Terrasse 27.90 27.12 32.10
26840 2020-05-30 14:09:48 Terrasse 28.10 27.37 34.00
26839 2020-05-30 13:41:28 Terrasse 27.80 27.18 34.70
26838 2020-05-30 13:13:01 Terrasse 26.90 26.65 36.90
26837 2020-05-30 12:44:24 Terrasse 24.90 24.40 36.50
26836 2020-05-30 12:16:11 Terrasse 24.50 23.96 36.40
26835 2020-05-30 11:47:54 Terrasse 24.20 23.64 36.90
26834 2020-05-30 11:19:27 Terrasse 23.00 22.36 38.60
26833 2020-05-30 10:50:56 Terrasse 21.70 20.99 40.60
26832 2020-05-30 10:22:23 Terrasse 20.20 19.42 43.80
26831 2020-05-30 09:53:59 Terrasse 19.00 18.10 43.70
26830 2020-05-30 09:25:36 Terrasse 18.10 17.17 46.30
26829 2020-05-30 08:57:08 Terrasse 16.80 15.78 47.50
26828 2020-05-30 08:28:44 Terrasse 15.80 14.67 47.20
26827 2020-05-30 08:00:22 Terrasse 15.30 14.11 47.00
26826 2020-05-30 07:32:03 Terrasse 14.90 13.71 48.40
26825 2020-05-30 07:03:44 Terrasse 14.80 13.62 49.10
26824 2020-05-30 06:35:26 Terrasse 14.40 13.17 48.70
26823 2020-05-30 06:07:06 Terrasse 14.30 13.06 48.90
26822 2020-05-30 05:38:49 Terrasse 14.00 12.72 48.40
26821 2020-05-30 05:10:34 Terrasse 14.30 13.04 48.10
26820 2020-05-30 04:42:18 Terrasse 14.80 13.55 46.60
26819 2020-05-30 04:14:01 Terrasse 14.70 13.43 46.20
26818 2020-05-30 03:45:44 Terrasse 15.00 13.76 46.10
26817 2020-05-30 03:17:28 Terrasse 15.20 13.97 45.80
26816 2020-05-30 02:49:10 Terrasse 15.40 14.17 45.10
26815 2020-05-30 02:20:54 Terrasse 15.60 14.36 44.00
26814 2020-05-30 01:52:37 Terrasse 15.80 14.58 43.70
26813 2020-05-30 01:24:21 Terrasse 16.10 14.89 43.20
26812 2020-05-30 00:56:04 Terrasse 16.40 15.20 42.40
26811 2020-05-30 00:27:47 Terrasse 16.80 15.63 42.00
26810 2020-05-29 23:59:31 Terrasse 17.20 16.05 41.30
26809 2020-05-29 23:31:15 Terrasse 17.50 16.39 41.40
26808 2020-05-29 23:02:59 Terrasse 17.70 16.58 40.50
26807 2020-05-29 22:34:42 Terrasse 18.10 17.03 40.80
26806 2020-05-29 22:06:24 Terrasse 18.40 17.40 42.20
26805 2020-05-29 21:38:09 Terrasse 18.80 17.84 42.20
26804 2020-05-29 21:09:55 Terrasse 19.40 18.49 41.80
26803 2020-05-29 20:41:42 Terrasse 20.10 19.24 41.00
26802 2020-05-29 20:13:27 Terrasse 20.60 19.75 39.50
26801 2020-05-29 19:45:13 Terrasse 21.50 20.65 36.10
26800 2020-05-29 19:16:59 Terrasse 22.00 21.17 35.20
26799 2020-05-29 18:48:43 Terrasse 22.60 21.81 34.20
26798 2020-05-29 18:20:30 Terrasse 23.30 22.57 33.70
26797 2020-05-29 17:52:11 Terrasse 23.60 22.90 33.70
26796 2020-05-29 17:23:55 Terrasse 24.30 23.69 34.60
26795 2020-05-29 16:55:38 Terrasse 24.70 24.10 33.60
26794 2020-05-29 16:27:22 Terrasse 25.20 24.66 34.00
26793 2020-05-29 15:59:11 Terrasse 26.10 25.66 34.20
26792 2020-05-29 15:30:54 Terrasse 27.20 26.70 33.70
26791 2020-05-29 15:02:40 Terrasse 27.60 26.99 33.90
26790 2020-05-29 14:34:16 Terrasse 27.80 27.17 34.50
26789 2020-05-29 14:06:00 Terrasse 27.90 27.27 35.00
26788 2020-05-29 13:37:33 Terrasse 27.10 26.75 36.20
26787 2020-05-29 13:08:59 Terrasse 25.20 24.85 41.00
26786 2020-05-29 12:40:39 Terrasse 24.20 23.71 39.70
26785 2020-05-29 12:12:36 Terrasse 23.30 22.77 41.60
26784 2020-05-29 11:44:18 Terrasse 24.10 23.62 40.50
26783 2020-05-29 11:15:55 Terrasse 22.70 22.19 44.60
26782 2020-05-29 10:47:20 Terrasse 21.00 20.31 44.10
26781 2020-05-29 10:18:47 Terrasse 19.60 18.83 46.40
26780 2020-05-29 09:50:22 Terrasse 18.40 17.54 47.80
26779 2020-05-29 09:21:56 Terrasse 17.10 16.15 49.20
26778 2020-05-29 08:53:27 Terrasse 16.00 14.95 49.70
26777 2020-05-29 08:25:05 Terrasse 15.20 14.08 49.80
26776 2020-05-29 07:56:43 Terrasse 14.70 13.54 50.50
26775 2020-05-29 07:28:22 Terrasse 14.30 13.10 50.40
26774 2020-05-29 07:00:03 Terrasse 14.00 12.79 51.00
26773 2020-05-29 06:31:43 Terrasse 13.80 12.53 49.50
26772 2020-05-29 06:03:26 Terrasse 13.80 12.51 49.00
26771 2020-05-29 05:35:07 Terrasse 13.80 12.48 47.80
26770 2020-05-29 05:06:50 Terrasse 13.90 12.61 48.40
26769 2020-05-29 04:38:33 Terrasse 13.80 12.51 48.90
26768 2020-05-29 04:10:19 Terrasse 14.20 12.94 48.60
26767 2020-05-29 03:42:03 Terrasse 14.50 13.26 47.90
26766 2020-05-29 03:13:47 Terrasse 14.80 13.58 47.70
26765 2020-05-29 02:45:32 Terrasse 15.20 13.99 46.70
26764 2020-05-29 02:17:16 Terrasse 15.50 14.29 45.50
26763 2020-05-29 01:49:00 Terrasse 15.70 14.49 44.70
26762 2020-05-29 01:20:41 Terrasse 15.90 14.70 44.20
26761 2020-05-29 00:52:25 Terrasse 16.20 15.02 44.00
26760 2020-05-29 00:24:07 Terrasse 16.40 15.22 43.00
26759 2020-05-28 23:55:51 Terrasse 16.70 15.53 42.20
26758 2020-05-28 23:27:35 Terrasse 16.90 15.75 42.30
26757 2020-05-28 22:59:19 Terrasse 17.30 16.18 41.90
26756 2020-05-28 22:31:03 Terrasse 17.50 16.39 41.40
26755 2020-05-28 22:02:46 Terrasse 17.90 16.80 40.30
26754 2020-05-28 21:34:30 Terrasse 18.40 17.35 40.30
26753 2020-05-28 21:06:17 Terrasse 19.00 17.97 38.80
26752 2020-05-28 20:38:02 Terrasse 19.60 18.61 38.10
26751 2020-05-28 20:09:47 Terrasse 20.30 19.40 38.70
26750 2020-05-28 19:41:35 Terrasse 21.10 20.27 38.60
26749 2020-05-28 19:13:22 Terrasse 22.10 21.25 33.80
26748 2020-05-28 18:45:08 Terrasse 22.80 22.03 34.40
26747 2020-05-28 18:16:54 Terrasse 23.30 22.59 34.60
26746 2020-05-28 17:48:44 Terrasse 23.70 22.96 31.90
26745 2020-05-28 17:20:26 Terrasse 24.10 23.40 32.10
26744 2020-05-28 16:52:11 Terrasse 24.80 24.22 34.00
26743 2020-05-28 16:23:57 Terrasse 25.40 24.90 34.80
26742 2020-05-28 15:56:07 Terrasse 26.40 25.94 32.50
26741 2020-05-28 15:27:39 Terrasse 27.10 26.67 34.50
26740 2020-05-28 14:59:27 Terrasse 27.70 26.98 32.10
26739 2020-05-28 14:31:02 Terrasse 27.70 27.14 35.30
26738 2020-05-28 14:02:48 Terrasse 28.30 27.61 35.20
26737 2020-05-28 13:34:27 Terrasse 27.70 27.10 34.60
26736 2020-05-28 13:06:01 Terrasse 26.70 26.46 35.70
26735 2020-05-28 12:37:29 Terrasse 24.40 23.94 40.10
26734 2020-05-28 12:09:13 Terrasse 24.30 23.86 41.10
26733 2020-05-28 11:40:51 Terrasse 23.60 23.15 43.40
26732 2020-05-28 11:12:26 Terrasse 22.70 22.24 46.40
26731 2020-05-28 10:43:49 Terrasse 20.80 20.15 46.60
26730 2020-05-28 10:15:18 Terrasse 19.40 18.76 52.40
26729 2020-05-28 09:46:52 Terrasse 18.30 17.61 54.40
26728 2020-05-28 09:18:25 Terrasse 17.20 16.46 56.80
26727 2020-05-28 08:49:58 Terrasse 16.10 15.28 58.10
26726 2020-05-28 08:21:35 Terrasse 15.60 14.77 59.60
26725 2020-05-28 07:53:14 Terrasse 15.10 14.24 60.20
26724 2020-05-28 07:24:56 Terrasse 15.00 14.14 60.70
26723 2020-05-28 06:56:37 Terrasse 15.00 14.14 60.60
26722 2020-05-28 06:28:21 Terrasse 15.10 14.22 59.50
26721 2020-05-28 06:00:04 Terrasse 15.50 14.63 58.30
26720 2020-05-28 05:31:46 Terrasse 15.80 14.94 57.70
26719 2020-05-28 05:03:29 Terrasse 16.10 15.28 58.10
26718 2020-05-28 04:35:12 Terrasse 16.40 15.60 57.60
26717 2020-05-28 04:06:55 Terrasse 16.70 15.95 58.30
26716 2020-05-28 03:38:38 Terrasse 16.90 16.18 58.80
26715 2020-05-28 03:10:19 Terrasse 17.00 16.32 59.80
26714 2020-05-28 02:42:01 Terrasse 17.20 16.53 59.60
26713 2020-05-28 02:13:44 Terrasse 17.40 16.72 58.20
26712 2020-05-28 01:45:26 Terrasse 17.70 16.99 56.20
26711 2020-05-28 01:17:07 Terrasse 17.60 16.82 53.80
26710 2020-05-28 00:48:50 Terrasse 17.70 16.95 54.40
26709 2020-05-28 00:20:30 Terrasse 17.80 17.06 54.60
26708 2020-05-27 23:52:13 Terrasse 17.90 17.17 54.40
26707 2020-05-27 23:23:55 Terrasse 18.00 17.26 53.70
26706 2020-05-27 22:55:37 Terrasse 18.30 17.56 52.60
26705 2020-05-27 22:27:20 Terrasse 18.70 17.96 51.30
26704 2020-05-27 21:59:03 Terrasse 19.20 18.54 52.20
26703 2020-05-27 21:30:47 Terrasse 19.70 19.10 52.80
26702 2020-05-27 21:02:33 Terrasse 20.60 20.10 52.90
26701 2020-05-27 20:34:24 Terrasse 21.40 20.84 47.60
26700 2020-05-27 20:06:06 Terrasse 21.90 21.38 47.10
26699 2020-05-27 19:37:51 Terrasse 22.60 22.09 45.00
26698 2020-05-27 19:09:35 Terrasse 23.20 22.73 44.10
26697 2020-05-27 18:41:17 Terrasse 23.60 23.17 44.20
26696 2020-05-27 18:12:57 Terrasse 23.70 23.27 43.70
26695 2020-05-27 17:44:42 Terrasse 24.30 23.90 42.50
26694 2020-05-27 17:16:24 Terrasse 24.70 24.37 43.70
26693 2020-05-27 16:48:08 Terrasse 25.10 24.73 40.90
26692 2020-05-27 16:19:55 Terrasse 26.00 25.73 41.00
26691 2020-05-27 15:51:45 Terrasse 26.50 26.52 40.10
26690 2020-05-27 15:23:26 Terrasse 27.40 27.16 39.90
26689 2020-05-27 14:55:15 Terrasse 28.30 27.92 39.80
26688 2020-05-27 14:26:50 Terrasse 27.60 27.39 41.00
26687 2020-05-27 13:58:37 Terrasse 28.40 28.16 41.80
26686 2020-05-27 13:30:15 Terrasse 27.40 27.29 42.20
26685 2020-05-27 13:01:46 Terrasse 26.10 25.97 46.10
26684 2020-05-27 12:33:16 Terrasse 23.90 23.65 50.00
26683 2020-05-27 12:05:01 Terrasse 23.70 23.45 50.60
26682 2020-05-27 11:36:35 Terrasse 22.80 22.51 52.80
26681 2020-05-27 11:08:09 Terrasse 21.50 21.13 54.40
26680 2020-05-27 10:39:30 Terrasse 19.60 19.17 59.70
26679 2020-05-27 10:11:00 Terrasse 18.20 17.78 65.10
26678 2020-05-27 09:42:35 Terrasse 17.00 16.51 67.30
26677 2020-05-27 09:14:07 Terrasse 15.80 15.28 70.50
26676 2020-05-27 08:45:38 Terrasse 14.50 14.14 81.60
26675 2020-05-27 08:17:13 Terrasse 13.50 13.18 87.10
26674 2020-05-27 07:48:51 Terrasse 12.80 12.60 94.50
26673 2020-05-27 07:20:30 Terrasse 12.30 12.19 99.90
26672 2020-05-27 06:52:10 Terrasse 11.90 11.67 96.80
26671 2020-05-27 06:23:50 Terrasse 11.70 11.41 95.20
26670 2020-05-27 05:55:33 Terrasse 11.80 11.46 92.70
26669 2020-05-27 05:27:16 Terrasse 11.90 11.58 93.10
26668 2020-05-27 04:58:58 Terrasse 12.10 11.75 91.50
26667 2020-05-27 04:30:42 Terrasse 12.20 11.83 90.10
26666 2020-05-27 04:02:25 Terrasse 12.40 11.93 85.50
26665 2020-05-27 03:34:10 Terrasse 12.70 12.10 79.60
26664 2020-05-27 03:05:50 Terrasse 12.80 12.21 79.40
26663 2020-05-27 02:37:31 Terrasse 12.70 12.10 79.30
26662 2020-05-27 02:09:15 Terrasse 13.30 12.58 72.50
26661 2020-05-27 01:40:59 Terrasse 13.80 13.04 69.00
26660 2020-05-27 01:12:42 Terrasse 14.00 13.27 69.40
26659 2020-05-27 00:44:24 Terrasse 14.00 13.23 67.80
26658 2020-05-27 00:16:06 Terrasse 14.10 13.32 67.30
26657 2020-05-26 23:47:49 Terrasse 14.50 13.72 65.50
26656 2020-05-26 23:19:32 Terrasse 15.00 14.24 64.40
26655 2020-05-26 22:51:16 Terrasse 15.30 14.57 64.50
26654 2020-05-26 22:23:01 Terrasse 15.60 14.87 63.50
26653 2020-05-26 21:54:44 Terrasse 16.10 15.37 61.60
26652 2020-05-26 21:26:29 Terrasse 16.60 15.91 60.90
26651 2020-05-26 20:58:14 Terrasse 17.20 16.53 59.40
26650 2020-05-26 20:29:58 Terrasse 17.70 17.07 59.10
26649 2020-05-26 20:01:42 Terrasse 18.50 17.89 56.70
26648 2020-05-26 19:33:27 Terrasse 19.20 18.59 54.30
26647 2020-05-26 19:05:08 Terrasse 19.40 18.79 53.50
26646 2020-05-26 18:36:50 Terrasse 19.90 19.35 53.70
26645 2020-05-26 18:08:36 Terrasse 20.50 19.98 52.50
26644 2020-05-26 17:40:16 Terrasse 20.40 19.86 52.40
26643 2020-05-26 17:11:59 Terrasse 21.00 20.50 51.60
26642 2020-05-26 16:43:43 Terrasse 21.60 21.19 52.60
26641 2020-05-26 16:15:27 Terrasse 21.80 21.41 52.60
26640 2020-05-26 15:47:10 Terrasse 22.40 22.06 52.20
26639 2020-05-26 15:18:55 Terrasse 23.20 22.92 51.50
26638 2020-05-26 14:50:40 Terrasse 24.20 24.03 51.70
26637 2020-05-26 14:22:25 Terrasse 24.20 24.08 53.90
26636 2020-05-26 13:53:56 Terrasse 23.20 22.97 53.40
26635 2020-05-26 13:25:06 Terrasse 19.00 18.50 59.10
26634 2020-05-26 12:56:50 Terrasse 18.70 18.29 63.60
26633 2020-05-26 12:28:22 Terrasse 18.00 17.53 64.00
26632 2020-05-26 12:00:00 Terrasse 17.10 16.72 70.90